<?xml version="1.0" encoding="UTF-8" standalone="no" ?>
<gpx xmlns="http://www.topografix.com/GPX/1/1" xmlns:xsi="http://www.w3.org/2001/XMLSchema-instance" xsi:schemaLocation="http://www.topografix.com/GPX/1/1 http://www.topografix.com/GPX/1/1/gpx.xsd" version="1.1" creator="VisuGPX - https://www.visugpx.com">
  <metadata>
    <name>Jura_Chateau d'Arlay-Route touristique des étangs au vignoble du Jura</name>
  </metadata>
  <trk>
    <name><![CDATA[17-JUIL-22 03:55:41 PM]]></name>
    <extensions>
      <line xmlns="http://www.topografix.com/GPX/gpx_style/0/2">
        <color>0000FF</color>
        <width>4</width>
      </line>
    </extensions>
    <trkseg>
      <trkpt lat="46.7594" lon="5.54227">
        <ele>192.4</ele>
        <time>2022-07-17T08:27:53Z</time>
      </trkpt>
      <trkpt lat="46.75958" lon="5.54213">
        <ele>192.88</ele>
        <time>2022-07-17T08:28:14Z</time>
      </trkpt>
      <trkpt lat="46.75953" lon="5.54194">
        <ele>196.73</ele>
        <time>2022-07-17T08:28:24Z</time>
      </trkpt>
      <trkpt lat="46.75953" lon="5.54191">
        <ele>200.09</ele>
        <time>2022-07-17T08:28:26Z</time>
      </trkpt>
      <trkpt lat="46.75953" lon="5.54191">
        <ele>204.42</ele>
        <time>2022-07-17T08:28:29Z</time>
      </trkpt>
      <trkpt lat="46.75953" lon="5.54191">
        <ele>208.26</ele>
        <time>2022-07-17T08:28:32Z</time>
      </trkpt>
      <trkpt lat="46.75953" lon="5.5419">
        <ele>211.15</ele>
        <time>2022-07-17T08:28:35Z</time>
      </trkpt>
      <trkpt lat="46.75954" lon="5.5419">
        <ele>214.99</ele>
        <time>2022-07-17T08:28:39Z</time>
      </trkpt>
      <trkpt lat="46.75954" lon="5.5419">
        <ele>214.99</ele>
        <time>2022-07-17T08:28:40Z</time>
      </trkpt>
      <trkpt lat="46.75954" lon="5.5419">
        <ele>218.36</ele>
        <time>2022-07-17T08:28:44Z</time>
      </trkpt>
      <trkpt lat="46.75956" lon="5.54188">
        <ele>221.72</ele>
        <time>2022-07-17T08:28:50Z</time>
      </trkpt>
      <trkpt lat="46.75956" lon="5.54188">
        <ele>222.2</ele>
        <time>2022-07-17T08:28:51Z</time>
      </trkpt>
      <trkpt lat="46.75956" lon="5.5419">
        <ele>223.16</ele>
        <time>2022-07-17T08:28:53Z</time>
      </trkpt>
      <trkpt lat="46.75956" lon="5.54194">
        <ele>224.12</ele>
        <time>2022-07-17T08:28:55Z</time>
      </trkpt>
      <trkpt lat="46.75958" lon="5.54199">
        <ele>225.09</ele>
        <time>2022-07-17T08:28:57Z</time>
      </trkpt>
      <trkpt lat="46.75959" lon="5.54201">
        <ele>225.09</ele>
        <time>2022-07-17T08:28:58Z</time>
      </trkpt>
      <trkpt lat="46.75961" lon="5.54203">
        <ele>225.09</ele>
        <time>2022-07-17T08:28:59Z</time>
      </trkpt>
      <trkpt lat="46.75962" lon="5.54206">
        <ele>225.57</ele>
        <time>2022-07-17T08:29:00Z</time>
      </trkpt>
      <trkpt lat="46.75963" lon="5.54209">
        <ele>226.05</ele>
        <time>2022-07-17T08:29:01Z</time>
      </trkpt>
      <trkpt lat="46.75964" lon="5.54212">
        <ele>226.53</ele>
        <time>2022-07-17T08:29:02Z</time>
      </trkpt>
      <trkpt lat="46.75965" lon="5.54229">
        <ele>228.93</ele>
        <time>2022-07-17T08:29:10Z</time>
      </trkpt>
      <trkpt lat="46.75965" lon="5.54232">
        <ele>229.41</ele>
        <time>2022-07-17T08:29:11Z</time>
      </trkpt>
      <trkpt lat="46.75963" lon="5.54233">
        <ele>229.89</ele>
        <time>2022-07-17T08:29:12Z</time>
      </trkpt>
      <trkpt lat="46.75961" lon="5.54237">
        <ele>231.33</ele>
        <time>2022-07-17T08:29:14Z</time>
      </trkpt>
      <trkpt lat="46.75951" lon="5.54241">
        <ele>235.18</ele>
        <time>2022-07-17T08:29:21Z</time>
      </trkpt>
      <trkpt lat="46.75947" lon="5.54242">
        <ele>235.66</ele>
        <time>2022-07-17T08:29:23Z</time>
      </trkpt>
      <trkpt lat="46.75936" lon="5.54243">
        <ele>239.02</ele>
        <time>2022-07-17T08:29:29Z</time>
      </trkpt>
      <trkpt lat="46.75933" lon="5.54243">
        <ele>239.51</ele>
        <time>2022-07-17T08:29:31Z</time>
      </trkpt>
      <trkpt lat="46.75928" lon="5.54244">
        <ele>241.43</ele>
        <time>2022-07-17T08:29:34Z</time>
      </trkpt>
      <trkpt lat="46.75923" lon="5.54245">
        <ele>243.35</ele>
        <time>2022-07-17T08:29:38Z</time>
      </trkpt>
      <trkpt lat="46.7592" lon="5.54245">
        <ele>303.43</ele>
        <time>2022-07-17T08:29:40Z</time>
      </trkpt>
      <trkpt lat="46.75919" lon="5.54245">
        <ele>303.43</ele>
        <time>2022-07-17T08:29:41Z</time>
      </trkpt>
      <trkpt lat="46.75911" lon="5.54243">
        <ele>255.37</ele>
        <time>2022-07-17T08:29:46Z</time>
      </trkpt>
      <trkpt lat="46.75909" lon="5.54242">
        <ele>255.37</ele>
        <time>2022-07-17T08:29:47Z</time>
      </trkpt>
      <trkpt lat="46.75868" lon="5.54238">
        <ele>257.77</ele>
        <time>2022-07-17T08:30:07Z</time>
      </trkpt>
      <trkpt lat="46.75832" lon="5.5423">
        <ele>260.17</ele>
        <time>2022-07-17T08:30:24Z</time>
      </trkpt>
      <trkpt lat="46.75794" lon="5.54227">
        <ele>262.1</ele>
        <time>2022-07-17T08:30:42Z</time>
      </trkpt>
      <trkpt lat="46.75763" lon="5.54222">
        <ele>264.5</ele>
        <time>2022-07-17T08:30:58Z</time>
      </trkpt>
      <trkpt lat="46.75754" lon="5.5422">
        <ele>264.98</ele>
        <time>2022-07-17T08:31:11Z</time>
      </trkpt>
      <trkpt lat="46.7575" lon="5.54219">
        <ele>264.98</ele>
        <time>2022-07-17T08:31:37Z</time>
      </trkpt>
      <trkpt lat="46.75749" lon="5.54219">
        <ele>265.46</ele>
        <time>2022-07-17T08:31:38Z</time>
      </trkpt>
      <trkpt lat="46.75748" lon="5.54219">
        <ele>265.46</ele>
        <time>2022-07-17T08:31:39Z</time>
      </trkpt>
      <trkpt lat="46.75746" lon="5.54219">
        <ele>265.94</ele>
        <time>2022-07-17T08:31:40Z</time>
      </trkpt>
      <trkpt lat="46.75744" lon="5.54219">
        <ele>265.94</ele>
        <time>2022-07-17T08:31:41Z</time>
      </trkpt>
      <trkpt lat="46.75743" lon="5.54219">
        <ele>265.94</ele>
        <time>2022-07-17T08:31:42Z</time>
      </trkpt>
      <trkpt lat="46.75741" lon="5.54218">
        <ele>265.94</ele>
        <time>2022-07-17T08:31:43Z</time>
      </trkpt>
      <trkpt lat="46.7574" lon="5.54217">
        <ele>265.94</ele>
        <time>2022-07-17T08:31:44Z</time>
      </trkpt>
      <trkpt lat="46.75739" lon="5.54216">
        <ele>265.94</ele>
        <time>2022-07-17T08:31:45Z</time>
      </trkpt>
      <trkpt lat="46.75737" lon="5.54216">
        <ele>265.94</ele>
        <time>2022-07-17T08:31:46Z</time>
      </trkpt>
      <trkpt lat="46.75736" lon="5.54215">
        <ele>265.94</ele>
        <time>2022-07-17T08:31:47Z</time>
      </trkpt>
      <trkpt lat="46.75707" lon="5.54195">
        <ele>266.9</ele>
        <time>2022-07-17T08:32:03Z</time>
      </trkpt>
      <trkpt lat="46.75671" lon="5.54176">
        <ele>269.31</ele>
        <time>2022-07-17T08:32:23Z</time>
      </trkpt>
      <trkpt lat="46.75632" lon="5.54162">
        <ele>269.79</ele>
        <time>2022-07-17T08:32:40Z</time>
      </trkpt>
      <trkpt lat="46.756" lon="5.54151">
        <ele>271.23</ele>
        <time>2022-07-17T08:32:53Z</time>
      </trkpt>
      <trkpt lat="46.75555" lon="5.54142">
        <ele>272.67</ele>
        <time>2022-07-17T08:33:09Z</time>
      </trkpt>
      <trkpt lat="46.75501" lon="5.54136">
        <ele>273.63</ele>
        <time>2022-07-17T08:33:27Z</time>
      </trkpt>
      <trkpt lat="46.75449" lon="5.54129">
        <ele>277</ele>
        <time>2022-07-17T08:33:44Z</time>
      </trkpt>
      <trkpt lat="46.75413" lon="5.54112">
        <ele>278.92</ele>
        <time>2022-07-17T08:34:00Z</time>
      </trkpt>
      <trkpt lat="46.75388" lon="5.54099">
        <ele>281.8</ele>
        <time>2022-07-17T08:34:16Z</time>
      </trkpt>
      <trkpt lat="46.75362" lon="5.54081">
        <ele>284.21</ele>
        <time>2022-07-17T08:34:33Z</time>
      </trkpt>
      <trkpt lat="46.75334" lon="5.54064">
        <ele>287.09</ele>
        <time>2022-07-17T08:34:51Z</time>
      </trkpt>
      <trkpt lat="46.753" lon="5.54047">
        <ele>289.01</ele>
        <time>2022-07-17T08:35:07Z</time>
      </trkpt>
      <trkpt lat="46.7526" lon="5.54023">
        <ele>291.9</ele>
        <time>2022-07-17T08:35:25Z</time>
      </trkpt>
      <trkpt lat="46.75219" lon="5.54001">
        <ele>293.34</ele>
        <time>2022-07-17T08:35:42Z</time>
      </trkpt>
      <trkpt lat="46.75175" lon="5.5398">
        <ele>295.26</ele>
        <time>2022-07-17T08:36:01Z</time>
      </trkpt>
      <trkpt lat="46.75129" lon="5.53954">
        <ele>298.15</ele>
        <time>2022-07-17T08:36:21Z</time>
      </trkpt>
      <trkpt lat="46.75081" lon="5.53929">
        <ele>300.55</ele>
        <time>2022-07-17T08:36:42Z</time>
      </trkpt>
      <trkpt lat="46.75034" lon="5.53905">
        <ele>302.95</ele>
        <time>2022-07-17T08:37:02Z</time>
      </trkpt>
      <trkpt lat="46.75009" lon="5.53891">
        <ele>303.43</ele>
        <time>2022-07-17T08:37:13Z</time>
      </trkpt>
      <trkpt lat="46.7501" lon="5.53893">
        <ele>303.91</ele>
        <time>2022-07-17T08:37:17Z</time>
      </trkpt>
      <trkpt lat="46.75011" lon="5.53892">
        <ele>303.91</ele>
        <time>2022-07-17T08:37:18Z</time>
      </trkpt>
      <trkpt lat="46.75013" lon="5.53891">
        <ele>303.91</ele>
        <time>2022-07-17T08:37:19Z</time>
      </trkpt>
      <trkpt lat="46.75014" lon="5.5389">
        <ele>303.43</ele>
        <time>2022-07-17T08:37:20Z</time>
      </trkpt>
      <trkpt lat="46.75015" lon="5.53889">
        <ele>303.43</ele>
        <time>2022-07-17T08:37:21Z</time>
      </trkpt>
      <trkpt lat="46.75015" lon="5.53889">
        <ele>303.43</ele>
        <time>2022-07-17T08:37:35Z</time>
      </trkpt>
      <trkpt lat="46.75015" lon="5.53894">
        <ele>303.91</ele>
        <time>2022-07-17T08:37:58Z</time>
      </trkpt>
      <trkpt lat="46.75014" lon="5.53895">
        <ele>303.91</ele>
        <time>2022-07-17T08:37:59Z</time>
      </trkpt>
      <trkpt lat="46.75012" lon="5.53893">
        <ele>303.43</ele>
        <time>2022-07-17T08:38:00Z</time>
      </trkpt>
      <trkpt lat="46.75012" lon="5.53892">
        <ele>303.43</ele>
        <time>2022-07-17T08:38:01Z</time>
      </trkpt>
      <trkpt lat="46.75011" lon="5.5389">
        <ele>303.91</ele>
        <time>2022-07-17T08:38:02Z</time>
      </trkpt>
      <trkpt lat="46.75009" lon="5.53889">
        <ele>303.43</ele>
        <time>2022-07-17T08:38:03Z</time>
      </trkpt>
      <trkpt lat="46.75007" lon="5.53888">
        <ele>303.91</ele>
        <time>2022-07-17T08:38:04Z</time>
      </trkpt>
      <trkpt lat="46.74981" lon="5.53865">
        <ele>303.43</ele>
        <time>2022-07-17T08:38:19Z</time>
      </trkpt>
      <trkpt lat="46.74985" lon="5.53819">
        <ele>301.03</ele>
        <time>2022-07-17T08:38:31Z</time>
      </trkpt>
      <trkpt lat="46.74998" lon="5.53752">
        <ele>298.63</ele>
        <time>2022-07-17T08:38:48Z</time>
      </trkpt>
      <trkpt lat="46.74998" lon="5.53735">
        <ele>298.15</ele>
        <time>2022-07-17T08:39:07Z</time>
      </trkpt>
      <trkpt lat="46.75006" lon="5.53659">
        <ele>297.18</ele>
        <time>2022-07-17T08:39:24Z</time>
      </trkpt>
      <trkpt lat="46.75012" lon="5.53611">
        <ele>296.22</ele>
        <time>2022-07-17T08:39:38Z</time>
      </trkpt>
      <trkpt lat="46.75002" lon="5.53566">
        <ele>296.22</ele>
        <time>2022-07-17T08:39:51Z</time>
      </trkpt>
      <trkpt lat="46.74986" lon="5.53521">
        <ele>299.11</ele>
        <time>2022-07-17T08:40:05Z</time>
      </trkpt>
      <trkpt lat="46.74962" lon="5.53494">
        <ele>301.03</ele>
        <time>2022-07-17T08:40:18Z</time>
      </trkpt>
      <trkpt lat="46.74917" lon="5.53475">
        <ele>302.47</ele>
        <time>2022-07-17T08:40:32Z</time>
      </trkpt>
      <trkpt lat="46.74862" lon="5.53456">
        <ele>303.43</ele>
        <time>2022-07-17T08:40:47Z</time>
      </trkpt>
      <trkpt lat="46.7485" lon="5.53451">
        <ele>303.43</ele>
        <time>2022-07-17T08:40:50Z</time>
      </trkpt>
      <trkpt lat="46.74846" lon="5.5345">
        <ele>303.43</ele>
        <time>2022-07-17T08:40:51Z</time>
      </trkpt>
      <trkpt lat="46.74842" lon="5.53448">
        <ele>303.91</ele>
        <time>2022-07-17T08:40:52Z</time>
      </trkpt>
      <trkpt lat="46.74772" lon="5.53422">
        <ele>300.55</ele>
        <time>2022-07-17T08:41:06Z</time>
      </trkpt>
      <trkpt lat="46.74744" lon="5.53416">
        <ele>299.11</ele>
        <time>2022-07-17T08:41:10Z</time>
      </trkpt>
      <trkpt lat="46.74737" lon="5.53413">
        <ele>299.11</ele>
        <time>2022-07-17T08:41:11Z</time>
      </trkpt>
      <trkpt lat="46.7473" lon="5.53409">
        <ele>299.11</ele>
        <time>2022-07-17T08:41:12Z</time>
      </trkpt>
      <trkpt lat="46.74723" lon="5.53404">
        <ele>298.15</ele>
        <time>2022-07-17T08:41:13Z</time>
      </trkpt>
      <trkpt lat="46.74716" lon="5.53398">
        <ele>298.15</ele>
        <time>2022-07-17T08:41:14Z</time>
      </trkpt>
      <trkpt lat="46.7471" lon="5.5339">
        <ele>297.67</ele>
        <time>2022-07-17T08:41:15Z</time>
      </trkpt>
      <trkpt lat="46.74678" lon="5.53351">
        <ele>295.74</ele>
        <time>2022-07-17T08:41:20Z</time>
      </trkpt>
      <trkpt lat="46.7467" lon="5.53346">
        <ele>295.26</ele>
        <time>2022-07-17T08:41:21Z</time>
      </trkpt>
      <trkpt lat="46.74645" lon="5.53332">
        <ele>293.82</ele>
        <time>2022-07-17T08:41:24Z</time>
      </trkpt>
      <trkpt lat="46.74637" lon="5.53325">
        <ele>293.82</ele>
        <time>2022-07-17T08:41:25Z</time>
      </trkpt>
      <trkpt lat="46.74614" lon="5.53306">
        <ele>292.38</ele>
        <time>2022-07-17T08:41:28Z</time>
      </trkpt>
      <trkpt lat="46.74605" lon="5.53301">
        <ele>290.94</ele>
        <time>2022-07-17T08:41:29Z</time>
      </trkpt>
      <trkpt lat="46.74596" lon="5.53297">
        <ele>290.94</ele>
        <time>2022-07-17T08:41:30Z</time>
      </trkpt>
      <trkpt lat="46.74587" lon="5.53294">
        <ele>290.46</ele>
        <time>2022-07-17T08:41:31Z</time>
      </trkpt>
      <trkpt lat="46.74509" lon="5.53268">
        <ele>287.09</ele>
        <time>2022-07-17T08:41:39Z</time>
      </trkpt>
      <trkpt lat="46.7445" lon="5.53251">
        <ele>283.73</ele>
        <time>2022-07-17T08:41:45Z</time>
      </trkpt>
      <trkpt lat="46.7444" lon="5.5325">
        <ele>283.73</ele>
        <time>2022-07-17T08:41:46Z</time>
      </trkpt>
      <trkpt lat="46.7436" lon="5.5323">
        <ele>280.36</ele>
        <time>2022-07-17T08:41:54Z</time>
      </trkpt>
      <trkpt lat="46.74289" lon="5.53216">
        <ele>276.52</ele>
        <time>2022-07-17T08:42:01Z</time>
      </trkpt>
      <trkpt lat="46.74222" lon="5.53193">
        <ele>273.15</ele>
        <time>2022-07-17T08:42:08Z</time>
      </trkpt>
      <trkpt lat="46.74131" lon="5.53162">
        <ele>270.27</ele>
        <time>2022-07-17T08:42:18Z</time>
      </trkpt>
      <trkpt lat="46.74022" lon="5.53091">
        <ele>267.86</ele>
        <time>2022-07-17T08:42:33Z</time>
      </trkpt>
      <trkpt lat="46.73962" lon="5.53054">
        <ele>265.94</ele>
        <time>2022-07-17T08:42:42Z</time>
      </trkpt>
      <trkpt lat="46.73947" lon="5.53048">
        <ele>265.46</ele>
        <time>2022-07-17T08:42:44Z</time>
      </trkpt>
      <trkpt lat="46.73939" lon="5.53046">
        <ele>265.46</ele>
        <time>2022-07-17T08:42:45Z</time>
      </trkpt>
      <trkpt lat="46.73931" lon="5.53045">
        <ele>264.98</ele>
        <time>2022-07-17T08:42:46Z</time>
      </trkpt>
      <trkpt lat="46.73924" lon="5.53046">
        <ele>264.98</ele>
        <time>2022-07-17T08:42:47Z</time>
      </trkpt>
      <trkpt lat="46.73916" lon="5.53047">
        <ele>264.98</ele>
        <time>2022-07-17T08:42:48Z</time>
      </trkpt>
      <trkpt lat="46.73888" lon="5.53057">
        <ele>264.5</ele>
        <time>2022-07-17T08:42:52Z</time>
      </trkpt>
      <trkpt lat="46.73881" lon="5.53058">
        <ele>264.5</ele>
        <time>2022-07-17T08:42:53Z</time>
      </trkpt>
      <trkpt lat="46.73874" lon="5.53059">
        <ele>264.5</ele>
        <time>2022-07-17T08:42:54Z</time>
      </trkpt>
      <trkpt lat="46.73867" lon="5.53058">
        <ele>264.02</ele>
        <time>2022-07-17T08:42:55Z</time>
      </trkpt>
      <trkpt lat="46.73861" lon="5.53057">
        <ele>264.02</ele>
        <time>2022-07-17T08:42:56Z</time>
      </trkpt>
      <trkpt lat="46.73848" lon="5.53052">
        <ele>263.54</ele>
        <time>2022-07-17T08:42:58Z</time>
      </trkpt>
      <trkpt lat="46.73843" lon="5.53049">
        <ele>264.02</ele>
        <time>2022-07-17T08:42:59Z</time>
      </trkpt>
      <trkpt lat="46.73759" lon="5.5299">
        <ele>263.06</ele>
        <time>2022-07-17T08:43:16Z</time>
      </trkpt>
      <trkpt lat="46.73707" lon="5.52941">
        <ele>263.54</ele>
        <time>2022-07-17T08:43:32Z</time>
      </trkpt>
      <trkpt lat="46.73656" lon="5.52884">
        <ele>264.02</ele>
        <time>2022-07-17T08:43:48Z</time>
      </trkpt>
      <trkpt lat="46.73609" lon="5.52838">
        <ele>263.06</ele>
        <time>2022-07-17T08:43:59Z</time>
      </trkpt>
      <trkpt lat="46.73604" lon="5.52836">
        <ele>263.06</ele>
        <time>2022-07-17T08:44:00Z</time>
      </trkpt>
      <trkpt lat="46.73599" lon="5.52835">
        <ele>263.06</ele>
        <time>2022-07-17T08:44:01Z</time>
      </trkpt>
      <trkpt lat="46.73595" lon="5.52835">
        <ele>263.06</ele>
        <time>2022-07-17T08:44:02Z</time>
      </trkpt>
      <trkpt lat="46.7359" lon="5.52837">
        <ele>263.54</ele>
        <time>2022-07-17T08:44:03Z</time>
      </trkpt>
      <trkpt lat="46.73586" lon="5.52839">
        <ele>263.54</ele>
        <time>2022-07-17T08:44:04Z</time>
      </trkpt>
      <trkpt lat="46.73532" lon="5.52871">
        <ele>264.02</ele>
        <time>2022-07-17T08:44:18Z</time>
      </trkpt>
      <trkpt lat="46.73501" lon="5.52845">
        <ele>263.54</ele>
        <time>2022-07-17T08:44:31Z</time>
      </trkpt>
      <trkpt lat="46.73464" lon="5.52802">
        <ele>264.02</ele>
        <time>2022-07-17T08:44:46Z</time>
      </trkpt>
      <trkpt lat="46.73431" lon="5.52765">
        <ele>264.98</ele>
        <time>2022-07-17T08:45:00Z</time>
      </trkpt>
      <trkpt lat="46.73395" lon="5.52736">
        <ele>265.46</ele>
        <time>2022-07-17T08:45:11Z</time>
      </trkpt>
      <trkpt lat="46.73369" lon="5.52719">
        <ele>265.94</ele>
        <time>2022-07-17T08:45:23Z</time>
      </trkpt>
      <trkpt lat="46.73363" lon="5.52709">
        <ele>265.94</ele>
        <time>2022-07-17T08:45:37Z</time>
      </trkpt>
      <trkpt lat="46.73361" lon="5.52706">
        <ele>265.46</ele>
        <time>2022-07-17T08:45:41Z</time>
      </trkpt>
      <trkpt lat="46.73359" lon="5.52706">
        <ele>265.46</ele>
        <time>2022-07-17T08:45:42Z</time>
      </trkpt>
      <trkpt lat="46.73358" lon="5.52706">
        <ele>265.46</ele>
        <time>2022-07-17T08:45:43Z</time>
      </trkpt>
      <trkpt lat="46.73357" lon="5.52706">
        <ele>265.94</ele>
        <time>2022-07-17T08:45:44Z</time>
      </trkpt>
      <trkpt lat="46.73355" lon="5.52708">
        <ele>265.94</ele>
        <time>2022-07-17T08:45:57Z</time>
      </trkpt>
      <trkpt lat="46.73356" lon="5.52702">
        <ele>265.94</ele>
        <time>2022-07-17T08:46:03Z</time>
      </trkpt>
      <trkpt lat="46.73356" lon="5.527">
        <ele>266.42</ele>
        <time>2022-07-17T08:46:04Z</time>
      </trkpt>
      <trkpt lat="46.73354" lon="5.52698">
        <ele>266.42</ele>
        <time>2022-07-17T08:46:05Z</time>
      </trkpt>
      <trkpt lat="46.73352" lon="5.52697">
        <ele>266.9</ele>
        <time>2022-07-17T08:46:06Z</time>
      </trkpt>
      <trkpt lat="46.7335" lon="5.52697">
        <ele>266.42</ele>
        <time>2022-07-17T08:46:07Z</time>
      </trkpt>
      <trkpt lat="46.73349" lon="5.52696">
        <ele>267.38</ele>
        <time>2022-07-17T08:46:08Z</time>
      </trkpt>
      <trkpt lat="46.73346" lon="5.52694">
        <ele>266.9</ele>
        <time>2022-07-17T08:46:18Z</time>
      </trkpt>
      <trkpt lat="46.73342" lon="5.52668">
        <ele>266.9</ele>
        <time>2022-07-17T08:46:32Z</time>
      </trkpt>
      <trkpt lat="46.7334" lon="5.52662">
        <ele>267.38</ele>
        <time>2022-07-17T08:46:45Z</time>
      </trkpt>
      <trkpt lat="46.73342" lon="5.52665">
        <ele>267.38</ele>
        <time>2022-07-17T08:47:19Z</time>
      </trkpt>
      <trkpt lat="46.73336" lon="5.52662">
        <ele>267.38</ele>
        <time>2022-07-17T08:47:57Z</time>
      </trkpt>
      <trkpt lat="46.73336" lon="5.52652">
        <ele>266.9</ele>
        <time>2022-07-17T08:48:05Z</time>
      </trkpt>
      <trkpt lat="46.7334" lon="5.52673">
        <ele>267.38</ele>
        <time>2022-07-17T08:48:15Z</time>
      </trkpt>
      <trkpt lat="46.73344" lon="5.52685">
        <ele>266.42</ele>
        <time>2022-07-17T08:48:18Z</time>
      </trkpt>
      <trkpt lat="46.73347" lon="5.52688">
        <ele>266.9</ele>
        <time>2022-07-17T08:48:19Z</time>
      </trkpt>
      <trkpt lat="46.73349" lon="5.5269">
        <ele>265.94</ele>
        <time>2022-07-17T08:48:20Z</time>
      </trkpt>
      <trkpt lat="46.73352" lon="5.52692">
        <ele>265.46</ele>
        <time>2022-07-17T08:48:21Z</time>
      </trkpt>
      <trkpt lat="46.73354" lon="5.52692">
        <ele>265.94</ele>
        <time>2022-07-17T08:48:22Z</time>
      </trkpt>
      <trkpt lat="46.73357" lon="5.52692">
        <ele>265.46</ele>
        <time>2022-07-17T08:48:23Z</time>
      </trkpt>
      <trkpt lat="46.73359" lon="5.52692">
        <ele>265.46</ele>
        <time>2022-07-17T08:48:24Z</time>
      </trkpt>
      <trkpt lat="46.73361" lon="5.52691">
        <ele>265.46</ele>
        <time>2022-07-17T08:48:25Z</time>
      </trkpt>
      <trkpt lat="46.73363" lon="5.5269">
        <ele>264.98</ele>
        <time>2022-07-17T08:48:26Z</time>
      </trkpt>
      <trkpt lat="46.73365" lon="5.52688">
        <ele>264.98</ele>
        <time>2022-07-17T08:48:27Z</time>
      </trkpt>
      <trkpt lat="46.73367" lon="5.52685">
        <ele>264.98</ele>
        <time>2022-07-17T08:48:28Z</time>
      </trkpt>
      <trkpt lat="46.73369" lon="5.52681">
        <ele>264.5</ele>
        <time>2022-07-17T08:48:29Z</time>
      </trkpt>
      <trkpt lat="46.73371" lon="5.52676">
        <ele>264.98</ele>
        <time>2022-07-17T08:48:30Z</time>
      </trkpt>
      <trkpt lat="46.73393" lon="5.52633">
        <ele>261.62</ele>
        <time>2022-07-17T08:48:40Z</time>
      </trkpt>
      <trkpt lat="46.73402" lon="5.5262">
        <ele>260.65</ele>
        <time>2022-07-17T08:48:52Z</time>
      </trkpt>
      <trkpt lat="46.73402" lon="5.52619">
        <ele>260.65</ele>
        <time>2022-07-17T08:49:00Z</time>
      </trkpt>
      <trkpt lat="46.73403" lon="5.52618">
        <ele>261.14</ele>
        <time>2022-07-17T08:49:01Z</time>
      </trkpt>
      <trkpt lat="46.73405" lon="5.52618">
        <ele>260.17</ele>
        <time>2022-07-17T08:49:02Z</time>
      </trkpt>
      <trkpt lat="46.73414" lon="5.52593">
        <ele>258.73</ele>
        <time>2022-07-17T08:49:12Z</time>
      </trkpt>
      <trkpt lat="46.73443" lon="5.52531">
        <ele>256.81</ele>
        <time>2022-07-17T08:49:27Z</time>
      </trkpt>
      <trkpt lat="46.73464" lon="5.52497">
        <ele>255.85</ele>
        <time>2022-07-17T08:49:40Z</time>
      </trkpt>
      <trkpt lat="46.73462" lon="5.52451">
        <ele>255.37</ele>
        <time>2022-07-17T08:49:56Z</time>
      </trkpt>
      <trkpt lat="46.73454" lon="5.52407">
        <ele>256.81</ele>
        <time>2022-07-17T08:50:08Z</time>
      </trkpt>
      <trkpt lat="46.73443" lon="5.5238">
        <ele>257.29</ele>
        <time>2022-07-17T08:50:16Z</time>
      </trkpt>
      <trkpt lat="46.73442" lon="5.52378">
        <ele>256.81</ele>
        <time>2022-07-17T08:50:17Z</time>
      </trkpt>
      <trkpt lat="46.73441" lon="5.52377">
        <ele>257.29</ele>
        <time>2022-07-17T08:50:18Z</time>
      </trkpt>
      <trkpt lat="46.7344" lon="5.52377">
        <ele>257.29</ele>
        <time>2022-07-17T08:50:19Z</time>
      </trkpt>
      <trkpt lat="46.7344" lon="5.5238">
        <ele>256.81</ele>
        <time>2022-07-17T08:50:20Z</time>
      </trkpt>
      <trkpt lat="46.7344" lon="5.52381">
        <ele>256.81</ele>
        <time>2022-07-17T08:50:21Z</time>
      </trkpt>
      <trkpt lat="46.73442" lon="5.52382">
        <ele>256.81</ele>
        <time>2022-07-17T08:50:22Z</time>
      </trkpt>
      <trkpt lat="46.73443" lon="5.52382">
        <ele>256.81</ele>
        <time>2022-07-17T08:50:23Z</time>
      </trkpt>
      <trkpt lat="46.73444" lon="5.52384">
        <ele>257.29</ele>
        <time>2022-07-17T08:50:24Z</time>
      </trkpt>
      <trkpt lat="46.73445" lon="5.52385">
        <ele>257.29</ele>
        <time>2022-07-17T08:50:25Z</time>
      </trkpt>
      <trkpt lat="46.73445" lon="5.52387">
        <ele>257.29</ele>
        <time>2022-07-17T08:50:26Z</time>
      </trkpt>
      <trkpt lat="46.73446" lon="5.52388">
        <ele>257.29</ele>
        <time>2022-07-17T08:50:27Z</time>
      </trkpt>
      <trkpt lat="46.73447" lon="5.5239">
        <ele>257.77</ele>
        <time>2022-07-17T08:50:28Z</time>
      </trkpt>
      <trkpt lat="46.73447" lon="5.52391">
        <ele>257.77</ele>
        <time>2022-07-17T08:50:29Z</time>
      </trkpt>
      <trkpt lat="46.73448" lon="5.52393">
        <ele>257.29</ele>
        <time>2022-07-17T08:50:30Z</time>
      </trkpt>
      <trkpt lat="46.73448" lon="5.52394">
        <ele>256.81</ele>
        <time>2022-07-17T08:50:31Z</time>
      </trkpt>
      <trkpt lat="46.73444" lon="5.52393">
        <ele>256.33</ele>
        <time>2022-07-17T08:50:34Z</time>
      </trkpt>
      <trkpt lat="46.73443" lon="5.52391">
        <ele>256.33</ele>
        <time>2022-07-17T08:50:35Z</time>
      </trkpt>
      <trkpt lat="46.73443" lon="5.52387">
        <ele>256.81</ele>
        <time>2022-07-17T08:50:36Z</time>
      </trkpt>
      <trkpt lat="46.73442" lon="5.52383">
        <ele>256.81</ele>
        <time>2022-07-17T08:50:37Z</time>
      </trkpt>
      <trkpt lat="46.73441" lon="5.52379">
        <ele>256.81</ele>
        <time>2022-07-17T08:50:38Z</time>
      </trkpt>
      <trkpt lat="46.73411" lon="5.52317">
        <ele>256.81</ele>
        <time>2022-07-17T08:50:53Z</time>
      </trkpt>
      <trkpt lat="46.73371" lon="5.52248">
        <ele>256.33</ele>
        <time>2022-07-17T08:51:08Z</time>
      </trkpt>
      <trkpt lat="46.73367" lon="5.52243">
        <ele>255.85</ele>
        <time>2022-07-17T08:51:09Z</time>
      </trkpt>
      <trkpt lat="46.73341" lon="5.52213">
        <ele>256.33</ele>
        <time>2022-07-17T08:51:21Z</time>
      </trkpt>
      <trkpt lat="46.7334" lon="5.5221">
        <ele>256.81</ele>
        <time>2022-07-17T08:51:34Z</time>
      </trkpt>
      <trkpt lat="46.73339" lon="5.52209">
        <ele>256.81</ele>
        <time>2022-07-17T08:51:35Z</time>
      </trkpt>
      <trkpt lat="46.73338" lon="5.52207">
        <ele>257.29</ele>
        <time>2022-07-17T08:51:36Z</time>
      </trkpt>
      <trkpt lat="46.73332" lon="5.52168">
        <ele>256.81</ele>
        <time>2022-07-17T08:51:49Z</time>
      </trkpt>
      <trkpt lat="46.73335" lon="5.52117">
        <ele>256.81</ele>
        <time>2022-07-17T08:52:00Z</time>
      </trkpt>
      <trkpt lat="46.73334" lon="5.52077">
        <ele>255.85</ele>
        <time>2022-07-17T08:52:06Z</time>
      </trkpt>
      <trkpt lat="46.73335" lon="5.52071">
        <ele>255.37</ele>
        <time>2022-07-17T08:52:07Z</time>
      </trkpt>
      <trkpt lat="46.73337" lon="5.52065">
        <ele>255.85</ele>
        <time>2022-07-17T08:52:08Z</time>
      </trkpt>
      <trkpt lat="46.73339" lon="5.52059">
        <ele>255.37</ele>
        <time>2022-07-17T08:52:09Z</time>
      </trkpt>
      <trkpt lat="46.73374" lon="5.52009">
        <ele>256.33</ele>
        <time>2022-07-17T08:52:23Z</time>
      </trkpt>
      <trkpt lat="46.7341" lon="5.51943">
        <ele>258.25</ele>
        <time>2022-07-17T08:52:39Z</time>
      </trkpt>
      <trkpt lat="46.73439" lon="5.51872">
        <ele>259.69</ele>
        <time>2022-07-17T08:52:57Z</time>
      </trkpt>
      <trkpt lat="46.73448" lon="5.51851">
        <ele>261.14</ele>
        <time>2022-07-17T08:53:10Z</time>
      </trkpt>
      <trkpt lat="46.73455" lon="5.51847">
        <ele>262.1</ele>
        <time>2022-07-17T08:53:34Z</time>
      </trkpt>
      <trkpt lat="46.73456" lon="5.51843">
        <ele>261.14</ele>
        <time>2022-07-17T08:53:57Z</time>
      </trkpt>
      <trkpt lat="46.73453" lon="5.51842">
        <ele>261.14</ele>
        <time>2022-07-17T08:54:08Z</time>
      </trkpt>
      <trkpt lat="46.73452" lon="5.51843">
        <ele>261.14</ele>
        <time>2022-07-17T08:54:09Z</time>
      </trkpt>
      <trkpt lat="46.73452" lon="5.51842">
        <ele>261.62</ele>
        <time>2022-07-17T08:54:10Z</time>
      </trkpt>
      <trkpt lat="46.73452" lon="5.5184">
        <ele>261.14</ele>
        <time>2022-07-17T08:54:11Z</time>
      </trkpt>
      <trkpt lat="46.73453" lon="5.51838">
        <ele>261.62</ele>
        <time>2022-07-17T08:54:12Z</time>
      </trkpt>
      <trkpt lat="46.73455" lon="5.51837">
        <ele>262.58</ele>
        <time>2022-07-17T08:54:13Z</time>
      </trkpt>
      <trkpt lat="46.73457" lon="5.51835">
        <ele>262.1</ele>
        <time>2022-07-17T08:54:14Z</time>
      </trkpt>
      <trkpt lat="46.73458" lon="5.51832">
        <ele>262.58</ele>
        <time>2022-07-17T08:54:15Z</time>
      </trkpt>
      <trkpt lat="46.73458" lon="5.5183">
        <ele>262.58</ele>
        <time>2022-07-17T08:54:16Z</time>
      </trkpt>
      <trkpt lat="46.73458" lon="5.51827">
        <ele>263.06</ele>
        <time>2022-07-17T08:54:17Z</time>
      </trkpt>
      <trkpt lat="46.73458" lon="5.51825">
        <ele>263.06</ele>
        <time>2022-07-17T08:54:18Z</time>
      </trkpt>
      <trkpt lat="46.73458" lon="5.51823">
        <ele>263.54</ele>
        <time>2022-07-17T08:54:19Z</time>
      </trkpt>
      <trkpt lat="46.73458" lon="5.5182">
        <ele>263.54</ele>
        <time>2022-07-17T08:54:20Z</time>
      </trkpt>
      <trkpt lat="46.73458" lon="5.51818">
        <ele>263.54</ele>
        <time>2022-07-17T08:54:21Z</time>
      </trkpt>
      <trkpt lat="46.73459" lon="5.51815">
        <ele>264.02</ele>
        <time>2022-07-17T08:54:22Z</time>
      </trkpt>
      <trkpt lat="46.73459" lon="5.51812">
        <ele>264.5</ele>
        <time>2022-07-17T08:54:23Z</time>
      </trkpt>
      <trkpt lat="46.73459" lon="5.51809">
        <ele>264.5</ele>
        <time>2022-07-17T08:54:24Z</time>
      </trkpt>
      <trkpt lat="46.73459" lon="5.51807">
        <ele>264.98</ele>
        <time>2022-07-17T08:54:25Z</time>
      </trkpt>
      <trkpt lat="46.73459" lon="5.51804">
        <ele>264.98</ele>
        <time>2022-07-17T08:54:26Z</time>
      </trkpt>
      <trkpt lat="46.73459" lon="5.51801">
        <ele>264.98</ele>
        <time>2022-07-17T08:54:27Z</time>
      </trkpt>
      <trkpt lat="46.73455" lon="5.51747">
        <ele>267.86</ele>
        <time>2022-07-17T08:54:46Z</time>
      </trkpt>
      <trkpt lat="46.73454" lon="5.51734">
        <ele>268.83</ele>
        <time>2022-07-17T08:54:50Z</time>
      </trkpt>
      <trkpt lat="46.73458" lon="5.51666">
        <ele>269.31</ele>
        <time>2022-07-17T08:55:06Z</time>
      </trkpt>
      <trkpt lat="46.73456" lon="5.51586">
        <ele>267.86</ele>
        <time>2022-07-17T08:55:20Z</time>
      </trkpt>
      <trkpt lat="46.73455" lon="5.5158">
        <ele>267.38</ele>
        <time>2022-07-17T08:55:21Z</time>
      </trkpt>
      <trkpt lat="46.7345" lon="5.51553">
        <ele>267.38</ele>
        <time>2022-07-17T08:55:25Z</time>
      </trkpt>
      <trkpt lat="46.7343" lon="5.51484">
        <ele>264.02</ele>
        <time>2022-07-17T08:55:33Z</time>
      </trkpt>
      <trkpt lat="46.73428" lon="5.51473">
        <ele>264.02</ele>
        <time>2022-07-17T08:55:34Z</time>
      </trkpt>
      <trkpt lat="46.73427" lon="5.51462">
        <ele>263.06</ele>
        <time>2022-07-17T08:55:35Z</time>
      </trkpt>
      <trkpt lat="46.73427" lon="5.5145">
        <ele>263.54</ele>
        <time>2022-07-17T08:55:36Z</time>
      </trkpt>
      <trkpt lat="46.73427" lon="5.51439">
        <ele>263.06</ele>
        <time>2022-07-17T08:55:37Z</time>
      </trkpt>
      <trkpt lat="46.73428" lon="5.51427">
        <ele>263.06</ele>
        <time>2022-07-17T08:55:38Z</time>
      </trkpt>
      <trkpt lat="46.7343" lon="5.51417">
        <ele>262.58</ele>
        <time>2022-07-17T08:55:39Z</time>
      </trkpt>
      <trkpt lat="46.73432" lon="5.51407">
        <ele>262.58</ele>
        <time>2022-07-17T08:55:40Z</time>
      </trkpt>
      <trkpt lat="46.73435" lon="5.51398">
        <ele>262.58</ele>
        <time>2022-07-17T08:55:41Z</time>
      </trkpt>
      <trkpt lat="46.73437" lon="5.5139">
        <ele>262.58</ele>
        <time>2022-07-17T08:55:42Z</time>
      </trkpt>
      <trkpt lat="46.7347" lon="5.51273">
        <ele>264.02</ele>
        <time>2022-07-17T08:55:59Z</time>
      </trkpt>
      <trkpt lat="46.73491" lon="5.5121">
        <ele>264.02</ele>
        <time>2022-07-17T08:56:13Z</time>
      </trkpt>
      <trkpt lat="46.73517" lon="5.51126">
        <ele>260.65</ele>
        <time>2022-07-17T08:56:26Z</time>
      </trkpt>
      <trkpt lat="46.73521" lon="5.51117">
        <ele>260.17</ele>
        <time>2022-07-17T08:56:27Z</time>
      </trkpt>
      <trkpt lat="46.73527" lon="5.51107">
        <ele>258.25</ele>
        <time>2022-07-17T08:56:28Z</time>
      </trkpt>
      <trkpt lat="46.73533" lon="5.51098">
        <ele>257.77</ele>
        <time>2022-07-17T08:56:29Z</time>
      </trkpt>
      <trkpt lat="46.7354" lon="5.51089">
        <ele>256.33</ele>
        <time>2022-07-17T08:56:30Z</time>
      </trkpt>
      <trkpt lat="46.73548" lon="5.51081">
        <ele>255.85</ele>
        <time>2022-07-17T08:56:31Z</time>
      </trkpt>
      <trkpt lat="46.7357" lon="5.51054">
        <ele>253.44</ele>
        <time>2022-07-17T08:56:34Z</time>
      </trkpt>
      <trkpt lat="46.73576" lon="5.51043">
        <ele>252.96</ele>
        <time>2022-07-17T08:56:35Z</time>
      </trkpt>
      <trkpt lat="46.7358" lon="5.51031">
        <ele>252.48</ele>
        <time>2022-07-17T08:56:36Z</time>
      </trkpt>
      <trkpt lat="46.73583" lon="5.51019">
        <ele>252.96</ele>
        <time>2022-07-17T08:56:37Z</time>
      </trkpt>
      <trkpt lat="46.73585" lon="5.51007">
        <ele>252.48</ele>
        <time>2022-07-17T08:56:38Z</time>
      </trkpt>
      <trkpt lat="46.73587" lon="5.50995">
        <ele>252.96</ele>
        <time>2022-07-17T08:56:39Z</time>
      </trkpt>
      <trkpt lat="46.73602" lon="5.50913">
        <ele>251.52</ele>
        <time>2022-07-17T08:56:47Z</time>
      </trkpt>
      <trkpt lat="46.73605" lon="5.50904">
        <ele>252</ele>
        <time>2022-07-17T08:56:48Z</time>
      </trkpt>
      <trkpt lat="46.73609" lon="5.50896">
        <ele>251.52</ele>
        <time>2022-07-17T08:56:49Z</time>
      </trkpt>
      <trkpt lat="46.73613" lon="5.5089">
        <ele>251.04</ele>
        <time>2022-07-17T08:56:50Z</time>
      </trkpt>
      <trkpt lat="46.73619" lon="5.50884">
        <ele>251.04</ele>
        <time>2022-07-17T08:56:51Z</time>
      </trkpt>
      <trkpt lat="46.73625" lon="5.5088">
        <ele>250.08</ele>
        <time>2022-07-17T08:56:52Z</time>
      </trkpt>
      <trkpt lat="46.73632" lon="5.50877">
        <ele>250.08</ele>
        <time>2022-07-17T08:56:53Z</time>
      </trkpt>
      <trkpt lat="46.73638" lon="5.50873">
        <ele>249.6</ele>
        <time>2022-07-17T08:56:54Z</time>
      </trkpt>
      <trkpt lat="46.73666" lon="5.50857">
        <ele>248.64</ele>
        <time>2022-07-17T08:56:58Z</time>
      </trkpt>
      <trkpt lat="46.73672" lon="5.50851">
        <ele>248.16</ele>
        <time>2022-07-17T08:56:59Z</time>
      </trkpt>
      <trkpt lat="46.73678" lon="5.50844">
        <ele>247.68</ele>
        <time>2022-07-17T08:57:00Z</time>
      </trkpt>
      <trkpt lat="46.73682" lon="5.50837">
        <ele>247.68</ele>
        <time>2022-07-17T08:57:01Z</time>
      </trkpt>
      <trkpt lat="46.73687" lon="5.50828">
        <ele>247.68</ele>
        <time>2022-07-17T08:57:02Z</time>
      </trkpt>
      <trkpt lat="46.7374" lon="5.50728">
        <ele>246.23</ele>
        <time>2022-07-17T08:57:17Z</time>
      </trkpt>
      <trkpt lat="46.7377" lon="5.5067">
        <ele>243.35</ele>
        <time>2022-07-17T08:57:26Z</time>
      </trkpt>
      <trkpt lat="46.73784" lon="5.5062">
        <ele>240.95</ele>
        <time>2022-07-17T08:57:31Z</time>
      </trkpt>
      <trkpt lat="46.73807" lon="5.50553">
        <ele>237.58</ele>
        <time>2022-07-17T08:57:37Z</time>
      </trkpt>
      <trkpt lat="46.73811" lon="5.50541">
        <ele>237.58</ele>
        <time>2022-07-17T08:57:38Z</time>
      </trkpt>
      <trkpt lat="46.73842" lon="5.50461">
        <ele>234.22</ele>
        <time>2022-07-17T08:57:45Z</time>
      </trkpt>
      <trkpt lat="46.73847" lon="5.5045">
        <ele>233.74</ele>
        <time>2022-07-17T08:57:46Z</time>
      </trkpt>
      <trkpt lat="46.73855" lon="5.50427">
        <ele>232.78</ele>
        <time>2022-07-17T08:57:48Z</time>
      </trkpt>
      <trkpt lat="46.73912" lon="5.50284">
        <ele>231.33</ele>
        <time>2022-07-17T08:58:03Z</time>
      </trkpt>
      <trkpt lat="46.73964" lon="5.50183">
        <ele>228.93</ele>
        <time>2022-07-17T08:58:19Z</time>
      </trkpt>
      <trkpt lat="46.74024" lon="5.5007">
        <ele>228.93</ele>
        <time>2022-07-17T08:58:39Z</time>
      </trkpt>
      <trkpt lat="46.74054" lon="5.50012">
        <ele>228.45</ele>
        <time>2022-07-17T08:58:52Z</time>
      </trkpt>
      <trkpt lat="46.74059" lon="5.49981">
        <ele>228.45</ele>
        <time>2022-07-17T08:58:57Z</time>
      </trkpt>
      <trkpt lat="46.74059" lon="5.49974">
        <ele>228.45</ele>
        <time>2022-07-17T08:58:58Z</time>
      </trkpt>
      <trkpt lat="46.7406" lon="5.49955">
        <ele>228.93</ele>
        <time>2022-07-17T08:59:01Z</time>
      </trkpt>
      <trkpt lat="46.74064" lon="5.49921">
        <ele>228.93</ele>
        <time>2022-07-17T08:59:06Z</time>
      </trkpt>
      <trkpt lat="46.74066" lon="5.49914">
        <ele>228.93</ele>
        <time>2022-07-17T08:59:07Z</time>
      </trkpt>
      <trkpt lat="46.74068" lon="5.49908">
        <ele>228.93</ele>
        <time>2022-07-17T08:59:08Z</time>
      </trkpt>
      <trkpt lat="46.74074" lon="5.49895">
        <ele>228.45</ele>
        <time>2022-07-17T08:59:10Z</time>
      </trkpt>
      <trkpt lat="46.74077" lon="5.49889">
        <ele>228.45</ele>
        <time>2022-07-17T08:59:11Z</time>
      </trkpt>
      <trkpt lat="46.74127" lon="5.49806">
        <ele>228.93</ele>
        <time>2022-07-17T08:59:26Z</time>
      </trkpt>
      <trkpt lat="46.74195" lon="5.4972">
        <ele>228.45</ele>
        <time>2022-07-17T08:59:45Z</time>
      </trkpt>
      <trkpt lat="46.74208" lon="5.49712">
        <ele>228.45</ele>
        <time>2022-07-17T08:59:48Z</time>
      </trkpt>
      <trkpt lat="46.74213" lon="5.4971">
        <ele>228.45</ele>
        <time>2022-07-17T08:59:49Z</time>
      </trkpt>
      <trkpt lat="46.74293" lon="5.49706">
        <ele>228.93</ele>
        <time>2022-07-17T09:00:06Z</time>
      </trkpt>
      <trkpt lat="46.74361" lon="5.49696">
        <ele>229.41</ele>
        <time>2022-07-17T09:00:23Z</time>
      </trkpt>
      <trkpt lat="46.74377" lon="5.49694">
        <ele>228.93</ele>
        <time>2022-07-17T09:00:28Z</time>
      </trkpt>
      <trkpt lat="46.74378" lon="5.49696">
        <ele>228.93</ele>
        <time>2022-07-17T09:00:29Z</time>
      </trkpt>
      <trkpt lat="46.74379" lon="5.49699">
        <ele>228.93</ele>
        <time>2022-07-17T09:00:30Z</time>
      </trkpt>
      <trkpt lat="46.74378" lon="5.49701">
        <ele>229.41</ele>
        <time>2022-07-17T09:00:31Z</time>
      </trkpt>
      <trkpt lat="46.74376" lon="5.49702">
        <ele>228.93</ele>
        <time>2022-07-17T09:00:32Z</time>
      </trkpt>
      <trkpt lat="46.74375" lon="5.49702">
        <ele>229.41</ele>
        <time>2022-07-17T09:00:33Z</time>
      </trkpt>
      <trkpt lat="46.74372" lon="5.49702">
        <ele>228.93</ele>
        <time>2022-07-17T09:00:47Z</time>
      </trkpt>
      <trkpt lat="46.74374" lon="5.49698">
        <ele>229.89</ele>
        <time>2022-07-17T09:00:59Z</time>
      </trkpt>
      <trkpt lat="46.74375" lon="5.49697">
        <ele>229.41</ele>
        <time>2022-07-17T09:01:00Z</time>
      </trkpt>
      <trkpt lat="46.744" lon="5.49686">
        <ele>228.93</ele>
        <time>2022-07-17T09:01:12Z</time>
      </trkpt>
      <trkpt lat="46.74451" lon="5.49635">
        <ele>228.93</ele>
        <time>2022-07-17T09:01:28Z</time>
      </trkpt>
      <trkpt lat="46.74476" lon="5.49556">
        <ele>228.45</ele>
        <time>2022-07-17T09:01:44Z</time>
      </trkpt>
      <trkpt lat="46.7449" lon="5.49497">
        <ele>227.97</ele>
        <time>2022-07-17T09:01:58Z</time>
      </trkpt>
      <trkpt lat="46.74491" lon="5.49467">
        <ele>227.49</ele>
        <time>2022-07-17T09:02:05Z</time>
      </trkpt>
      <trkpt lat="46.74488" lon="5.49463">
        <ele>227.49</ele>
        <time>2022-07-17T09:02:06Z</time>
      </trkpt>
      <trkpt lat="46.74466" lon="5.49422">
        <ele>227.01</ele>
        <time>2022-07-17T09:02:14Z</time>
      </trkpt>
      <trkpt lat="46.74461" lon="5.4941">
        <ele>227.01</ele>
        <time>2022-07-17T09:02:16Z</time>
      </trkpt>
      <trkpt lat="46.7446" lon="5.49403">
        <ele>227.01</ele>
        <time>2022-07-17T09:02:17Z</time>
      </trkpt>
      <trkpt lat="46.74459" lon="5.49396">
        <ele>227.01</ele>
        <time>2022-07-17T09:02:18Z</time>
      </trkpt>
      <trkpt lat="46.74458" lon="5.49389">
        <ele>226.53</ele>
        <time>2022-07-17T09:02:19Z</time>
      </trkpt>
      <trkpt lat="46.74458" lon="5.49382">
        <ele>226.53</ele>
        <time>2022-07-17T09:02:20Z</time>
      </trkpt>
      <trkpt lat="46.74458" lon="5.49375">
        <ele>226.53</ele>
        <time>2022-07-17T09:02:21Z</time>
      </trkpt>
      <trkpt lat="46.74462" lon="5.49316">
        <ele>226.53</ele>
        <time>2022-07-17T09:02:30Z</time>
      </trkpt>
      <trkpt lat="46.74464" lon="5.4931">
        <ele>226.53</ele>
        <time>2022-07-17T09:02:31Z</time>
      </trkpt>
      <trkpt lat="46.74466" lon="5.49306">
        <ele>226.53</ele>
        <time>2022-07-17T09:02:32Z</time>
      </trkpt>
      <trkpt lat="46.74468" lon="5.49302">
        <ele>227.01</ele>
        <time>2022-07-17T09:02:33Z</time>
      </trkpt>
      <trkpt lat="46.74469" lon="5.49299">
        <ele>227.01</ele>
        <time>2022-07-17T09:02:34Z</time>
      </trkpt>
      <trkpt lat="46.74469" lon="5.49295">
        <ele>227.49</ele>
        <time>2022-07-17T09:02:35Z</time>
      </trkpt>
      <trkpt lat="46.74467" lon="5.49292">
        <ele>227.49</ele>
        <time>2022-07-17T09:02:36Z</time>
      </trkpt>
      <trkpt lat="46.74466" lon="5.49289">
        <ele>227.49</ele>
        <time>2022-07-17T09:02:37Z</time>
      </trkpt>
      <trkpt lat="46.74464" lon="5.49285">
        <ele>226.53</ele>
        <time>2022-07-17T09:02:38Z</time>
      </trkpt>
      <trkpt lat="46.74463" lon="5.49281">
        <ele>227.49</ele>
        <time>2022-07-17T09:02:39Z</time>
      </trkpt>
      <trkpt lat="46.74462" lon="5.49277">
        <ele>227.01</ele>
        <time>2022-07-17T09:02:40Z</time>
      </trkpt>
      <trkpt lat="46.74462" lon="5.49272">
        <ele>227.01</ele>
        <time>2022-07-17T09:02:41Z</time>
      </trkpt>
      <trkpt lat="46.74462" lon="5.49267">
        <ele>227.01</ele>
        <time>2022-07-17T09:02:42Z</time>
      </trkpt>
      <trkpt lat="46.74456" lon="5.4924">
        <ele>226.05</ele>
        <time>2022-07-17T09:02:50Z</time>
      </trkpt>
      <trkpt lat="46.74456" lon="5.49239">
        <ele>226.53</ele>
        <time>2022-07-17T09:03:15Z</time>
      </trkpt>
      <trkpt lat="46.74457" lon="5.49237">
        <ele>227.01</ele>
        <time>2022-07-17T09:03:37Z</time>
      </trkpt>
      <trkpt lat="46.74458" lon="5.49234">
        <ele>227.01</ele>
        <time>2022-07-17T09:03:39Z</time>
      </trkpt>
      <trkpt lat="46.74458" lon="5.49232">
        <ele>227.01</ele>
        <time>2022-07-17T09:03:40Z</time>
      </trkpt>
      <trkpt lat="46.74458" lon="5.49229">
        <ele>227.01</ele>
        <time>2022-07-17T09:03:41Z</time>
      </trkpt>
      <trkpt lat="46.74458" lon="5.49226">
        <ele>226.53</ele>
        <time>2022-07-17T09:03:42Z</time>
      </trkpt>
      <trkpt lat="46.74458" lon="5.49223">
        <ele>227.01</ele>
        <time>2022-07-17T09:03:43Z</time>
      </trkpt>
      <trkpt lat="46.74459" lon="5.49219">
        <ele>227.01</ele>
        <time>2022-07-17T09:03:44Z</time>
      </trkpt>
      <trkpt lat="46.7446" lon="5.49215">
        <ele>226.53</ele>
        <time>2022-07-17T09:03:45Z</time>
      </trkpt>
      <trkpt lat="46.74459" lon="5.49189">
        <ele>227.01</ele>
        <time>2022-07-17T09:03:51Z</time>
      </trkpt>
      <trkpt lat="46.74457" lon="5.49185">
        <ele>226.53</ele>
        <time>2022-07-17T09:03:52Z</time>
      </trkpt>
      <trkpt lat="46.74456" lon="5.49181">
        <ele>227.01</ele>
        <time>2022-07-17T09:03:53Z</time>
      </trkpt>
      <trkpt lat="46.74437" lon="5.49108">
        <ele>226.53</ele>
        <time>2022-07-17T09:04:07Z</time>
      </trkpt>
      <trkpt lat="46.74425" lon="5.49013">
        <ele>226.05</ele>
        <time>2022-07-17T09:04:23Z</time>
      </trkpt>
      <trkpt lat="46.74429" lon="5.48991">
        <ele>226.53</ele>
        <time>2022-07-17T09:04:27Z</time>
      </trkpt>
      <trkpt lat="46.74431" lon="5.48988">
        <ele>226.05</ele>
        <time>2022-07-17T09:04:28Z</time>
      </trkpt>
      <trkpt lat="46.74433" lon="5.48988">
        <ele>225.57</ele>
        <time>2022-07-17T09:04:29Z</time>
      </trkpt>
      <trkpt lat="46.74434" lon="5.48989">
        <ele>225.57</ele>
        <time>2022-07-17T09:04:30Z</time>
      </trkpt>
      <trkpt lat="46.74436" lon="5.48989">
        <ele>226.53</ele>
        <time>2022-07-17T09:04:31Z</time>
      </trkpt>
      <trkpt lat="46.74438" lon="5.48988">
        <ele>225.57</ele>
        <time>2022-07-17T09:04:32Z</time>
      </trkpt>
      <trkpt lat="46.74439" lon="5.48987">
        <ele>225.57</ele>
        <time>2022-07-17T09:04:33Z</time>
      </trkpt>
      <trkpt lat="46.74438" lon="5.48987">
        <ele>226.05</ele>
        <time>2022-07-17T09:04:46Z</time>
      </trkpt>
      <trkpt lat="46.74443" lon="5.48984">
        <ele>226.05</ele>
        <time>2022-07-17T09:04:58Z</time>
      </trkpt>
      <trkpt lat="46.74444" lon="5.48985">
        <ele>226.53</ele>
        <time>2022-07-17T09:04:59Z</time>
      </trkpt>
      <trkpt lat="46.74445" lon="5.48986">
        <ele>226.05</ele>
        <time>2022-07-17T09:05:00Z</time>
      </trkpt>
      <trkpt lat="46.74446" lon="5.48987">
        <ele>225.57</ele>
        <time>2022-07-17T09:05:01Z</time>
      </trkpt>
      <trkpt lat="46.74448" lon="5.48988">
        <ele>226.05</ele>
        <time>2022-07-17T09:05:02Z</time>
      </trkpt>
      <trkpt lat="46.7445" lon="5.4899">
        <ele>227.01</ele>
        <time>2022-07-17T09:05:03Z</time>
      </trkpt>
      <trkpt lat="46.74454" lon="5.48993">
        <ele>227.97</ele>
        <time>2022-07-17T09:05:05Z</time>
      </trkpt>
      <trkpt lat="46.74461" lon="5.49002">
        <ele>226.05</ele>
        <time>2022-07-17T09:05:17Z</time>
      </trkpt>
      <trkpt lat="46.74462" lon="5.48998">
        <ele>226.05</ele>
        <time>2022-07-17T09:05:28Z</time>
      </trkpt>
      <trkpt lat="46.74461" lon="5.48998">
        <ele>226.05</ele>
        <time>2022-07-17T09:05:30Z</time>
      </trkpt>
      <trkpt lat="46.74459" lon="5.48998">
        <ele>226.05</ele>
        <time>2022-07-17T09:05:31Z</time>
      </trkpt>
      <trkpt lat="46.74458" lon="5.48998">
        <ele>225.09</ele>
        <time>2022-07-17T09:05:32Z</time>
      </trkpt>
      <trkpt lat="46.74457" lon="5.48997">
        <ele>225.09</ele>
        <time>2022-07-17T09:05:33Z</time>
      </trkpt>
      <trkpt lat="46.74455" lon="5.48996">
        <ele>226.05</ele>
        <time>2022-07-17T09:05:34Z</time>
      </trkpt>
      <trkpt lat="46.74439" lon="5.48985">
        <ele>226.53</ele>
        <time>2022-07-17T09:05:48Z</time>
      </trkpt>
      <trkpt lat="46.74434" lon="5.4898">
        <ele>225.09</ele>
        <time>2022-07-17T09:05:54Z</time>
      </trkpt>
      <trkpt lat="46.74433" lon="5.48976">
        <ele>225.57</ele>
        <time>2022-07-17T09:05:55Z</time>
      </trkpt>
      <trkpt lat="46.74433" lon="5.48973">
        <ele>225.09</ele>
        <time>2022-07-17T09:05:56Z</time>
      </trkpt>
      <trkpt lat="46.74434" lon="5.48969">
        <ele>225.57</ele>
        <time>2022-07-17T09:05:57Z</time>
      </trkpt>
      <trkpt lat="46.74434" lon="5.48965">
        <ele>225.57</ele>
        <time>2022-07-17T09:05:58Z</time>
      </trkpt>
      <trkpt lat="46.74448" lon="5.48887">
        <ele>225.57</ele>
        <time>2022-07-17T09:06:13Z</time>
      </trkpt>
      <trkpt lat="46.74471" lon="5.48788">
        <ele>225.09</ele>
        <time>2022-07-17T09:06:29Z</time>
      </trkpt>
      <trkpt lat="46.74503" lon="5.48663">
        <ele>224.61</ele>
        <time>2022-07-17T09:06:48Z</time>
      </trkpt>
      <trkpt lat="46.74532" lon="5.48551">
        <ele>224.61</ele>
        <time>2022-07-17T09:07:04Z</time>
      </trkpt>
      <trkpt lat="46.74554" lon="5.48493">
        <ele>224.61</ele>
        <time>2022-07-17T09:07:12Z</time>
      </trkpt>
      <trkpt lat="46.74557" lon="5.48487">
        <ele>224.12</ele>
        <time>2022-07-17T09:07:13Z</time>
      </trkpt>
      <trkpt lat="46.74625" lon="5.48377">
        <ele>223.64</ele>
        <time>2022-07-17T09:07:33Z</time>
      </trkpt>
      <trkpt lat="46.74694" lon="5.48267">
        <ele>224.12</ele>
        <time>2022-07-17T09:07:54Z</time>
      </trkpt>
      <trkpt lat="46.74757" lon="5.48165">
        <ele>223.64</ele>
        <time>2022-07-17T09:08:14Z</time>
      </trkpt>
      <trkpt lat="46.74784" lon="5.48118">
        <ele>222.68</ele>
        <time>2022-07-17T09:08:23Z</time>
      </trkpt>
      <trkpt lat="46.74841" lon="5.48024">
        <ele>222.2</ele>
        <time>2022-07-17T09:08:41Z</time>
      </trkpt>
      <trkpt lat="46.74853" lon="5.48004">
        <ele>221.72</ele>
        <time>2022-07-17T09:08:45Z</time>
      </trkpt>
      <trkpt lat="46.7492" lon="5.4789">
        <ele>222.68</ele>
        <time>2022-07-17T09:09:07Z</time>
      </trkpt>
      <trkpt lat="46.74967" lon="5.47798">
        <ele>221.72</ele>
        <time>2022-07-17T09:09:24Z</time>
      </trkpt>
      <trkpt lat="46.75006" lon="5.47688">
        <ele>221.24</ele>
        <time>2022-07-17T09:09:41Z</time>
      </trkpt>
      <trkpt lat="46.75045" lon="5.47572">
        <ele>225.57</ele>
        <time>2022-07-17T09:09:59Z</time>
      </trkpt>
      <trkpt lat="46.75047" lon="5.47566">
        <ele>226.53</ele>
        <time>2022-07-17T09:10:00Z</time>
      </trkpt>
      <trkpt lat="46.75059" lon="5.47529">
        <ele>221.24</ele>
        <time>2022-07-17T09:10:06Z</time>
      </trkpt>
      <trkpt lat="46.75061" lon="5.47524">
        <ele>221.24</ele>
        <time>2022-07-17T09:10:07Z</time>
      </trkpt>
      <trkpt lat="46.75076" lon="5.47475">
        <ele>224.61</ele>
        <time>2022-07-17T09:10:15Z</time>
      </trkpt>
      <trkpt lat="46.7508" lon="5.47463">
        <ele>221.72</ele>
        <time>2022-07-17T09:10:17Z</time>
      </trkpt>
      <trkpt lat="46.75084" lon="5.47452">
        <ele>223.64</ele>
        <time>2022-07-17T09:10:19Z</time>
      </trkpt>
      <trkpt lat="46.75086" lon="5.47448">
        <ele>221.72</ele>
        <time>2022-07-17T09:10:20Z</time>
      </trkpt>
      <trkpt lat="46.7509" lon="5.47446">
        <ele>222.2</ele>
        <time>2022-07-17T09:10:21Z</time>
      </trkpt>
      <trkpt lat="46.75093" lon="5.47444">
        <ele>221.72</ele>
        <time>2022-07-17T09:10:22Z</time>
      </trkpt>
      <trkpt lat="46.75097" lon="5.47443">
        <ele>220.76</ele>
        <time>2022-07-17T09:10:23Z</time>
      </trkpt>
      <trkpt lat="46.751" lon="5.47443">
        <ele>220.76</ele>
        <time>2022-07-17T09:10:24Z</time>
      </trkpt>
      <trkpt lat="46.75104" lon="5.47442">
        <ele>220.76</ele>
        <time>2022-07-17T09:10:25Z</time>
      </trkpt>
      <trkpt lat="46.75107" lon="5.47441">
        <ele>220.76</ele>
        <time>2022-07-17T09:10:26Z</time>
      </trkpt>
      <trkpt lat="46.7511" lon="5.47439">
        <ele>219.8</ele>
        <time>2022-07-17T09:10:27Z</time>
      </trkpt>
      <trkpt lat="46.75113" lon="5.47436">
        <ele>220.28</ele>
        <time>2022-07-17T09:10:28Z</time>
      </trkpt>
      <trkpt lat="46.75116" lon="5.47433">
        <ele>220.28</ele>
        <time>2022-07-17T09:10:29Z</time>
      </trkpt>
      <trkpt lat="46.75173" lon="5.47371">
        <ele>220.76</ele>
        <time>2022-07-17T09:10:49Z</time>
      </trkpt>
      <trkpt lat="46.75227" lon="5.473">
        <ele>219.32</ele>
        <time>2022-07-17T09:11:09Z</time>
      </trkpt>
      <trkpt lat="46.75242" lon="5.47275">
        <ele>223.16</ele>
        <time>2022-07-17T09:11:17Z</time>
      </trkpt>
      <trkpt lat="46.75246" lon="5.47269">
        <ele>220.76</ele>
        <time>2022-07-17T09:11:19Z</time>
      </trkpt>
      <trkpt lat="46.75289" lon="5.47196">
        <ele>221.72</ele>
        <time>2022-07-17T09:11:36Z</time>
      </trkpt>
      <trkpt lat="46.75342" lon="5.47104">
        <ele>220.76</ele>
        <time>2022-07-17T09:11:56Z</time>
      </trkpt>
      <trkpt lat="46.75372" lon="5.47049">
        <ele>220.28</ele>
        <time>2022-07-17T09:12:08Z</time>
      </trkpt>
      <trkpt lat="46.75408" lon="5.46952">
        <ele>218.36</ele>
        <time>2022-07-17T09:12:26Z</time>
      </trkpt>
      <trkpt lat="46.7545" lon="5.46835">
        <ele>218.36</ele>
        <time>2022-07-17T09:12:46Z</time>
      </trkpt>
      <trkpt lat="46.75493" lon="5.46714">
        <ele>218.36</ele>
        <time>2022-07-17T09:13:07Z</time>
      </trkpt>
      <trkpt lat="46.75527" lon="5.46596">
        <ele>217.88</ele>
        <time>2022-07-17T09:13:28Z</time>
      </trkpt>
      <trkpt lat="46.75553" lon="5.465">
        <ele>219.32</ele>
        <time>2022-07-17T09:13:45Z</time>
      </trkpt>
      <trkpt lat="46.75554" lon="5.46495">
        <ele>219.32</ele>
        <time>2022-07-17T09:13:46Z</time>
      </trkpt>
      <trkpt lat="46.75553" lon="5.4649">
        <ele>218.36</ele>
        <time>2022-07-17T09:13:47Z</time>
      </trkpt>
      <trkpt lat="46.75551" lon="5.46484">
        <ele>218.36</ele>
        <time>2022-07-17T09:13:48Z</time>
      </trkpt>
      <trkpt lat="46.75549" lon="5.46479">
        <ele>218.84</ele>
        <time>2022-07-17T09:13:49Z</time>
      </trkpt>
      <trkpt lat="46.75546" lon="5.46474">
        <ele>218.36</ele>
        <time>2022-07-17T09:13:50Z</time>
      </trkpt>
      <trkpt lat="46.75497" lon="5.4636">
        <ele>219.32</ele>
        <time>2022-07-17T09:14:08Z</time>
      </trkpt>
      <trkpt lat="46.75463" lon="5.46199">
        <ele>218.36</ele>
        <time>2022-07-17T09:14:30Z</time>
      </trkpt>
      <trkpt lat="46.7545" lon="5.46139">
        <ele>217.4</ele>
        <time>2022-07-17T09:14:39Z</time>
      </trkpt>
      <trkpt lat="46.75426" lon="5.46035">
        <ele>217.4</ele>
        <time>2022-07-17T09:14:55Z</time>
      </trkpt>
      <trkpt lat="46.75411" lon="5.45957">
        <ele>216.91</ele>
        <time>2022-07-17T09:15:08Z</time>
      </trkpt>
      <trkpt lat="46.75413" lon="5.45953">
        <ele>217.4</ele>
        <time>2022-07-17T09:15:09Z</time>
      </trkpt>
      <trkpt lat="46.75416" lon="5.45951">
        <ele>217.4</ele>
        <time>2022-07-17T09:15:10Z</time>
      </trkpt>
      <trkpt lat="46.75419" lon="5.4595">
        <ele>217.88</ele>
        <time>2022-07-17T09:15:11Z</time>
      </trkpt>
      <trkpt lat="46.75423" lon="5.4595">
        <ele>217.88</ele>
        <time>2022-07-17T09:15:12Z</time>
      </trkpt>
      <trkpt lat="46.75426" lon="5.4595">
        <ele>217.88</ele>
        <time>2022-07-17T09:15:13Z</time>
      </trkpt>
      <trkpt lat="46.7543" lon="5.4595">
        <ele>217.4</ele>
        <time>2022-07-17T09:15:14Z</time>
      </trkpt>
      <trkpt lat="46.75434" lon="5.4595">
        <ele>217.4</ele>
        <time>2022-07-17T09:15:15Z</time>
      </trkpt>
      <trkpt lat="46.75518" lon="5.45949">
        <ele>216.91</ele>
        <time>2022-07-17T09:15:34Z</time>
      </trkpt>
      <trkpt lat="46.75626" lon="5.45947">
        <ele>216.91</ele>
        <time>2022-07-17T09:15:57Z</time>
      </trkpt>
      <trkpt lat="46.75735" lon="5.45945">
        <ele>216.91</ele>
        <time>2022-07-17T09:16:20Z</time>
      </trkpt>
      <trkpt lat="46.75826" lon="5.45943">
        <ele>217.4</ele>
        <time>2022-07-17T09:16:40Z</time>
      </trkpt>
      <trkpt lat="46.75886" lon="5.45942">
        <ele>216.43</ele>
        <time>2022-07-17T09:16:56Z</time>
      </trkpt>
      <trkpt lat="46.75943" lon="5.45939">
        <ele>216.43</ele>
        <time>2022-07-17T09:17:16Z</time>
      </trkpt>
      <trkpt lat="46.75988" lon="5.45934">
        <ele>216.43</ele>
        <time>2022-07-17T09:17:27Z</time>
      </trkpt>
      <trkpt lat="46.76057" lon="5.45934">
        <ele>216.43</ele>
        <time>2022-07-17T09:17:42Z</time>
      </trkpt>
      <trkpt lat="46.76152" lon="5.45931">
        <ele>217.4</ele>
        <time>2022-07-17T09:18:03Z</time>
      </trkpt>
      <trkpt lat="46.76174" lon="5.45931">
        <ele>217.4</ele>
        <time>2022-07-17T09:18:08Z</time>
      </trkpt>
      <trkpt lat="46.76178" lon="5.45931">
        <ele>217.4</ele>
        <time>2022-07-17T09:18:09Z</time>
      </trkpt>
      <trkpt lat="46.76182" lon="5.45931">
        <ele>217.4</ele>
        <time>2022-07-17T09:18:10Z</time>
      </trkpt>
      <trkpt lat="46.7626" lon="5.45927">
        <ele>217.88</ele>
        <time>2022-07-17T09:18:28Z</time>
      </trkpt>
      <trkpt lat="46.76353" lon="5.45926">
        <ele>218.36</ele>
        <time>2022-07-17T09:18:48Z</time>
      </trkpt>
      <trkpt lat="46.76455" lon="5.45923">
        <ele>218.84</ele>
        <time>2022-07-17T09:19:11Z</time>
      </trkpt>
      <trkpt lat="46.7653" lon="5.45921">
        <ele>219.32</ele>
        <time>2022-07-17T09:19:29Z</time>
      </trkpt>
      <trkpt lat="46.76613" lon="5.45913">
        <ele>220.28</ele>
        <time>2022-07-17T09:19:49Z</time>
      </trkpt>
      <trkpt lat="46.76629" lon="5.45915">
        <ele>220.76</ele>
        <time>2022-07-17T09:19:53Z</time>
      </trkpt>
      <trkpt lat="46.76661" lon="5.45924">
        <ele>220.76</ele>
        <time>2022-07-17T09:20:01Z</time>
      </trkpt>
      <trkpt lat="46.76661" lon="5.45926">
        <ele>220.76</ele>
        <time>2022-07-17T09:20:02Z</time>
      </trkpt>
      <trkpt lat="46.76661" lon="5.45929">
        <ele>220.76</ele>
        <time>2022-07-17T09:20:03Z</time>
      </trkpt>
      <trkpt lat="46.76659" lon="5.45932">
        <ele>219.8</ele>
        <time>2022-07-17T09:20:04Z</time>
      </trkpt>
      <trkpt lat="46.76658" lon="5.45935">
        <ele>219.8</ele>
        <time>2022-07-17T09:20:05Z</time>
      </trkpt>
      <trkpt lat="46.76641" lon="5.45979">
        <ele>220.76</ele>
        <time>2022-07-17T09:20:19Z</time>
      </trkpt>
      <trkpt lat="46.76642" lon="5.45994">
        <ele>220.28</ele>
        <time>2022-07-17T09:20:31Z</time>
      </trkpt>
      <trkpt lat="46.76642" lon="5.45997">
        <ele>220.28</ele>
        <time>2022-07-17T09:21:01Z</time>
      </trkpt>
      <trkpt lat="46.76645" lon="5.45993">
        <ele>220.28</ele>
        <time>2022-07-17T09:21:21Z</time>
      </trkpt>
      <trkpt lat="46.76651" lon="5.45962">
        <ele>219.32</ele>
        <time>2022-07-17T09:21:35Z</time>
      </trkpt>
      <trkpt lat="46.76662" lon="5.45931">
        <ele>219.8</ele>
        <time>2022-07-17T09:21:48Z</time>
      </trkpt>
      <trkpt lat="46.76666" lon="5.45923">
        <ele>220.28</ele>
        <time>2022-07-17T09:21:53Z</time>
      </trkpt>
      <trkpt lat="46.76667" lon="5.45923">
        <ele>220.28</ele>
        <time>2022-07-17T09:21:54Z</time>
      </trkpt>
      <trkpt lat="46.7667" lon="5.45921">
        <ele>220.76</ele>
        <time>2022-07-17T09:21:57Z</time>
      </trkpt>
      <trkpt lat="46.76672" lon="5.45921">
        <ele>220.76</ele>
        <time>2022-07-17T09:21:58Z</time>
      </trkpt>
      <trkpt lat="46.76674" lon="5.45921">
        <ele>220.28</ele>
        <time>2022-07-17T09:21:59Z</time>
      </trkpt>
      <trkpt lat="46.76676" lon="5.45922">
        <ele>220.28</ele>
        <time>2022-07-17T09:22:00Z</time>
      </trkpt>
      <trkpt lat="46.76678" lon="5.45922">
        <ele>220.28</ele>
        <time>2022-07-17T09:22:01Z</time>
      </trkpt>
      <trkpt lat="46.7668" lon="5.45922">
        <ele>220.28</ele>
        <time>2022-07-17T09:22:02Z</time>
      </trkpt>
      <trkpt lat="46.76682" lon="5.45923">
        <ele>219.8</ele>
        <time>2022-07-17T09:22:03Z</time>
      </trkpt>
      <trkpt lat="46.76684" lon="5.45924">
        <ele>219.8</ele>
        <time>2022-07-17T09:22:04Z</time>
      </trkpt>
      <trkpt lat="46.76685" lon="5.45924">
        <ele>219.8</ele>
        <time>2022-07-17T09:22:05Z</time>
      </trkpt>
      <trkpt lat="46.76687" lon="5.45924">
        <ele>219.8</ele>
        <time>2022-07-17T09:22:06Z</time>
      </trkpt>
      <trkpt lat="46.76689" lon="5.45925">
        <ele>220.28</ele>
        <time>2022-07-17T09:22:07Z</time>
      </trkpt>
      <trkpt lat="46.7674" lon="5.45942">
        <ele>221.72</ele>
        <time>2022-07-17T09:22:23Z</time>
      </trkpt>
      <trkpt lat="46.76799" lon="5.45969">
        <ele>221.72</ele>
        <time>2022-07-17T09:22:39Z</time>
      </trkpt>
      <trkpt lat="46.76846" lon="5.45997">
        <ele>222.2</ele>
        <time>2022-07-17T09:22:52Z</time>
      </trkpt>
      <trkpt lat="46.76916" lon="5.46037">
        <ele>224.61</ele>
        <time>2022-07-17T09:23:11Z</time>
      </trkpt>
      <trkpt lat="46.76957" lon="5.46058">
        <ele>223.64</ele>
        <time>2022-07-17T09:23:23Z</time>
      </trkpt>
      <trkpt lat="46.77016" lon="5.46086">
        <ele>224.12</ele>
        <time>2022-07-17T09:23:41Z</time>
      </trkpt>
      <trkpt lat="46.77033" lon="5.46095">
        <ele>225.57</ele>
        <time>2022-07-17T09:23:49Z</time>
      </trkpt>
      <trkpt lat="46.77034" lon="5.46095">
        <ele>225.09</ele>
        <time>2022-07-17T09:23:50Z</time>
      </trkpt>
      <trkpt lat="46.77036" lon="5.46096">
        <ele>225.57</ele>
        <time>2022-07-17T09:23:51Z</time>
      </trkpt>
      <trkpt lat="46.77054" lon="5.46104">
        <ele>225.57</ele>
        <time>2022-07-17T09:24:01Z</time>
      </trkpt>
      <trkpt lat="46.77064" lon="5.46107">
        <ele>225.09</ele>
        <time>2022-07-17T09:24:18Z</time>
      </trkpt>
      <trkpt lat="46.77112" lon="5.46128">
        <ele>224.12</ele>
        <time>2022-07-17T09:24:30Z</time>
      </trkpt>
      <trkpt lat="46.77132" lon="5.46131">
        <ele>226.05</ele>
        <time>2022-07-17T09:24:35Z</time>
      </trkpt>
      <trkpt lat="46.77195" lon="5.4614">
        <ele>226.53</ele>
        <time>2022-07-17T09:24:52Z</time>
      </trkpt>
      <trkpt lat="46.77259" lon="5.46143">
        <ele>227.01</ele>
        <time>2022-07-17T09:25:10Z</time>
      </trkpt>
      <trkpt lat="46.77323" lon="5.46145">
        <ele>227.97</ele>
        <time>2022-07-17T09:25:27Z</time>
      </trkpt>
      <trkpt lat="46.77386" lon="5.46149">
        <ele>228.45</ele>
        <time>2022-07-17T09:25:44Z</time>
      </trkpt>
      <trkpt lat="46.77397" lon="5.46153">
        <ele>228.93</ele>
        <time>2022-07-17T09:25:55Z</time>
      </trkpt>
      <trkpt lat="46.77399" lon="5.46154">
        <ele>228.93</ele>
        <time>2022-07-17T09:26:16Z</time>
      </trkpt>
      <trkpt lat="46.77401" lon="5.46155">
        <ele>229.41</ele>
        <time>2022-07-17T09:26:22Z</time>
      </trkpt>
      <trkpt lat="46.77403" lon="5.46155">
        <ele>229.41</ele>
        <time>2022-07-17T09:26:23Z</time>
      </trkpt>
      <trkpt lat="46.77405" lon="5.46155">
        <ele>229.41</ele>
        <time>2022-07-17T09:26:24Z</time>
      </trkpt>
      <trkpt lat="46.77454" lon="5.46158">
        <ele>229.89</ele>
        <time>2022-07-17T09:26:38Z</time>
      </trkpt>
      <trkpt lat="46.77522" lon="5.46162">
        <ele>230.85</ele>
        <time>2022-07-17T09:26:54Z</time>
      </trkpt>
      <trkpt lat="46.77583" lon="5.46162">
        <ele>232.3</ele>
        <time>2022-07-17T09:27:08Z</time>
      </trkpt>
      <trkpt lat="46.77587" lon="5.46161">
        <ele>232.3</ele>
        <time>2022-07-17T09:27:09Z</time>
      </trkpt>
      <trkpt lat="46.77669" lon="5.46167">
        <ele>232.78</ele>
        <time>2022-07-17T09:27:28Z</time>
      </trkpt>
      <trkpt lat="46.77736" lon="5.46173">
        <ele>233.74</ele>
        <time>2022-07-17T09:27:44Z</time>
      </trkpt>
      <trkpt lat="46.7774" lon="5.46173">
        <ele>233.74</ele>
        <time>2022-07-17T09:27:45Z</time>
      </trkpt>
      <trkpt lat="46.77807" lon="5.46177">
        <ele>234.7</ele>
        <time>2022-07-17T09:28:02Z</time>
      </trkpt>
      <trkpt lat="46.77879" lon="5.46172">
        <ele>235.66</ele>
        <time>2022-07-17T09:28:19Z</time>
      </trkpt>
      <trkpt lat="46.77884" lon="5.46171">
        <ele>235.18</ele>
        <time>2022-07-17T09:28:20Z</time>
      </trkpt>
      <trkpt lat="46.77888" lon="5.46171">
        <ele>235.66</ele>
        <time>2022-07-17T09:28:21Z</time>
      </trkpt>
      <trkpt lat="46.77892" lon="5.46171">
        <ele>235.66</ele>
        <time>2022-07-17T09:28:22Z</time>
      </trkpt>
      <trkpt lat="46.77896" lon="5.46171">
        <ele>236.14</ele>
        <time>2022-07-17T09:28:23Z</time>
      </trkpt>
      <trkpt lat="46.779" lon="5.46171">
        <ele>235.66</ele>
        <time>2022-07-17T09:28:24Z</time>
      </trkpt>
      <trkpt lat="46.77945" lon="5.46163">
        <ele>236.14</ele>
        <time>2022-07-17T09:28:35Z</time>
      </trkpt>
      <trkpt lat="46.7795" lon="5.46163">
        <ele>236.62</ele>
        <time>2022-07-17T09:28:36Z</time>
      </trkpt>
      <trkpt lat="46.77954" lon="5.46163">
        <ele>236.14</ele>
        <time>2022-07-17T09:28:37Z</time>
      </trkpt>
      <trkpt lat="46.78023" lon="5.46142">
        <ele>237.1</ele>
        <time>2022-07-17T09:28:54Z</time>
      </trkpt>
      <trkpt lat="46.78091" lon="5.46126">
        <ele>237.58</ele>
        <time>2022-07-17T09:29:09Z</time>
      </trkpt>
      <trkpt lat="46.78174" lon="5.46104">
        <ele>237.1</ele>
        <time>2022-07-17T09:29:27Z</time>
      </trkpt>
      <trkpt lat="46.78259" lon="5.4608">
        <ele>237.1</ele>
        <time>2022-07-17T09:29:45Z</time>
      </trkpt>
      <trkpt lat="46.78354" lon="5.46055">
        <ele>235.66</ele>
        <time>2022-07-17T09:30:03Z</time>
      </trkpt>
      <trkpt lat="46.78458" lon="5.46027">
        <ele>235.18</ele>
        <time>2022-07-17T09:30:22Z</time>
      </trkpt>
      <trkpt lat="46.78584" lon="5.4599">
        <ele>234.7</ele>
        <time>2022-07-17T09:30:44Z</time>
      </trkpt>
      <trkpt lat="46.78609" lon="5.45983">
        <ele>234.7</ele>
        <time>2022-07-17T09:30:49Z</time>
      </trkpt>
      <trkpt lat="46.78614" lon="5.45982">
        <ele>234.7</ele>
        <time>2022-07-17T09:30:50Z</time>
      </trkpt>
      <trkpt lat="46.78714" lon="5.45956">
        <ele>233.74</ele>
        <time>2022-07-17T09:31:08Z</time>
      </trkpt>
      <trkpt lat="46.78751" lon="5.45947">
        <ele>233.26</ele>
        <time>2022-07-17T09:31:15Z</time>
      </trkpt>
      <trkpt lat="46.78756" lon="5.45946">
        <ele>233.26</ele>
        <time>2022-07-17T09:31:16Z</time>
      </trkpt>
      <trkpt lat="46.78848" lon="5.4592">
        <ele>232.78</ele>
        <time>2022-07-17T09:31:33Z</time>
      </trkpt>
      <trkpt lat="46.78853" lon="5.45919">
        <ele>232.78</ele>
        <time>2022-07-17T09:31:34Z</time>
      </trkpt>
      <trkpt lat="46.78859" lon="5.45918">
        <ele>232.78</ele>
        <time>2022-07-17T09:31:35Z</time>
      </trkpt>
      <trkpt lat="46.78864" lon="5.45916">
        <ele>232.78</ele>
        <time>2022-07-17T09:31:36Z</time>
      </trkpt>
      <trkpt lat="46.7887" lon="5.45916">
        <ele>232.3</ele>
        <time>2022-07-17T09:31:37Z</time>
      </trkpt>
      <trkpt lat="46.78875" lon="5.45917">
        <ele>232.78</ele>
        <time>2022-07-17T09:31:38Z</time>
      </trkpt>
      <trkpt lat="46.78881" lon="5.45917">
        <ele>232.78</ele>
        <time>2022-07-17T09:31:39Z</time>
      </trkpt>
      <trkpt lat="46.78886" lon="5.45916">
        <ele>232.78</ele>
        <time>2022-07-17T09:31:40Z</time>
      </trkpt>
      <trkpt lat="46.78999" lon="5.45879">
        <ele>231.81</ele>
        <time>2022-07-17T09:32:01Z</time>
      </trkpt>
      <trkpt lat="46.79069" lon="5.4586">
        <ele>230.85</ele>
        <time>2022-07-17T09:32:14Z</time>
      </trkpt>
      <trkpt lat="46.79161" lon="5.45835">
        <ele>230.37</ele>
        <time>2022-07-17T09:32:31Z</time>
      </trkpt>
      <trkpt lat="46.79255" lon="5.45808">
        <ele>230.37</ele>
        <time>2022-07-17T09:32:49Z</time>
      </trkpt>
      <trkpt lat="46.79354" lon="5.4578">
        <ele>230.85</ele>
        <time>2022-07-17T09:33:08Z</time>
      </trkpt>
      <trkpt lat="46.79397" lon="5.45768">
        <ele>230.37</ele>
        <time>2022-07-17T09:33:17Z</time>
      </trkpt>
      <trkpt lat="46.79402" lon="5.45767">
        <ele>230.85</ele>
        <time>2022-07-17T09:33:18Z</time>
      </trkpt>
      <trkpt lat="46.79406" lon="5.45766">
        <ele>230.85</ele>
        <time>2022-07-17T09:33:19Z</time>
      </trkpt>
      <trkpt lat="46.79431" lon="5.45761">
        <ele>230.37</ele>
        <time>2022-07-17T09:33:24Z</time>
      </trkpt>
      <trkpt lat="46.7948" lon="5.45748">
        <ele>230.37</ele>
        <time>2022-07-17T09:33:34Z</time>
      </trkpt>
      <trkpt lat="46.79559" lon="5.45721">
        <ele>229.41</ele>
        <time>2022-07-17T09:33:49Z</time>
      </trkpt>
      <trkpt lat="46.79566" lon="5.4572">
        <ele>229.41</ele>
        <time>2022-07-17T09:33:50Z</time>
      </trkpt>
      <trkpt lat="46.79573" lon="5.45719">
        <ele>228.93</ele>
        <time>2022-07-17T09:33:51Z</time>
      </trkpt>
      <trkpt lat="46.79659" lon="5.45726">
        <ele>228.45</ele>
        <time>2022-07-17T09:34:06Z</time>
      </trkpt>
      <trkpt lat="46.79744" lon="5.45746">
        <ele>228.93</ele>
        <time>2022-07-17T09:34:23Z</time>
      </trkpt>
      <trkpt lat="46.79784" lon="5.45773">
        <ele>229.41</ele>
        <time>2022-07-17T09:34:31Z</time>
      </trkpt>
      <trkpt lat="46.79788" lon="5.45778">
        <ele>229.89</ele>
        <time>2022-07-17T09:34:32Z</time>
      </trkpt>
      <trkpt lat="46.79806" lon="5.45801">
        <ele>230.85</ele>
        <time>2022-07-17T09:34:40Z</time>
      </trkpt>
      <trkpt lat="46.79808" lon="5.45802">
        <ele>229.89</ele>
        <time>2022-07-17T09:34:41Z</time>
      </trkpt>
      <trkpt lat="46.79811" lon="5.45802">
        <ele>229.89</ele>
        <time>2022-07-17T09:34:42Z</time>
      </trkpt>
      <trkpt lat="46.79847" lon="5.45799">
        <ele>229.89</ele>
        <time>2022-07-17T09:34:54Z</time>
      </trkpt>
      <trkpt lat="46.7988" lon="5.45848">
        <ele>230.37</ele>
        <time>2022-07-17T09:35:08Z</time>
      </trkpt>
      <trkpt lat="46.79915" lon="5.45921">
        <ele>228.93</ele>
        <time>2022-07-17T09:35:22Z</time>
      </trkpt>
      <trkpt lat="46.79964" lon="5.45992">
        <ele>229.41</ele>
        <time>2022-07-17T09:35:36Z</time>
      </trkpt>
      <trkpt lat="46.79987" lon="5.46019">
        <ele>230.37</ele>
        <time>2022-07-17T09:35:42Z</time>
      </trkpt>
      <trkpt lat="46.80002" lon="5.46056">
        <ele>229.89</ele>
        <time>2022-07-17T09:35:48Z</time>
      </trkpt>
      <trkpt lat="46.8002" lon="5.46103">
        <ele>229.89</ele>
        <time>2022-07-17T09:35:56Z</time>
      </trkpt>
      <trkpt lat="46.80082" lon="5.46185">
        <ele>229.89</ele>
        <time>2022-07-17T09:36:13Z</time>
      </trkpt>
      <trkpt lat="46.80148" lon="5.46272">
        <ele>228.93</ele>
        <time>2022-07-17T09:36:30Z</time>
      </trkpt>
      <trkpt lat="46.80216" lon="5.46361">
        <ele>227.49</ele>
        <time>2022-07-17T09:36:47Z</time>
      </trkpt>
      <trkpt lat="46.80283" lon="5.46452">
        <ele>226.53</ele>
        <time>2022-07-17T09:37:04Z</time>
      </trkpt>
      <trkpt lat="46.80342" lon="5.46535">
        <ele>226.05</ele>
        <time>2022-07-17T09:37:19Z</time>
      </trkpt>
      <trkpt lat="46.80413" lon="5.46626">
        <ele>225.57</ele>
        <time>2022-07-17T09:37:36Z</time>
      </trkpt>
      <trkpt lat="46.80485" lon="5.46719">
        <ele>224.61</ele>
        <time>2022-07-17T09:37:54Z</time>
      </trkpt>
      <trkpt lat="46.80559" lon="5.46807">
        <ele>224.12</ele>
        <time>2022-07-17T09:38:12Z</time>
      </trkpt>
      <trkpt lat="46.80567" lon="5.46817">
        <ele>224.12</ele>
        <time>2022-07-17T09:38:14Z</time>
      </trkpt>
      <trkpt lat="46.80645" lon="5.46886">
        <ele>223.64</ele>
        <time>2022-07-17T09:38:32Z</time>
      </trkpt>
      <trkpt lat="46.80726" lon="5.4694">
        <ele>222.68</ele>
        <time>2022-07-17T09:38:50Z</time>
      </trkpt>
      <trkpt lat="46.80776" lon="5.46971">
        <ele>223.16</ele>
        <time>2022-07-17T09:39:02Z</time>
      </trkpt>
      <trkpt lat="46.80866" lon="5.46999">
        <ele>223.16</ele>
        <time>2022-07-17T09:39:20Z</time>
      </trkpt>
      <trkpt lat="46.80945" lon="5.4701">
        <ele>222.2</ele>
        <time>2022-07-17T09:39:37Z</time>
      </trkpt>
      <trkpt lat="46.80954" lon="5.47011">
        <ele>222.2</ele>
        <time>2022-07-17T09:39:39Z</time>
      </trkpt>
      <trkpt lat="46.81034" lon="5.47007">
        <ele>222.2</ele>
        <time>2022-07-17T09:39:55Z</time>
      </trkpt>
      <trkpt lat="46.81115" lon="5.46993">
        <ele>222.2</ele>
        <time>2022-07-17T09:40:11Z</time>
      </trkpt>
      <trkpt lat="46.8119" lon="5.4698">
        <ele>222.2</ele>
        <time>2022-07-17T09:40:26Z</time>
      </trkpt>
      <trkpt lat="46.81264" lon="5.46974">
        <ele>222.2</ele>
        <time>2022-07-17T09:40:41Z</time>
      </trkpt>
      <trkpt lat="46.81273" lon="5.46974">
        <ele>221.72</ele>
        <time>2022-07-17T09:40:43Z</time>
      </trkpt>
      <trkpt lat="46.81278" lon="5.46973">
        <ele>221.24</ele>
        <time>2022-07-17T09:40:44Z</time>
      </trkpt>
      <trkpt lat="46.81335" lon="5.46961">
        <ele>221.72</ele>
        <time>2022-07-17T09:40:59Z</time>
      </trkpt>
      <trkpt lat="46.81368" lon="5.46955">
        <ele>222.2</ele>
        <time>2022-07-17T09:41:07Z</time>
      </trkpt>
      <trkpt lat="46.81421" lon="5.46946">
        <ele>222.2</ele>
        <time>2022-07-17T09:41:19Z</time>
      </trkpt>
      <trkpt lat="46.81482" lon="5.46932">
        <ele>222.2</ele>
        <time>2022-07-17T09:41:33Z</time>
      </trkpt>
      <trkpt lat="46.81536" lon="5.4692">
        <ele>222.2</ele>
        <time>2022-07-17T09:41:45Z</time>
      </trkpt>
      <trkpt lat="46.81603" lon="5.46908">
        <ele>222.68</ele>
        <time>2022-07-17T09:42:00Z</time>
      </trkpt>
      <trkpt lat="46.81636" lon="5.46901">
        <ele>223.16</ele>
        <time>2022-07-17T09:42:07Z</time>
      </trkpt>
      <trkpt lat="46.81709" lon="5.46883">
        <ele>223.64</ele>
        <time>2022-07-17T09:42:22Z</time>
      </trkpt>
      <trkpt lat="46.81727" lon="5.46878">
        <ele>223.64</ele>
        <time>2022-07-17T09:42:26Z</time>
      </trkpt>
      <trkpt lat="46.81792" lon="5.46862">
        <ele>224.12</ele>
        <time>2022-07-17T09:42:41Z</time>
      </trkpt>
      <trkpt lat="46.81857" lon="5.46848">
        <ele>224.61</ele>
        <time>2022-07-17T09:42:55Z</time>
      </trkpt>
      <trkpt lat="46.81891" lon="5.46843">
        <ele>225.09</ele>
        <time>2022-07-17T09:43:02Z</time>
      </trkpt>
      <trkpt lat="46.81955" lon="5.4683">
        <ele>225.57</ele>
        <time>2022-07-17T09:43:14Z</time>
      </trkpt>
      <trkpt lat="46.82031" lon="5.46826">
        <ele>226.05</ele>
        <time>2022-07-17T09:43:28Z</time>
      </trkpt>
      <trkpt lat="46.82119" lon="5.46815">
        <ele>226.05</ele>
        <time>2022-07-17T09:43:44Z</time>
      </trkpt>
      <trkpt lat="46.82218" lon="5.46817">
        <ele>226.05</ele>
        <time>2022-07-17T09:44:00Z</time>
      </trkpt>
      <trkpt lat="46.8231" lon="5.46813">
        <ele>225.57</ele>
        <time>2022-07-17T09:44:16Z</time>
      </trkpt>
      <trkpt lat="46.82357" lon="5.46806">
        <ele>225.57</ele>
        <time>2022-07-17T09:44:25Z</time>
      </trkpt>
      <trkpt lat="46.82437" lon="5.46795">
        <ele>225.09</ele>
        <time>2022-07-17T09:44:41Z</time>
      </trkpt>
      <trkpt lat="46.82513" lon="5.46783">
        <ele>225.09</ele>
        <time>2022-07-17T09:44:56Z</time>
      </trkpt>
      <trkpt lat="46.8259" lon="5.46774">
        <ele>224.61</ele>
        <time>2022-07-17T09:45:11Z</time>
      </trkpt>
      <trkpt lat="46.82627" lon="5.46763">
        <ele>224.61</ele>
        <time>2022-07-17T09:45:19Z</time>
      </trkpt>
      <trkpt lat="46.82686" lon="5.46748">
        <ele>224.12</ele>
        <time>2022-07-17T09:45:33Z</time>
      </trkpt>
      <trkpt lat="46.82747" lon="5.46729">
        <ele>224.61</ele>
        <time>2022-07-17T09:45:48Z</time>
      </trkpt>
      <trkpt lat="46.82795" lon="5.46727">
        <ele>226.05</ele>
        <time>2022-07-17T09:46:00Z</time>
      </trkpt>
      <trkpt lat="46.82848" lon="5.46718">
        <ele>226.05</ele>
        <time>2022-07-17T09:46:15Z</time>
      </trkpt>
      <trkpt lat="46.82911" lon="5.46705">
        <ele>227.49</ele>
        <time>2022-07-17T09:46:32Z</time>
      </trkpt>
      <trkpt lat="46.82968" lon="5.46694">
        <ele>228.45</ele>
        <time>2022-07-17T09:46:47Z</time>
      </trkpt>
      <trkpt lat="46.83021" lon="5.46686">
        <ele>229.41</ele>
        <time>2022-07-17T09:47:01Z</time>
      </trkpt>
      <trkpt lat="46.8307" lon="5.46673">
        <ele>229.41</ele>
        <time>2022-07-17T09:47:15Z</time>
      </trkpt>
      <trkpt lat="46.83149" lon="5.46662">
        <ele>231.33</ele>
        <time>2022-07-17T09:47:33Z</time>
      </trkpt>
      <trkpt lat="46.83218" lon="5.46663">
        <ele>232.3</ele>
        <time>2022-07-17T09:47:50Z</time>
      </trkpt>
      <trkpt lat="46.83276" lon="5.46672">
        <ele>232.3</ele>
        <time>2022-07-17T09:48:04Z</time>
      </trkpt>
      <trkpt lat="46.8333" lon="5.46688">
        <ele>233.26</ele>
        <time>2022-07-17T09:48:18Z</time>
      </trkpt>
      <trkpt lat="46.83378" lon="5.46712">
        <ele>233.74</ele>
        <time>2022-07-17T09:48:32Z</time>
      </trkpt>
      <trkpt lat="46.83415" lon="5.46733">
        <ele>234.22</ele>
        <time>2022-07-17T09:48:42Z</time>
      </trkpt>
      <trkpt lat="46.83463" lon="5.46782">
        <ele>234.22</ele>
        <time>2022-07-17T09:48:57Z</time>
      </trkpt>
      <trkpt lat="46.83515" lon="5.46848">
        <ele>235.18</ele>
        <time>2022-07-17T09:49:13Z</time>
      </trkpt>
      <trkpt lat="46.83573" lon="5.46927">
        <ele>236.14</ele>
        <time>2022-07-17T09:49:30Z</time>
      </trkpt>
      <trkpt lat="46.83615" lon="5.46985">
        <ele>237.58</ele>
        <time>2022-07-17T09:49:45Z</time>
      </trkpt>
      <trkpt lat="46.83649" lon="5.47028">
        <ele>238.54</ele>
        <time>2022-07-17T09:49:57Z</time>
      </trkpt>
      <trkpt lat="46.83691" lon="5.47075">
        <ele>238.54</ele>
        <time>2022-07-17T09:50:11Z</time>
      </trkpt>
      <trkpt lat="46.83732" lon="5.47126">
        <ele>239.99</ele>
        <time>2022-07-17T09:50:25Z</time>
      </trkpt>
      <trkpt lat="46.83768" lon="5.4717">
        <ele>241.43</ele>
        <time>2022-07-17T09:50:38Z</time>
      </trkpt>
      <trkpt lat="46.83814" lon="5.47224">
        <ele>241.91</ele>
        <time>2022-07-17T09:50:51Z</time>
      </trkpt>
      <trkpt lat="46.83856" lon="5.47285">
        <ele>242.87</ele>
        <time>2022-07-17T09:51:08Z</time>
      </trkpt>
      <trkpt lat="46.83857" lon="5.47288">
        <ele>242.39</ele>
        <time>2022-07-17T09:51:09Z</time>
      </trkpt>
      <trkpt lat="46.83858" lon="5.47291">
        <ele>242.39</ele>
        <time>2022-07-17T09:51:10Z</time>
      </trkpt>
      <trkpt lat="46.83894" lon="5.47336">
        <ele>243.35</ele>
        <time>2022-07-17T09:51:22Z</time>
      </trkpt>
      <trkpt lat="46.83922" lon="5.47376">
        <ele>242.87</ele>
        <time>2022-07-17T09:51:35Z</time>
      </trkpt>
      <trkpt lat="46.83951" lon="5.47415">
        <ele>243.35</ele>
        <time>2022-07-17T09:51:49Z</time>
      </trkpt>
      <trkpt lat="46.83999" lon="5.47474">
        <ele>242.87</ele>
        <time>2022-07-17T09:52:03Z</time>
      </trkpt>
      <trkpt lat="46.84011" lon="5.47487">
        <ele>243.83</ele>
        <time>2022-07-17T09:52:06Z</time>
      </trkpt>
      <trkpt lat="46.84015" lon="5.47492">
        <ele>243.35</ele>
        <time>2022-07-17T09:52:07Z</time>
      </trkpt>
      <trkpt lat="46.84052" lon="5.47532">
        <ele>242.87</ele>
        <time>2022-07-17T09:52:16Z</time>
      </trkpt>
      <trkpt lat="46.84056" lon="5.47537">
        <ele>242.39</ele>
        <time>2022-07-17T09:52:17Z</time>
      </trkpt>
      <trkpt lat="46.84114" lon="5.47617">
        <ele>242.39</ele>
        <time>2022-07-17T09:52:33Z</time>
      </trkpt>
      <trkpt lat="46.8414" lon="5.47657">
        <ele>242.39</ele>
        <time>2022-07-17T09:52:40Z</time>
      </trkpt>
      <trkpt lat="46.84208" lon="5.47741">
        <ele>241.91</ele>
        <time>2022-07-17T09:52:55Z</time>
      </trkpt>
      <trkpt lat="46.84281" lon="5.47834">
        <ele>240.95</ele>
        <time>2022-07-17T09:53:10Z</time>
      </trkpt>
      <trkpt lat="46.84378" lon="5.47956">
        <ele>240.47</ele>
        <time>2022-07-17T09:53:28Z</time>
      </trkpt>
      <trkpt lat="46.84443" lon="5.48043">
        <ele>239.51</ele>
        <time>2022-07-17T09:53:44Z</time>
      </trkpt>
      <trkpt lat="46.84504" lon="5.48125">
        <ele>239.02</ele>
        <time>2022-07-17T09:54:00Z</time>
      </trkpt>
      <trkpt lat="46.8456" lon="5.48197">
        <ele>238.54</ele>
        <time>2022-07-17T09:54:14Z</time>
      </trkpt>
      <trkpt lat="46.84597" lon="5.4823">
        <ele>238.06</ele>
        <time>2022-07-17T09:54:26Z</time>
      </trkpt>
      <trkpt lat="46.8462" lon="5.48217">
        <ele>237.58</ele>
        <time>2022-07-17T09:54:35Z</time>
      </trkpt>
      <trkpt lat="46.84626" lon="5.48218">
        <ele>237.1</ele>
        <time>2022-07-17T09:54:39Z</time>
      </trkpt>
      <trkpt lat="46.84627" lon="5.48219">
        <ele>237.1</ele>
        <time>2022-07-17T09:54:40Z</time>
      </trkpt>
      <trkpt lat="46.84628" lon="5.4822">
        <ele>237.1</ele>
        <time>2022-07-17T09:54:41Z</time>
      </trkpt>
      <trkpt lat="46.84628" lon="5.48222">
        <ele>237.1</ele>
        <time>2022-07-17T09:54:42Z</time>
      </trkpt>
      <trkpt lat="46.84625" lon="5.48225">
        <ele>237.1</ele>
        <time>2022-07-17T09:54:45Z</time>
      </trkpt>
      <trkpt lat="46.84623" lon="5.48223">
        <ele>236.62</ele>
        <time>2022-07-17T09:54:46Z</time>
      </trkpt>
      <trkpt lat="46.84621" lon="5.48221">
        <ele>236.62</ele>
        <time>2022-07-17T09:54:47Z</time>
      </trkpt>
      <trkpt lat="46.84619" lon="5.48219">
        <ele>237.1</ele>
        <time>2022-07-17T09:54:48Z</time>
      </trkpt>
      <trkpt lat="46.84616" lon="5.48217">
        <ele>237.1</ele>
        <time>2022-07-17T09:54:49Z</time>
      </trkpt>
      <trkpt lat="46.84614" lon="5.48216">
        <ele>236.62</ele>
        <time>2022-07-17T09:54:50Z</time>
      </trkpt>
      <trkpt lat="46.84612" lon="5.48215">
        <ele>237.1</ele>
        <time>2022-07-17T09:54:51Z</time>
      </trkpt>
      <trkpt lat="46.84609" lon="5.48216">
        <ele>237.1</ele>
        <time>2022-07-17T09:54:52Z</time>
      </trkpt>
      <trkpt lat="46.84607" lon="5.48218">
        <ele>237.1</ele>
        <time>2022-07-17T09:54:53Z</time>
      </trkpt>
      <trkpt lat="46.84604" lon="5.48221">
        <ele>236.62</ele>
        <time>2022-07-17T09:54:54Z</time>
      </trkpt>
      <trkpt lat="46.84601" lon="5.48224">
        <ele>237.1</ele>
        <time>2022-07-17T09:54:55Z</time>
      </trkpt>
      <trkpt lat="46.84599" lon="5.48227">
        <ele>237.58</ele>
        <time>2022-07-17T09:54:56Z</time>
      </trkpt>
      <trkpt lat="46.84598" lon="5.48231">
        <ele>237.1</ele>
        <time>2022-07-17T09:54:57Z</time>
      </trkpt>
      <trkpt lat="46.8461" lon="5.48195">
        <ele>235.18</ele>
        <time>2022-07-17T09:58:38Z</time>
      </trkpt>
      <trkpt lat="46.84612" lon="5.48089">
        <ele>235.18</ele>
        <time>2022-07-17T09:58:54Z</time>
      </trkpt>
      <trkpt lat="46.84621" lon="5.47998">
        <ele>238.06</ele>
        <time>2022-07-17T09:59:11Z</time>
      </trkpt>
      <trkpt lat="46.84647" lon="5.47911">
        <ele>240.95</ele>
        <time>2022-07-17T09:59:32Z</time>
      </trkpt>
      <trkpt lat="46.84661" lon="5.47851">
        <ele>242.39</ele>
        <time>2022-07-17T09:59:49Z</time>
      </trkpt>
      <trkpt lat="46.84663" lon="5.47849">
        <ele>241.43</ele>
        <time>2022-07-17T09:59:50Z</time>
      </trkpt>
      <trkpt lat="46.84665" lon="5.47849">
        <ele>241.43</ele>
        <time>2022-07-17T09:59:51Z</time>
      </trkpt>
      <trkpt lat="46.84667" lon="5.47849">
        <ele>241.43</ele>
        <time>2022-07-17T09:59:52Z</time>
      </trkpt>
      <trkpt lat="46.8467" lon="5.4785">
        <ele>241.43</ele>
        <time>2022-07-17T09:59:53Z</time>
      </trkpt>
      <trkpt lat="46.84684" lon="5.47853">
        <ele>241.91</ele>
        <time>2022-07-17T10:00:01Z</time>
      </trkpt>
      <trkpt lat="46.84685" lon="5.47852">
        <ele>240.95</ele>
        <time>2022-07-17T10:00:02Z</time>
      </trkpt>
      <trkpt lat="46.84687" lon="5.47853">
        <ele>241.43</ele>
        <time>2022-07-17T10:00:16Z</time>
      </trkpt>
      <trkpt lat="46.84686" lon="5.47853">
        <ele>240.95</ele>
        <time>2022-07-17T10:00:30Z</time>
      </trkpt>
      <trkpt lat="46.84686" lon="5.47855">
        <ele>229.41</ele>
        <time>2022-07-17T11:12:20Z</time>
      </trkpt>
      <trkpt lat="46.84693" lon="5.47864">
        <ele>230.37</ele>
        <time>2022-07-17T11:12:22Z</time>
      </trkpt>
      <trkpt lat="46.84691" lon="5.47854">
        <ele>227.97</ele>
        <time>2022-07-17T11:12:40Z</time>
      </trkpt>
      <trkpt lat="46.84693" lon="5.47855">
        <ele>225.57</ele>
        <time>2022-07-17T11:12:47Z</time>
      </trkpt>
      <trkpt lat="46.84691" lon="5.47853">
        <ele>222.68</ele>
        <time>2022-07-17T11:12:56Z</time>
      </trkpt>
      <trkpt lat="46.84693" lon="5.47855">
        <ele>219.32</ele>
        <time>2022-07-17T11:13:06Z</time>
      </trkpt>
      <trkpt lat="46.84694" lon="5.47855">
        <ele>217.88</ele>
        <time>2022-07-17T11:13:14Z</time>
      </trkpt>
      <trkpt lat="46.84697" lon="5.47848">
        <ele>217.4</ele>
        <time>2022-07-17T11:13:18Z</time>
      </trkpt>
      <trkpt lat="46.84706" lon="5.47838">
        <ele>215.95</ele>
        <time>2022-07-17T11:13:24Z</time>
      </trkpt>
      <trkpt lat="46.84708" lon="5.47839">
        <ele>215.95</ele>
        <time>2022-07-17T11:13:25Z</time>
      </trkpt>
      <trkpt lat="46.8471" lon="5.4784">
        <ele>215.95</ele>
        <time>2022-07-17T11:13:26Z</time>
      </trkpt>
      <trkpt lat="46.8475" lon="5.47873">
        <ele>215.47</ele>
        <time>2022-07-17T11:13:41Z</time>
      </trkpt>
      <trkpt lat="46.84761" lon="5.47881">
        <ele>214.99</ele>
        <time>2022-07-17T11:13:44Z</time>
      </trkpt>
      <trkpt lat="46.84764" lon="5.47883">
        <ele>214.99</ele>
        <time>2022-07-17T11:13:45Z</time>
      </trkpt>
      <trkpt lat="46.84785" lon="5.47892">
        <ele>214.03</ele>
        <time>2022-07-17T11:13:50Z</time>
      </trkpt>
      <trkpt lat="46.84875" lon="5.47902">
        <ele>210.67</ele>
        <time>2022-07-17T11:14:05Z</time>
      </trkpt>
      <trkpt lat="46.8495" lon="5.47901">
        <ele>207.78</ele>
        <time>2022-07-17T11:14:16Z</time>
      </trkpt>
      <trkpt lat="46.85045" lon="5.47858">
        <ele>205.38</ele>
        <time>2022-07-17T11:14:30Z</time>
      </trkpt>
      <trkpt lat="46.85107" lon="5.4783">
        <ele>205.86</ele>
        <time>2022-07-17T11:14:43Z</time>
      </trkpt>
      <trkpt lat="46.85184" lon="5.47792">
        <ele>206.34</ele>
        <time>2022-07-17T11:15:01Z</time>
      </trkpt>
      <trkpt lat="46.85255" lon="5.47756">
        <ele>205.38</ele>
        <time>2022-07-17T11:15:18Z</time>
      </trkpt>
      <trkpt lat="46.85344" lon="5.47713">
        <ele>205.86</ele>
        <time>2022-07-17T11:15:39Z</time>
      </trkpt>
      <trkpt lat="46.85394" lon="5.47687">
        <ele>205.86</ele>
        <time>2022-07-17T11:15:50Z</time>
      </trkpt>
      <trkpt lat="46.85398" lon="5.47685">
        <ele>205.86</ele>
        <time>2022-07-17T11:15:51Z</time>
      </trkpt>
      <trkpt lat="46.85492" lon="5.4765">
        <ele>205.86</ele>
        <time>2022-07-17T11:16:11Z</time>
      </trkpt>
      <trkpt lat="46.85542" lon="5.4762">
        <ele>208.26</ele>
        <time>2022-07-17T11:16:22Z</time>
      </trkpt>
      <trkpt lat="46.85558" lon="5.47609">
        <ele>205.86</ele>
        <time>2022-07-17T11:16:26Z</time>
      </trkpt>
      <trkpt lat="46.85562" lon="5.47608">
        <ele>205.86</ele>
        <time>2022-07-17T11:16:27Z</time>
      </trkpt>
      <trkpt lat="46.85566" lon="5.47608">
        <ele>205.86</ele>
        <time>2022-07-17T11:16:28Z</time>
      </trkpt>
      <trkpt lat="46.85575" lon="5.47609">
        <ele>205.86</ele>
        <time>2022-07-17T11:16:30Z</time>
      </trkpt>
      <trkpt lat="46.85579" lon="5.47611">
        <ele>205.86</ele>
        <time>2022-07-17T11:16:31Z</time>
      </trkpt>
      <trkpt lat="46.85583" lon="5.47613">
        <ele>205.86</ele>
        <time>2022-07-17T11:16:32Z</time>
      </trkpt>
      <trkpt lat="46.85625" lon="5.47651">
        <ele>207.78</ele>
        <time>2022-07-17T11:16:48Z</time>
      </trkpt>
      <trkpt lat="46.85648" lon="5.47674">
        <ele>210.19</ele>
        <time>2022-07-17T11:17:01Z</time>
      </trkpt>
      <trkpt lat="46.85679" lon="5.47705">
        <ele>211.63</ele>
        <time>2022-07-17T11:17:19Z</time>
      </trkpt>
      <trkpt lat="46.85708" lon="5.47733">
        <ele>213.55</ele>
        <time>2022-07-17T11:17:38Z</time>
      </trkpt>
      <trkpt lat="46.8571" lon="5.47733">
        <ele>214.03</ele>
        <time>2022-07-17T11:17:39Z</time>
      </trkpt>
      <trkpt lat="46.85711" lon="5.47732">
        <ele>214.51</ele>
        <time>2022-07-17T11:17:40Z</time>
      </trkpt>
      <trkpt lat="46.85713" lon="5.4773">
        <ele>213.55</ele>
        <time>2022-07-17T11:17:41Z</time>
      </trkpt>
      <trkpt lat="46.85716" lon="5.47729">
        <ele>213.07</ele>
        <time>2022-07-17T11:17:42Z</time>
      </trkpt>
      <trkpt lat="46.85742" lon="5.47713">
        <ele>212.59</ele>
        <time>2022-07-17T11:17:55Z</time>
      </trkpt>
      <trkpt lat="46.85764" lon="5.47701">
        <ele>213.55</ele>
        <time>2022-07-17T11:18:05Z</time>
      </trkpt>
      <trkpt lat="46.85766" lon="5.47701">
        <ele>214.03</ele>
        <time>2022-07-17T11:18:06Z</time>
      </trkpt>
      <trkpt lat="46.85768" lon="5.477">
        <ele>213.55</ele>
        <time>2022-07-17T11:18:07Z</time>
      </trkpt>
      <trkpt lat="46.85771" lon="5.477">
        <ele>213.55</ele>
        <time>2022-07-17T11:18:08Z</time>
      </trkpt>
      <trkpt lat="46.85773" lon="5.47699">
        <ele>213.07</ele>
        <time>2022-07-17T11:18:09Z</time>
      </trkpt>
      <trkpt lat="46.85775" lon="5.47698">
        <ele>213.07</ele>
        <time>2022-07-17T11:18:10Z</time>
      </trkpt>
      <trkpt lat="46.85777" lon="5.47696">
        <ele>213.55</ele>
        <time>2022-07-17T11:18:11Z</time>
      </trkpt>
      <trkpt lat="46.85779" lon="5.47695">
        <ele>213.55</ele>
        <time>2022-07-17T11:18:12Z</time>
      </trkpt>
      <trkpt lat="46.85817" lon="5.47681">
        <ele>214.03</ele>
        <time>2022-07-17T11:18:27Z</time>
      </trkpt>
      <trkpt lat="46.85851" lon="5.47676">
        <ele>214.03</ele>
        <time>2022-07-17T11:18:40Z</time>
      </trkpt>
      <trkpt lat="46.85888" lon="5.47665">
        <ele>214.51</ele>
        <time>2022-07-17T11:18:54Z</time>
      </trkpt>
      <trkpt lat="46.85925" lon="5.47662">
        <ele>214.99</ele>
        <time>2022-07-17T11:19:07Z</time>
      </trkpt>
      <trkpt lat="46.85972" lon="5.47659">
        <ele>215.95</ele>
        <time>2022-07-17T11:19:22Z</time>
      </trkpt>
      <trkpt lat="46.86004" lon="5.47655">
        <ele>216.91</ele>
        <time>2022-07-17T11:19:35Z</time>
      </trkpt>
      <trkpt lat="46.86051" lon="5.47647">
        <ele>215.95</ele>
        <time>2022-07-17T11:19:47Z</time>
      </trkpt>
      <trkpt lat="46.86095" lon="5.47645">
        <ele>217.4</ele>
        <time>2022-07-17T11:20:01Z</time>
      </trkpt>
      <trkpt lat="46.86134" lon="5.47637">
        <ele>217.88</ele>
        <time>2022-07-17T11:20:15Z</time>
      </trkpt>
      <trkpt lat="46.86164" lon="5.47629">
        <ele>218.36</ele>
        <time>2022-07-17T11:20:29Z</time>
      </trkpt>
      <trkpt lat="46.86169" lon="5.47628">
        <ele>218.36</ele>
        <time>2022-07-17T11:20:32Z</time>
      </trkpt>
      <trkpt lat="46.86198" lon="5.47617">
        <ele>218.84</ele>
        <time>2022-07-17T11:20:46Z</time>
      </trkpt>
      <trkpt lat="46.86246" lon="5.47617">
        <ele>218.84</ele>
        <time>2022-07-17T11:21:02Z</time>
      </trkpt>
      <trkpt lat="46.86259" lon="5.47618">
        <ele>218.84</ele>
        <time>2022-07-17T11:21:06Z</time>
      </trkpt>
      <trkpt lat="46.8626" lon="5.47617">
        <ele>218.84</ele>
        <time>2022-07-17T11:21:07Z</time>
      </trkpt>
      <trkpt lat="46.86296" lon="5.47609">
        <ele>218.36</ele>
        <time>2022-07-17T11:21:20Z</time>
      </trkpt>
      <trkpt lat="46.86361" lon="5.47606">
        <ele>218.36</ele>
        <time>2022-07-17T11:21:36Z</time>
      </trkpt>
      <trkpt lat="46.86407" lon="5.47608">
        <ele>218.36</ele>
        <time>2022-07-17T11:21:48Z</time>
      </trkpt>
      <trkpt lat="46.8645" lon="5.47608">
        <ele>218.36</ele>
        <time>2022-07-17T11:22:03Z</time>
      </trkpt>
      <trkpt lat="46.86494" lon="5.47601">
        <ele>217.4</ele>
        <time>2022-07-17T11:22:16Z</time>
      </trkpt>
      <trkpt lat="46.86549" lon="5.47594">
        <ele>215.95</ele>
        <time>2022-07-17T11:22:30Z</time>
      </trkpt>
      <trkpt lat="46.86601" lon="5.47583">
        <ele>216.43</ele>
        <time>2022-07-17T11:22:42Z</time>
      </trkpt>
      <trkpt lat="46.86648" lon="5.47559">
        <ele>215.95</ele>
        <time>2022-07-17T11:22:54Z</time>
      </trkpt>
      <trkpt lat="46.86695" lon="5.47531">
        <ele>214.99</ele>
        <time>2022-07-17T11:23:05Z</time>
      </trkpt>
      <trkpt lat="46.86722" lon="5.47515">
        <ele>214.99</ele>
        <time>2022-07-17T11:23:11Z</time>
      </trkpt>
      <trkpt lat="46.86752" lon="5.47484">
        <ele>214.99</ele>
        <time>2022-07-17T11:23:19Z</time>
      </trkpt>
      <trkpt lat="46.86796" lon="5.47431">
        <ele>214.51</ele>
        <time>2022-07-17T11:23:30Z</time>
      </trkpt>
      <trkpt lat="46.86847" lon="5.47362">
        <ele>214.51</ele>
        <time>2022-07-17T11:23:45Z</time>
      </trkpt>
      <trkpt lat="46.86859" lon="5.47345">
        <ele>214.51</ele>
        <time>2022-07-17T11:23:49Z</time>
      </trkpt>
      <trkpt lat="46.8687" lon="5.47323">
        <ele>214.51</ele>
        <time>2022-07-17T11:23:53Z</time>
      </trkpt>
      <trkpt lat="46.869" lon="5.47276">
        <ele>214.51</ele>
        <time>2022-07-17T11:24:03Z</time>
      </trkpt>
      <trkpt lat="46.86903" lon="5.47271">
        <ele>214.03</ele>
        <time>2022-07-17T11:24:04Z</time>
      </trkpt>
      <trkpt lat="46.86906" lon="5.47266">
        <ele>214.03</ele>
        <time>2022-07-17T11:24:05Z</time>
      </trkpt>
      <trkpt lat="46.86944" lon="5.4721">
        <ele>213.55</ele>
        <time>2022-07-17T11:24:17Z</time>
      </trkpt>
      <trkpt lat="46.8696" lon="5.47188">
        <ele>213.55</ele>
        <time>2022-07-17T11:24:22Z</time>
      </trkpt>
      <trkpt lat="46.86963" lon="5.47184">
        <ele>213.55</ele>
        <time>2022-07-17T11:24:23Z</time>
      </trkpt>
      <trkpt lat="46.87009" lon="5.47127">
        <ele>213.55</ele>
        <time>2022-07-17T11:24:37Z</time>
      </trkpt>
      <trkpt lat="46.87019" lon="5.47115">
        <ele>213.55</ele>
        <time>2022-07-17T11:24:40Z</time>
      </trkpt>
      <trkpt lat="46.87022" lon="5.47111">
        <ele>213.55</ele>
        <time>2022-07-17T11:24:41Z</time>
      </trkpt>
      <trkpt lat="46.87026" lon="5.47106">
        <ele>213.07</ele>
        <time>2022-07-17T11:24:42Z</time>
      </trkpt>
      <trkpt lat="46.87067" lon="5.47061">
        <ele>213.07</ele>
        <time>2022-07-17T11:24:55Z</time>
      </trkpt>
      <trkpt lat="46.87114" lon="5.47023">
        <ele>213.55</ele>
        <time>2022-07-17T11:25:06Z</time>
      </trkpt>
      <trkpt lat="46.87178" lon="5.46984">
        <ele>212.59</ele>
        <time>2022-07-17T11:25:22Z</time>
      </trkpt>
      <trkpt lat="46.87243" lon="5.46963">
        <ele>212.59</ele>
        <time>2022-07-17T11:25:37Z</time>
      </trkpt>
      <trkpt lat="46.87303" lon="5.4696">
        <ele>213.07</ele>
        <time>2022-07-17T11:25:51Z</time>
      </trkpt>
      <trkpt lat="46.87364" lon="5.46978">
        <ele>213.55</ele>
        <time>2022-07-17T11:26:04Z</time>
      </trkpt>
      <trkpt lat="46.87372" lon="5.46979">
        <ele>213.55</ele>
        <time>2022-07-17T11:26:06Z</time>
      </trkpt>
      <trkpt lat="46.87414" lon="5.46984">
        <ele>213.55</ele>
        <time>2022-07-17T11:26:18Z</time>
      </trkpt>
      <trkpt lat="46.87452" lon="5.46991">
        <ele>214.03</ele>
        <time>2022-07-17T11:26:29Z</time>
      </trkpt>
      <trkpt lat="46.87504" lon="5.47">
        <ele>214.03</ele>
        <time>2022-07-17T11:26:41Z</time>
      </trkpt>
      <trkpt lat="46.87584" lon="5.4702">
        <ele>214.99</ele>
        <time>2022-07-17T11:26:59Z</time>
      </trkpt>
      <trkpt lat="46.87643" lon="5.47033">
        <ele>214.99</ele>
        <time>2022-07-17T11:27:14Z</time>
      </trkpt>
      <trkpt lat="46.87705" lon="5.47049">
        <ele>215.95</ele>
        <time>2022-07-17T11:27:28Z</time>
      </trkpt>
      <trkpt lat="46.87773" lon="5.47063">
        <ele>216.43</ele>
        <time>2022-07-17T11:27:45Z</time>
      </trkpt>
      <trkpt lat="46.87826" lon="5.4707">
        <ele>216.91</ele>
        <time>2022-07-17T11:27:59Z</time>
      </trkpt>
      <trkpt lat="46.87879" lon="5.47076">
        <ele>217.4</ele>
        <time>2022-07-17T11:28:13Z</time>
      </trkpt>
      <trkpt lat="46.87928" lon="5.47076">
        <ele>217.4</ele>
        <time>2022-07-17T11:28:26Z</time>
      </trkpt>
      <trkpt lat="46.88002" lon="5.47095">
        <ele>217.4</ele>
        <time>2022-07-17T11:28:44Z</time>
      </trkpt>
      <trkpt lat="46.88054" lon="5.47096">
        <ele>217.88</ele>
        <time>2022-07-17T11:28:58Z</time>
      </trkpt>
      <trkpt lat="46.88109" lon="5.47103">
        <ele>217.88</ele>
        <time>2022-07-17T11:29:12Z</time>
      </trkpt>
      <trkpt lat="46.88177" lon="5.47115">
        <ele>217.88</ele>
        <time>2022-07-17T11:29:28Z</time>
      </trkpt>
      <trkpt lat="46.88237" lon="5.47127">
        <ele>218.36</ele>
        <time>2022-07-17T11:29:44Z</time>
      </trkpt>
      <trkpt lat="46.88304" lon="5.47157">
        <ele>218.36</ele>
        <time>2022-07-17T11:30:01Z</time>
      </trkpt>
      <trkpt lat="46.88319" lon="5.47185">
        <ele>218.84</ele>
        <time>2022-07-17T11:30:10Z</time>
      </trkpt>
      <trkpt lat="46.88306" lon="5.47259">
        <ele>216.43</ele>
        <time>2022-07-17T11:30:22Z</time>
      </trkpt>
      <trkpt lat="46.88282" lon="5.47356">
        <ele>215.95</ele>
        <time>2022-07-17T11:30:38Z</time>
      </trkpt>
      <trkpt lat="46.88277" lon="5.47427">
        <ele>218.36</ele>
        <time>2022-07-17T11:30:54Z</time>
      </trkpt>
      <trkpt lat="46.88279" lon="5.47479">
        <ele>220.28</ele>
        <time>2022-07-17T11:31:10Z</time>
      </trkpt>
      <trkpt lat="46.88283" lon="5.47526">
        <ele>222.68</ele>
        <time>2022-07-17T11:31:26Z</time>
      </trkpt>
      <trkpt lat="46.88289" lon="5.47582">
        <ele>224.12</ele>
        <time>2022-07-17T11:31:42Z</time>
      </trkpt>
      <trkpt lat="46.88285" lon="5.47636">
        <ele>225.57</ele>
        <time>2022-07-17T11:31:58Z</time>
      </trkpt>
      <trkpt lat="46.88278" lon="5.47718">
        <ele>224.61</ele>
        <time>2022-07-17T11:32:15Z</time>
      </trkpt>
      <trkpt lat="46.88269" lon="5.47828">
        <ele>224.61</ele>
        <time>2022-07-17T11:32:34Z</time>
      </trkpt>
      <trkpt lat="46.88264" lon="5.47899">
        <ele>222.68</ele>
        <time>2022-07-17T11:32:46Z</time>
      </trkpt>
      <trkpt lat="46.88265" lon="5.47925">
        <ele>221.24</ele>
        <time>2022-07-17T11:32:49Z</time>
      </trkpt>
      <trkpt lat="46.88277" lon="5.47995">
        <ele>218.36</ele>
        <time>2022-07-17T11:32:56Z</time>
      </trkpt>
      <trkpt lat="46.88278" lon="5.48006">
        <ele>217.88</ele>
        <time>2022-07-17T11:32:57Z</time>
      </trkpt>
      <trkpt lat="46.88278" lon="5.48016">
        <ele>217.88</ele>
        <time>2022-07-17T11:32:58Z</time>
      </trkpt>
      <trkpt lat="46.88276" lon="5.48026">
        <ele>217.88</ele>
        <time>2022-07-17T11:32:59Z</time>
      </trkpt>
      <trkpt lat="46.88274" lon="5.48036">
        <ele>217.88</ele>
        <time>2022-07-17T11:33:00Z</time>
      </trkpt>
      <trkpt lat="46.88271" lon="5.48046">
        <ele>217.4</ele>
        <time>2022-07-17T11:33:01Z</time>
      </trkpt>
      <trkpt lat="46.88268" lon="5.48056">
        <ele>217.88</ele>
        <time>2022-07-17T11:33:02Z</time>
      </trkpt>
      <trkpt lat="46.88263" lon="5.48064">
        <ele>217.88</ele>
        <time>2022-07-17T11:33:03Z</time>
      </trkpt>
      <trkpt lat="46.88258" lon="5.4807">
        <ele>217.4</ele>
        <time>2022-07-17T11:33:04Z</time>
      </trkpt>
      <trkpt lat="46.88252" lon="5.48076">
        <ele>217.4</ele>
        <time>2022-07-17T11:33:05Z</time>
      </trkpt>
      <trkpt lat="46.88246" lon="5.4808">
        <ele>217.4</ele>
        <time>2022-07-17T11:33:06Z</time>
      </trkpt>
      <trkpt lat="46.88223" lon="5.48098">
        <ele>217.4</ele>
        <time>2022-07-17T11:33:10Z</time>
      </trkpt>
      <trkpt lat="46.88201" lon="5.48119">
        <ele>217.4</ele>
        <time>2022-07-17T11:33:14Z</time>
      </trkpt>
      <trkpt lat="46.88195" lon="5.48123">
        <ele>216.91</ele>
        <time>2022-07-17T11:33:15Z</time>
      </trkpt>
      <trkpt lat="46.88189" lon="5.48125">
        <ele>216.43</ele>
        <time>2022-07-17T11:33:16Z</time>
      </trkpt>
      <trkpt lat="46.88183" lon="5.48125">
        <ele>216.91</ele>
        <time>2022-07-17T11:33:17Z</time>
      </trkpt>
      <trkpt lat="46.88179" lon="5.48125">
        <ele>216.91</ele>
        <time>2022-07-17T11:33:18Z</time>
      </trkpt>
      <trkpt lat="46.88173" lon="5.48124">
        <ele>216.43</ele>
        <time>2022-07-17T11:33:19Z</time>
      </trkpt>
      <trkpt lat="46.88168" lon="5.48123">
        <ele>216.43</ele>
        <time>2022-07-17T11:33:20Z</time>
      </trkpt>
      <trkpt lat="46.88162" lon="5.48123">
        <ele>216.91</ele>
        <time>2022-07-17T11:33:21Z</time>
      </trkpt>
      <trkpt lat="46.88157" lon="5.48123">
        <ele>215.95</ele>
        <time>2022-07-17T11:33:22Z</time>
      </trkpt>
      <trkpt lat="46.88151" lon="5.48124">
        <ele>216.91</ele>
        <time>2022-07-17T11:33:23Z</time>
      </trkpt>
      <trkpt lat="46.88146" lon="5.48126">
        <ele>216.43</ele>
        <time>2022-07-17T11:33:24Z</time>
      </trkpt>
      <trkpt lat="46.88094" lon="5.48146">
        <ele>216.43</ele>
        <time>2022-07-17T11:33:35Z</time>
      </trkpt>
      <trkpt lat="46.88018" lon="5.48132">
        <ele>216.43</ele>
        <time>2022-07-17T11:33:51Z</time>
      </trkpt>
      <trkpt lat="46.87985" lon="5.48131">
        <ele>216.91</ele>
        <time>2022-07-17T11:33:58Z</time>
      </trkpt>
      <trkpt lat="46.8798" lon="5.48133">
        <ele>217.4</ele>
        <time>2022-07-17T11:33:59Z</time>
      </trkpt>
      <trkpt lat="46.87966" lon="5.48141">
        <ele>217.4</ele>
        <time>2022-07-17T11:34:02Z</time>
      </trkpt>
      <trkpt lat="46.87962" lon="5.48144">
        <ele>216.91</ele>
        <time>2022-07-17T11:34:03Z</time>
      </trkpt>
      <trkpt lat="46.87915" lon="5.48176">
        <ele>219.32</ele>
        <time>2022-07-17T11:34:17Z</time>
      </trkpt>
      <trkpt lat="46.87869" lon="5.482">
        <ele>220.76</ele>
        <time>2022-07-17T11:34:34Z</time>
      </trkpt>
      <trkpt lat="46.87835" lon="5.48272">
        <ele>220.76</ele>
        <time>2022-07-17T11:34:51Z</time>
      </trkpt>
      <trkpt lat="46.87796" lon="5.48358">
        <ele>220.76</ele>
        <time>2022-07-17T11:35:10Z</time>
      </trkpt>
      <trkpt lat="46.8779" lon="5.48375">
        <ele>220.76</ele>
        <time>2022-07-17T11:35:14Z</time>
      </trkpt>
      <trkpt lat="46.8779" lon="5.4838">
        <ele>221.24</ele>
        <time>2022-07-17T11:35:15Z</time>
      </trkpt>
      <trkpt lat="46.87792" lon="5.48384">
        <ele>221.24</ele>
        <time>2022-07-17T11:35:16Z</time>
      </trkpt>
      <trkpt lat="46.87793" lon="5.48388">
        <ele>220.28</ele>
        <time>2022-07-17T11:35:17Z</time>
      </trkpt>
      <trkpt lat="46.87795" lon="5.48394">
        <ele>220.76</ele>
        <time>2022-07-17T11:35:18Z</time>
      </trkpt>
      <trkpt lat="46.87795" lon="5.48399">
        <ele>219.8</ele>
        <time>2022-07-17T11:35:19Z</time>
      </trkpt>
      <trkpt lat="46.87799" lon="5.48466">
        <ele>221.72</ele>
        <time>2022-07-17T11:35:32Z</time>
      </trkpt>
      <trkpt lat="46.878" lon="5.48498">
        <ele>221.72</ele>
        <time>2022-07-17T11:35:38Z</time>
      </trkpt>
      <trkpt lat="46.87803" lon="5.4853">
        <ele>221.24</ele>
        <time>2022-07-17T11:35:43Z</time>
      </trkpt>
      <trkpt lat="46.87814" lon="5.48636">
        <ele>222.2</ele>
        <time>2022-07-17T11:36:02Z</time>
      </trkpt>
      <trkpt lat="46.8781" lon="5.48698">
        <ele>224.12</ele>
        <time>2022-07-17T11:36:18Z</time>
      </trkpt>
      <trkpt lat="46.87791" lon="5.48776">
        <ele>223.64</ele>
        <time>2022-07-17T11:36:33Z</time>
      </trkpt>
      <trkpt lat="46.87773" lon="5.48847">
        <ele>222.68</ele>
        <time>2022-07-17T11:36:43Z</time>
      </trkpt>
      <trkpt lat="46.87737" lon="5.48976">
        <ele>220.28</ele>
        <time>2022-07-17T11:37:02Z</time>
      </trkpt>
      <trkpt lat="46.87691" lon="5.4907">
        <ele>221.24</ele>
        <time>2022-07-17T11:37:16Z</time>
      </trkpt>
      <trkpt lat="46.87671" lon="5.49145">
        <ele>223.16</ele>
        <time>2022-07-17T11:37:29Z</time>
      </trkpt>
      <trkpt lat="46.87648" lon="5.49216">
        <ele>225.09</ele>
        <time>2022-07-17T11:37:43Z</time>
      </trkpt>
      <trkpt lat="46.87625" lon="5.49297">
        <ele>222.68</ele>
        <time>2022-07-17T11:37:56Z</time>
      </trkpt>
      <trkpt lat="46.87623" lon="5.49305">
        <ele>222.68</ele>
        <time>2022-07-17T11:37:57Z</time>
      </trkpt>
      <trkpt lat="46.87621" lon="5.49313">
        <ele>222.68</ele>
        <time>2022-07-17T11:37:58Z</time>
      </trkpt>
      <trkpt lat="46.87609" lon="5.49392">
        <ele>222.2</ele>
        <time>2022-07-17T11:38:07Z</time>
      </trkpt>
      <trkpt lat="46.87594" lon="5.49501">
        <ele>222.2</ele>
        <time>2022-07-17T11:38:21Z</time>
      </trkpt>
      <trkpt lat="46.87583" lon="5.49609">
        <ele>224.12</ele>
        <time>2022-07-17T11:38:37Z</time>
      </trkpt>
      <trkpt lat="46.87573" lon="5.49705">
        <ele>225.09</ele>
        <time>2022-07-17T11:38:53Z</time>
      </trkpt>
      <trkpt lat="46.87571" lon="5.49745">
        <ele>226.05</ele>
        <time>2022-07-17T11:38:59Z</time>
      </trkpt>
      <trkpt lat="46.87571" lon="5.49752">
        <ele>226.05</ele>
        <time>2022-07-17T11:39:00Z</time>
      </trkpt>
      <trkpt lat="46.87571" lon="5.49758">
        <ele>225.57</ele>
        <time>2022-07-17T11:39:01Z</time>
      </trkpt>
      <trkpt lat="46.87571" lon="5.49765">
        <ele>225.57</ele>
        <time>2022-07-17T11:39:02Z</time>
      </trkpt>
      <trkpt lat="46.8757" lon="5.49772">
        <ele>225.57</ele>
        <time>2022-07-17T11:39:03Z</time>
      </trkpt>
      <trkpt lat="46.8757" lon="5.49778">
        <ele>226.05</ele>
        <time>2022-07-17T11:39:04Z</time>
      </trkpt>
      <trkpt lat="46.87562" lon="5.49865">
        <ele>226.05</ele>
        <time>2022-07-17T11:39:18Z</time>
      </trkpt>
      <trkpt lat="46.8755" lon="5.49952">
        <ele>227.49</ele>
        <time>2022-07-17T11:39:33Z</time>
      </trkpt>
      <trkpt lat="46.87548" lon="5.50052">
        <ele>227.97</ele>
        <time>2022-07-17T11:39:47Z</time>
      </trkpt>
      <trkpt lat="46.87537" lon="5.50143">
        <ele>227.49</ele>
        <time>2022-07-17T11:40:03Z</time>
      </trkpt>
      <trkpt lat="46.87535" lon="5.50167">
        <ele>227.49</ele>
        <time>2022-07-17T11:40:11Z</time>
      </trkpt>
      <trkpt lat="46.87535" lon="5.50183">
        <ele>227.49</ele>
        <time>2022-07-17T11:40:23Z</time>
      </trkpt>
      <trkpt lat="46.87533" lon="5.50205">
        <ele>227.97</ele>
        <time>2022-07-17T11:40:39Z</time>
      </trkpt>
      <trkpt lat="46.87526" lon="5.50264">
        <ele>227.97</ele>
        <time>2022-07-17T11:40:52Z</time>
      </trkpt>
      <trkpt lat="46.87516" lon="5.50354">
        <ele>228.45</ele>
        <time>2022-07-17T11:41:08Z</time>
      </trkpt>
      <trkpt lat="46.87507" lon="5.50477">
        <ele>229.89</ele>
        <time>2022-07-17T11:41:26Z</time>
      </trkpt>
      <trkpt lat="46.87495" lon="5.5059">
        <ele>231.33</ele>
        <time>2022-07-17T11:41:45Z</time>
      </trkpt>
      <trkpt lat="46.87489" lon="5.50633">
        <ele>231.81</ele>
        <time>2022-07-17T11:41:53Z</time>
      </trkpt>
      <trkpt lat="46.87481" lon="5.50742">
        <ele>229.41</ele>
        <time>2022-07-17T11:42:07Z</time>
      </trkpt>
      <trkpt lat="46.87471" lon="5.50801">
        <ele>227.01</ele>
        <time>2022-07-17T11:42:13Z</time>
      </trkpt>
      <trkpt lat="46.87454" lon="5.50858">
        <ele>223.64</ele>
        <time>2022-07-17T11:42:18Z</time>
      </trkpt>
      <trkpt lat="46.87403" lon="5.51011">
        <ele>221.24</ele>
        <time>2022-07-17T11:42:31Z</time>
      </trkpt>
      <trkpt lat="46.87364" lon="5.51114">
        <ele>220.76</ele>
        <time>2022-07-17T11:42:46Z</time>
      </trkpt>
      <trkpt lat="46.87324" lon="5.51226">
        <ele>221.72</ele>
        <time>2022-07-17T11:43:04Z</time>
      </trkpt>
      <trkpt lat="46.87293" lon="5.51303">
        <ele>224.12</ele>
        <time>2022-07-17T11:43:20Z</time>
      </trkpt>
      <trkpt lat="46.87276" lon="5.5136">
        <ele>226.05</ele>
        <time>2022-07-17T11:43:36Z</time>
      </trkpt>
      <trkpt lat="46.87258" lon="5.51423">
        <ele>228.93</ele>
        <time>2022-07-17T11:43:53Z</time>
      </trkpt>
      <trkpt lat="46.87236" lon="5.51483">
        <ele>231.33</ele>
        <time>2022-07-17T11:44:10Z</time>
      </trkpt>
      <trkpt lat="46.87217" lon="5.51552">
        <ele>231.33</ele>
        <time>2022-07-17T11:44:24Z</time>
      </trkpt>
      <trkpt lat="46.8721" lon="5.51587">
        <ele>231.81</ele>
        <time>2022-07-17T11:44:31Z</time>
      </trkpt>
      <trkpt lat="46.87211" lon="5.51586">
        <ele>231.81</ele>
        <time>2022-07-17T11:44:32Z</time>
      </trkpt>
      <trkpt lat="46.87213" lon="5.51578">
        <ele>230.85</ele>
        <time>2022-07-17T11:44:40Z</time>
      </trkpt>
      <trkpt lat="46.87213" lon="5.51586">
        <ele>230.85</ele>
        <time>2022-07-17T11:44:44Z</time>
      </trkpt>
      <trkpt lat="46.87212" lon="5.51589">
        <ele>230.85</ele>
        <time>2022-07-17T11:44:45Z</time>
      </trkpt>
      <trkpt lat="46.87203" lon="5.51657">
        <ele>229.41</ele>
        <time>2022-07-17T11:45:03Z</time>
      </trkpt>
      <trkpt lat="46.87195" lon="5.51744">
        <ele>227.49</ele>
        <time>2022-07-17T11:45:16Z</time>
      </trkpt>
      <trkpt lat="46.8719" lon="5.5182">
        <ele>227.49</ele>
        <time>2022-07-17T11:45:30Z</time>
      </trkpt>
      <trkpt lat="46.87198" lon="5.51888">
        <ele>227.49</ele>
        <time>2022-07-17T11:45:44Z</time>
      </trkpt>
      <trkpt lat="46.87209" lon="5.51966">
        <ele>227.49</ele>
        <time>2022-07-17T11:46:00Z</time>
      </trkpt>
      <trkpt lat="46.87206" lon="5.52072">
        <ele>225.57</ele>
        <time>2022-07-17T11:46:20Z</time>
      </trkpt>
      <trkpt lat="46.87201" lon="5.5218">
        <ele>227.01</ele>
        <time>2022-07-17T11:46:37Z</time>
      </trkpt>
      <trkpt lat="46.872" lon="5.52256">
        <ele>227.01</ele>
        <time>2022-07-17T11:46:52Z</time>
      </trkpt>
      <trkpt lat="46.87198" lon="5.52259">
        <ele>227.01</ele>
        <time>2022-07-17T11:46:53Z</time>
      </trkpt>
      <trkpt lat="46.87195" lon="5.52261">
        <ele>227.49</ele>
        <time>2022-07-17T11:46:54Z</time>
      </trkpt>
      <trkpt lat="46.87193" lon="5.52262">
        <ele>227.97</ele>
        <time>2022-07-17T11:46:55Z</time>
      </trkpt>
      <trkpt lat="46.8719" lon="5.52261">
        <ele>227.97</ele>
        <time>2022-07-17T11:46:56Z</time>
      </trkpt>
      <trkpt lat="46.87187" lon="5.5226">
        <ele>227.97</ele>
        <time>2022-07-17T11:46:57Z</time>
      </trkpt>
      <trkpt lat="46.87184" lon="5.52258">
        <ele>227.49</ele>
        <time>2022-07-17T11:46:58Z</time>
      </trkpt>
      <trkpt lat="46.87181" lon="5.52256">
        <ele>227.49</ele>
        <time>2022-07-17T11:46:59Z</time>
      </trkpt>
      <trkpt lat="46.87164" lon="5.52247">
        <ele>227.01</ele>
        <time>2022-07-17T11:47:03Z</time>
      </trkpt>
      <trkpt lat="46.87153" lon="5.52245">
        <ele>226.05</ele>
        <time>2022-07-17T11:47:05Z</time>
      </trkpt>
      <trkpt lat="46.87061" lon="5.52262">
        <ele>223.16</ele>
        <time>2022-07-17T11:47:19Z</time>
      </trkpt>
      <trkpt lat="46.87006" lon="5.52267">
        <ele>223.16</ele>
        <time>2022-07-17T11:47:27Z</time>
      </trkpt>
      <trkpt lat="46.86965" lon="5.52252">
        <ele>222.68</ele>
        <time>2022-07-17T11:47:34Z</time>
      </trkpt>
      <trkpt lat="46.86939" lon="5.52242">
        <ele>222.68</ele>
        <time>2022-07-17T11:47:39Z</time>
      </trkpt>
      <trkpt lat="46.86933" lon="5.5224">
        <ele>222.68</ele>
        <time>2022-07-17T11:47:40Z</time>
      </trkpt>
      <trkpt lat="46.86927" lon="5.52238">
        <ele>223.16</ele>
        <time>2022-07-17T11:47:41Z</time>
      </trkpt>
      <trkpt lat="46.86922" lon="5.52234">
        <ele>222.68</ele>
        <time>2022-07-17T11:47:42Z</time>
      </trkpt>
      <trkpt lat="46.86917" lon="5.52229">
        <ele>222.68</ele>
        <time>2022-07-17T11:47:43Z</time>
      </trkpt>
      <trkpt lat="46.86912" lon="5.52223">
        <ele>221.72</ele>
        <time>2022-07-17T11:47:44Z</time>
      </trkpt>
      <trkpt lat="46.8691" lon="5.52215">
        <ele>222.2</ele>
        <time>2022-07-17T11:47:45Z</time>
      </trkpt>
      <trkpt lat="46.86908" lon="5.52207">
        <ele>222.2</ele>
        <time>2022-07-17T11:47:46Z</time>
      </trkpt>
      <trkpt lat="46.86906" lon="5.52199">
        <ele>222.2</ele>
        <time>2022-07-17T11:47:47Z</time>
      </trkpt>
      <trkpt lat="46.86905" lon="5.52191">
        <ele>222.68</ele>
        <time>2022-07-17T11:47:48Z</time>
      </trkpt>
      <trkpt lat="46.86904" lon="5.52182">
        <ele>222.68</ele>
        <time>2022-07-17T11:47:49Z</time>
      </trkpt>
      <trkpt lat="46.86904" lon="5.52174">
        <ele>222.68</ele>
        <time>2022-07-17T11:47:50Z</time>
      </trkpt>
      <trkpt lat="46.86901" lon="5.52098">
        <ele>224.12</ele>
        <time>2022-07-17T11:47:59Z</time>
      </trkpt>
      <trkpt lat="46.86894" lon="5.5204">
        <ele>223.64</ele>
        <time>2022-07-17T11:48:06Z</time>
      </trkpt>
      <trkpt lat="46.86904" lon="5.51961">
        <ele>225.09</ele>
        <time>2022-07-17T11:48:19Z</time>
      </trkpt>
      <trkpt lat="46.86917" lon="5.51895">
        <ele>227.97</ele>
        <time>2022-07-17T11:48:34Z</time>
      </trkpt>
      <trkpt lat="46.86918" lon="5.51883">
        <ele>227.01</ele>
        <time>2022-07-17T11:48:36Z</time>
      </trkpt>
      <trkpt lat="46.86918" lon="5.51876">
        <ele>227.01</ele>
        <time>2022-07-17T11:48:37Z</time>
      </trkpt>
      <trkpt lat="46.86918" lon="5.51869">
        <ele>227.01</ele>
        <time>2022-07-17T11:48:38Z</time>
      </trkpt>
      <trkpt lat="46.86917" lon="5.5186">
        <ele>226.05</ele>
        <time>2022-07-17T11:48:39Z</time>
      </trkpt>
      <trkpt lat="46.86914" lon="5.51853">
        <ele>225.57</ele>
        <time>2022-07-17T11:48:40Z</time>
      </trkpt>
      <trkpt lat="46.86911" lon="5.51845">
        <ele>225.09</ele>
        <time>2022-07-17T11:48:41Z</time>
      </trkpt>
      <trkpt lat="46.86907" lon="5.51838">
        <ele>225.09</ele>
        <time>2022-07-17T11:48:42Z</time>
      </trkpt>
      <trkpt lat="46.86902" lon="5.51832">
        <ele>224.61</ele>
        <time>2022-07-17T11:48:43Z</time>
      </trkpt>
      <trkpt lat="46.86897" lon="5.51825">
        <ele>224.61</ele>
        <time>2022-07-17T11:48:44Z</time>
      </trkpt>
      <trkpt lat="46.86888" lon="5.51812">
        <ele>224.61</ele>
        <time>2022-07-17T11:48:46Z</time>
      </trkpt>
      <trkpt lat="46.86884" lon="5.51804">
        <ele>224.12</ele>
        <time>2022-07-17T11:48:47Z</time>
      </trkpt>
      <trkpt lat="46.8688" lon="5.51795">
        <ele>223.64</ele>
        <time>2022-07-17T11:48:48Z</time>
      </trkpt>
      <trkpt lat="46.86878" lon="5.51786">
        <ele>224.12</ele>
        <time>2022-07-17T11:48:49Z</time>
      </trkpt>
      <trkpt lat="46.86876" lon="5.51776">
        <ele>224.12</ele>
        <time>2022-07-17T11:48:50Z</time>
      </trkpt>
      <trkpt lat="46.86875" lon="5.51767">
        <ele>224.61</ele>
        <time>2022-07-17T11:48:51Z</time>
      </trkpt>
      <trkpt lat="46.86874" lon="5.51757">
        <ele>224.61</ele>
        <time>2022-07-17T11:48:52Z</time>
      </trkpt>
      <trkpt lat="46.86874" lon="5.51748">
        <ele>225.57</ele>
        <time>2022-07-17T11:48:53Z</time>
      </trkpt>
      <trkpt lat="46.86874" lon="5.51738">
        <ele>226.53</ele>
        <time>2022-07-17T11:48:54Z</time>
      </trkpt>
      <trkpt lat="46.86874" lon="5.51729">
        <ele>225.57</ele>
        <time>2022-07-17T11:48:55Z</time>
      </trkpt>
      <trkpt lat="46.86875" lon="5.51712">
        <ele>223.64</ele>
        <time>2022-07-17T11:48:57Z</time>
      </trkpt>
      <trkpt lat="46.8688" lon="5.51598">
        <ele>223.64</ele>
        <time>2022-07-17T11:49:14Z</time>
      </trkpt>
      <trkpt lat="46.86881" lon="5.51509">
        <ele>227.01</ele>
        <time>2022-07-17T11:49:32Z</time>
      </trkpt>
      <trkpt lat="46.8688" lon="5.51497">
        <ele>227.97</ele>
        <time>2022-07-17T11:49:34Z</time>
      </trkpt>
      <trkpt lat="46.86875" lon="5.51471">
        <ele>226.53</ele>
        <time>2022-07-17T11:49:38Z</time>
      </trkpt>
      <trkpt lat="46.8686" lon="5.51425">
        <ele>226.53</ele>
        <time>2022-07-17T11:49:44Z</time>
      </trkpt>
      <trkpt lat="46.86856" lon="5.51417">
        <ele>227.01</ele>
        <time>2022-07-17T11:49:45Z</time>
      </trkpt>
      <trkpt lat="46.86837" lon="5.5139">
        <ele>223.16</ele>
        <time>2022-07-17T11:49:49Z</time>
      </trkpt>
      <trkpt lat="46.86832" lon="5.51384">
        <ele>223.16</ele>
        <time>2022-07-17T11:49:50Z</time>
      </trkpt>
      <trkpt lat="46.86757" lon="5.51314">
        <ele>220.28</ele>
        <time>2022-07-17T11:50:02Z</time>
      </trkpt>
      <trkpt lat="46.86752" lon="5.51306">
        <ele>220.76</ele>
        <time>2022-07-17T11:50:03Z</time>
      </trkpt>
      <trkpt lat="46.86746" lon="5.51297">
        <ele>219.32</ele>
        <time>2022-07-17T11:50:04Z</time>
      </trkpt>
      <trkpt lat="46.86689" lon="5.51157">
        <ele>218.36</ele>
        <time>2022-07-17T11:50:18Z</time>
      </trkpt>
      <trkpt lat="46.86666" lon="5.51054">
        <ele>217.88</ele>
        <time>2022-07-17T11:50:31Z</time>
      </trkpt>
      <trkpt lat="46.86647" lon="5.50984">
        <ele>218.36</ele>
        <time>2022-07-17T11:50:45Z</time>
      </trkpt>
      <trkpt lat="46.86639" lon="5.50938">
        <ele>218.36</ele>
        <time>2022-07-17T11:50:59Z</time>
      </trkpt>
      <trkpt lat="46.86633" lon="5.50917">
        <ele>217.88</ele>
        <time>2022-07-17T11:51:14Z</time>
      </trkpt>
      <trkpt lat="46.86632" lon="5.50909">
        <ele>217.88</ele>
        <time>2022-07-17T11:51:44Z</time>
      </trkpt>
      <trkpt lat="46.86632" lon="5.50908">
        <ele>217.88</ele>
        <time>2022-07-17T11:51:45Z</time>
      </trkpt>
      <trkpt lat="46.86632" lon="5.50905">
        <ele>217.88</ele>
        <time>2022-07-17T11:51:46Z</time>
      </trkpt>
      <trkpt lat="46.86632" lon="5.50902">
        <ele>217.88</ele>
        <time>2022-07-17T11:51:47Z</time>
      </trkpt>
      <trkpt lat="46.86632" lon="5.509">
        <ele>217.88</ele>
        <time>2022-07-17T11:51:48Z</time>
      </trkpt>
      <trkpt lat="46.86627" lon="5.50859">
        <ele>219.8</ele>
        <time>2022-07-17T11:51:59Z</time>
      </trkpt>
      <trkpt lat="46.86621" lon="5.50793">
        <ele>223.16</ele>
        <time>2022-07-17T11:52:13Z</time>
      </trkpt>
      <trkpt lat="46.86617" lon="5.50741">
        <ele>224.12</ele>
        <time>2022-07-17T11:52:26Z</time>
      </trkpt>
      <trkpt lat="46.86611" lon="5.50665">
        <ele>225.57</ele>
        <time>2022-07-17T11:52:43Z</time>
      </trkpt>
      <trkpt lat="46.86607" lon="5.50588">
        <ele>226.05</ele>
        <time>2022-07-17T11:52:58Z</time>
      </trkpt>
      <trkpt lat="46.86603" lon="5.50494">
        <ele>226.53</ele>
        <time>2022-07-17T11:53:15Z</time>
      </trkpt>
      <trkpt lat="46.86598" lon="5.50398">
        <ele>226.05</ele>
        <time>2022-07-17T11:53:30Z</time>
      </trkpt>
      <trkpt lat="46.86591" lon="5.50283">
        <ele>227.01</ele>
        <time>2022-07-17T11:53:47Z</time>
      </trkpt>
      <trkpt lat="46.86583" lon="5.50168">
        <ele>228.45</ele>
        <time>2022-07-17T11:54:05Z</time>
      </trkpt>
      <trkpt lat="46.86579" lon="5.50044">
        <ele>229.89</ele>
        <time>2022-07-17T11:54:24Z</time>
      </trkpt>
      <trkpt lat="46.86574" lon="5.49926">
        <ele>229.41</ele>
        <time>2022-07-17T11:54:40Z</time>
      </trkpt>
      <trkpt lat="46.86607" lon="5.49818">
        <ele>227.49</ele>
        <time>2022-07-17T11:54:55Z</time>
      </trkpt>
      <trkpt lat="46.86633" lon="5.4976">
        <ele>224.12</ele>
        <time>2022-07-17T11:55:02Z</time>
      </trkpt>
      <trkpt lat="46.86637" lon="5.49751">
        <ele>224.12</ele>
        <time>2022-07-17T11:55:03Z</time>
      </trkpt>
      <trkpt lat="46.86662" lon="5.49676">
        <ele>220.76</ele>
        <time>2022-07-17T11:55:10Z</time>
      </trkpt>
      <trkpt lat="46.86663" lon="5.49664">
        <ele>220.76</ele>
        <time>2022-07-17T11:55:11Z</time>
      </trkpt>
      <trkpt lat="46.8667" lon="5.49551">
        <ele>221.24</ele>
        <time>2022-07-17T11:55:23Z</time>
      </trkpt>
      <trkpt lat="46.8667" lon="5.49545">
        <ele>221.72</ele>
        <time>2022-07-17T11:55:24Z</time>
      </trkpt>
      <trkpt lat="46.86674" lon="5.49473">
        <ele>224.12</ele>
        <time>2022-07-17T11:55:39Z</time>
      </trkpt>
      <trkpt lat="46.86676" lon="5.49417">
        <ele>225.57</ele>
        <time>2022-07-17T11:55:56Z</time>
      </trkpt>
      <trkpt lat="46.8668" lon="5.49367">
        <ele>227.01</ele>
        <time>2022-07-17T11:56:11Z</time>
      </trkpt>
      <trkpt lat="46.86675" lon="5.49312">
        <ele>228.93</ele>
        <time>2022-07-17T11:56:26Z</time>
      </trkpt>
      <trkpt lat="46.86656" lon="5.49239">
        <ele>229.41</ele>
        <time>2022-07-17T11:56:43Z</time>
      </trkpt>
      <trkpt lat="46.86636" lon="5.49153">
        <ele>230.85</ele>
        <time>2022-07-17T11:57:00Z</time>
      </trkpt>
      <trkpt lat="46.86633" lon="5.4914">
        <ele>230.37</ele>
        <time>2022-07-17T11:57:02Z</time>
      </trkpt>
      <trkpt lat="46.86631" lon="5.49133">
        <ele>230.37</ele>
        <time>2022-07-17T11:57:03Z</time>
      </trkpt>
      <trkpt lat="46.86596" lon="5.49072">
        <ele>230.85</ele>
        <time>2022-07-17T11:57:17Z</time>
      </trkpt>
      <trkpt lat="46.86552" lon="5.49015">
        <ele>229.89</ele>
        <time>2022-07-17T11:57:32Z</time>
      </trkpt>
      <trkpt lat="46.8654" lon="5.49006">
        <ele>229.41</ele>
        <time>2022-07-17T11:57:35Z</time>
      </trkpt>
      <trkpt lat="46.86535" lon="5.49003">
        <ele>228.93</ele>
        <time>2022-07-17T11:57:36Z</time>
      </trkpt>
      <trkpt lat="46.86491" lon="5.48986">
        <ele>227.49</ele>
        <time>2022-07-17T11:57:45Z</time>
      </trkpt>
      <trkpt lat="46.86486" lon="5.48983">
        <ele>227.49</ele>
        <time>2022-07-17T11:57:46Z</time>
      </trkpt>
      <trkpt lat="46.86477" lon="5.48973">
        <ele>227.49</ele>
        <time>2022-07-17T11:57:48Z</time>
      </trkpt>
      <trkpt lat="46.86473" lon="5.48967">
        <ele>227.01</ele>
        <time>2022-07-17T11:57:49Z</time>
      </trkpt>
      <trkpt lat="46.8647" lon="5.48961">
        <ele>227.49</ele>
        <time>2022-07-17T11:57:50Z</time>
      </trkpt>
      <trkpt lat="46.86467" lon="5.48954">
        <ele>227.01</ele>
        <time>2022-07-17T11:57:51Z</time>
      </trkpt>
      <trkpt lat="46.86464" lon="5.48947">
        <ele>227.49</ele>
        <time>2022-07-17T11:57:52Z</time>
      </trkpt>
      <trkpt lat="46.86462" lon="5.48939">
        <ele>227.49</ele>
        <time>2022-07-17T11:57:53Z</time>
      </trkpt>
      <trkpt lat="46.86451" lon="5.48889">
        <ele>226.53</ele>
        <time>2022-07-17T11:58:00Z</time>
      </trkpt>
      <trkpt lat="46.86447" lon="5.48801">
        <ele>227.49</ele>
        <time>2022-07-17T11:58:15Z</time>
      </trkpt>
      <trkpt lat="46.86445" lon="5.48733">
        <ele>227.49</ele>
        <time>2022-07-17T11:58:29Z</time>
      </trkpt>
      <trkpt lat="46.86445" lon="5.48718">
        <ele>228.93</ele>
        <time>2022-07-17T11:58:32Z</time>
      </trkpt>
      <trkpt lat="46.86438" lon="5.48624">
        <ele>227.49</ele>
        <time>2022-07-17T11:58:50Z</time>
      </trkpt>
      <trkpt lat="46.86435" lon="5.48596">
        <ele>228.45</ele>
        <time>2022-07-17T11:59:03Z</time>
      </trkpt>
      <trkpt lat="46.86438" lon="5.48596">
        <ele>227.97</ele>
        <time>2022-07-17T11:59:35Z</time>
      </trkpt>
      <trkpt lat="46.86439" lon="5.48594">
        <ele>227.97</ele>
        <time>2022-07-17T11:59:40Z</time>
      </trkpt>
      <trkpt lat="46.86438" lon="5.48591">
        <ele>227.97</ele>
        <time>2022-07-17T11:59:41Z</time>
      </trkpt>
      <trkpt lat="46.86438" lon="5.48589">
        <ele>227.49</ele>
        <time>2022-07-17T11:59:42Z</time>
      </trkpt>
      <trkpt lat="46.86431" lon="5.48549">
        <ele>228.93</ele>
        <time>2022-07-17T11:59:53Z</time>
      </trkpt>
      <trkpt lat="46.864" lon="5.48512">
        <ele>229.41</ele>
        <time>2022-07-17T12:00:05Z</time>
      </trkpt>
      <trkpt lat="46.86382" lon="5.48515">
        <ele>229.41</ele>
        <time>2022-07-17T12:00:10Z</time>
      </trkpt>
      <trkpt lat="46.86369" lon="5.48532">
        <ele>229.41</ele>
        <time>2022-07-17T12:00:14Z</time>
      </trkpt>
      <trkpt lat="46.86365" lon="5.48536">
        <ele>229.41</ele>
        <time>2022-07-17T12:00:15Z</time>
      </trkpt>
      <trkpt lat="46.86342" lon="5.48557">
        <ele>228.93</ele>
        <time>2022-07-17T12:00:21Z</time>
      </trkpt>
      <trkpt lat="46.86339" lon="5.48561">
        <ele>228.93</ele>
        <time>2022-07-17T12:00:22Z</time>
      </trkpt>
      <trkpt lat="46.86312" lon="5.48593">
        <ele>227.01</ele>
        <time>2022-07-17T12:00:29Z</time>
      </trkpt>
      <trkpt lat="46.86278" lon="5.48636">
        <ele>225.09</ele>
        <time>2022-07-17T12:00:35Z</time>
      </trkpt>
      <trkpt lat="46.8627" lon="5.48641">
        <ele>225.09</ele>
        <time>2022-07-17T12:00:36Z</time>
      </trkpt>
      <trkpt lat="46.8621" lon="5.48689">
        <ele>221.72</ele>
        <time>2022-07-17T12:00:44Z</time>
      </trkpt>
      <trkpt lat="46.86204" lon="5.48698">
        <ele>220.76</ele>
        <time>2022-07-17T12:00:45Z</time>
      </trkpt>
      <trkpt lat="46.862" lon="5.48709">
        <ele>220.28</ele>
        <time>2022-07-17T12:00:46Z</time>
      </trkpt>
      <trkpt lat="46.86197" lon="5.48721">
        <ele>219.8</ele>
        <time>2022-07-17T12:00:47Z</time>
      </trkpt>
      <trkpt lat="46.86195" lon="5.48734">
        <ele>219.8</ele>
        <time>2022-07-17T12:00:48Z</time>
      </trkpt>
      <trkpt lat="46.86193" lon="5.48748">
        <ele>219.8</ele>
        <time>2022-07-17T12:00:49Z</time>
      </trkpt>
      <trkpt lat="46.86184" lon="5.48787">
        <ele>219.32</ele>
        <time>2022-07-17T12:00:52Z</time>
      </trkpt>
      <trkpt lat="46.86179" lon="5.48798">
        <ele>218.36</ele>
        <time>2022-07-17T12:00:53Z</time>
      </trkpt>
      <trkpt lat="46.86174" lon="5.48808">
        <ele>218.36</ele>
        <time>2022-07-17T12:00:54Z</time>
      </trkpt>
      <trkpt lat="46.86167" lon="5.48817">
        <ele>218.36</ele>
        <time>2022-07-17T12:00:55Z</time>
      </trkpt>
      <trkpt lat="46.8616" lon="5.48823">
        <ele>217.88</ele>
        <time>2022-07-17T12:00:56Z</time>
      </trkpt>
      <trkpt lat="46.86153" lon="5.48829">
        <ele>217.88</ele>
        <time>2022-07-17T12:00:57Z</time>
      </trkpt>
      <trkpt lat="46.86146" lon="5.48834">
        <ele>218.36</ele>
        <time>2022-07-17T12:00:58Z</time>
      </trkpt>
      <trkpt lat="46.86139" lon="5.4884">
        <ele>217.4</ele>
        <time>2022-07-17T12:00:59Z</time>
      </trkpt>
      <trkpt lat="46.86073" lon="5.48903">
        <ele>218.36</ele>
        <time>2022-07-17T12:01:11Z</time>
      </trkpt>
      <trkpt lat="46.86041" lon="5.48936">
        <ele>221.24</ele>
        <time>2022-07-17T12:01:20Z</time>
      </trkpt>
      <trkpt lat="46.86038" lon="5.48938">
        <ele>221.72</ele>
        <time>2022-07-17T12:01:21Z</time>
      </trkpt>
      <trkpt lat="46.86009" lon="5.48966">
        <ele>222.68</ele>
        <time>2022-07-17T12:01:35Z</time>
      </trkpt>
      <trkpt lat="46.85974" lon="5.49003">
        <ele>225.09</ele>
        <time>2022-07-17T12:01:52Z</time>
      </trkpt>
      <trkpt lat="46.85938" lon="5.49043">
        <ele>225.57</ele>
        <time>2022-07-17T12:02:07Z</time>
      </trkpt>
      <trkpt lat="46.85896" lon="5.49101">
        <ele>226.05</ele>
        <time>2022-07-17T12:02:23Z</time>
      </trkpt>
      <trkpt lat="46.85849" lon="5.49178">
        <ele>227.01</ele>
        <time>2022-07-17T12:02:42Z</time>
      </trkpt>
      <trkpt lat="46.85824" lon="5.49246">
        <ele>227.97</ele>
        <time>2022-07-17T12:02:55Z</time>
      </trkpt>
      <trkpt lat="46.85823" lon="5.49252">
        <ele>227.49</ele>
        <time>2022-07-17T12:02:56Z</time>
      </trkpt>
      <trkpt lat="46.85823" lon="5.49258">
        <ele>227.49</ele>
        <time>2022-07-17T12:02:57Z</time>
      </trkpt>
      <trkpt lat="46.85822" lon="5.49359">
        <ele>227.97</ele>
        <time>2022-07-17T12:03:15Z</time>
      </trkpt>
      <trkpt lat="46.85792" lon="5.49451">
        <ele>225.09</ele>
        <time>2022-07-17T12:03:28Z</time>
      </trkpt>
      <trkpt lat="46.85789" lon="5.49461">
        <ele>225.09</ele>
        <time>2022-07-17T12:03:29Z</time>
      </trkpt>
      <trkpt lat="46.8576" lon="5.49557">
        <ele>223.64</ele>
        <time>2022-07-17T12:03:39Z</time>
      </trkpt>
      <trkpt lat="46.85741" lon="5.49636">
        <ele>224.61</ele>
        <time>2022-07-17T12:03:51Z</time>
      </trkpt>
      <trkpt lat="46.85729" lon="5.4969">
        <ele>226.53</ele>
        <time>2022-07-17T12:04:06Z</time>
      </trkpt>
      <trkpt lat="46.85712" lon="5.49751">
        <ele>229.89</ele>
        <time>2022-07-17T12:04:24Z</time>
      </trkpt>
      <trkpt lat="46.85689" lon="5.49829">
        <ele>228.93</ele>
        <time>2022-07-17T12:04:40Z</time>
      </trkpt>
      <trkpt lat="46.85683" lon="5.49841">
        <ele>227.97</ele>
        <time>2022-07-17T12:04:42Z</time>
      </trkpt>
      <trkpt lat="46.85679" lon="5.49847">
        <ele>228.45</ele>
        <time>2022-07-17T12:04:43Z</time>
      </trkpt>
      <trkpt lat="46.85675" lon="5.49852">
        <ele>228.45</ele>
        <time>2022-07-17T12:04:44Z</time>
      </trkpt>
      <trkpt lat="46.8567" lon="5.49857">
        <ele>228.45</ele>
        <time>2022-07-17T12:04:45Z</time>
      </trkpt>
      <trkpt lat="46.85665" lon="5.49861">
        <ele>228.45</ele>
        <time>2022-07-17T12:04:46Z</time>
      </trkpt>
      <trkpt lat="46.85659" lon="5.49866">
        <ele>227.97</ele>
        <time>2022-07-17T12:04:47Z</time>
      </trkpt>
      <trkpt lat="46.85586" lon="5.4991">
        <ele>223.64</ele>
        <time>2022-07-17T12:04:57Z</time>
      </trkpt>
      <trkpt lat="46.85563" lon="5.49927">
        <ele>222.68</ele>
        <time>2022-07-17T12:05:00Z</time>
      </trkpt>
      <trkpt lat="46.8554" lon="5.49947">
        <ele>221.24</ele>
        <time>2022-07-17T12:05:03Z</time>
      </trkpt>
      <trkpt lat="46.85519" lon="5.49974">
        <ele>219.32</ele>
        <time>2022-07-17T12:05:06Z</time>
      </trkpt>
      <trkpt lat="46.85513" lon="5.49985">
        <ele>218.36</ele>
        <time>2022-07-17T12:05:07Z</time>
      </trkpt>
      <trkpt lat="46.85509" lon="5.49999">
        <ele>218.36</ele>
        <time>2022-07-17T12:05:08Z</time>
      </trkpt>
      <trkpt lat="46.85494" lon="5.50039">
        <ele>216.43</ele>
        <time>2022-07-17T12:05:11Z</time>
      </trkpt>
      <trkpt lat="46.85488" lon="5.50051">
        <ele>215.95</ele>
        <time>2022-07-17T12:05:12Z</time>
      </trkpt>
      <trkpt lat="46.85476" lon="5.50071">
        <ele>215.47</ele>
        <time>2022-07-17T12:05:14Z</time>
      </trkpt>
      <trkpt lat="46.85468" lon="5.50079">
        <ele>214.99</ele>
        <time>2022-07-17T12:05:15Z</time>
      </trkpt>
      <trkpt lat="46.85459" lon="5.50085">
        <ele>214.99</ele>
        <time>2022-07-17T12:05:16Z</time>
      </trkpt>
      <trkpt lat="46.85385" lon="5.50153">
        <ele>213.07</ele>
        <time>2022-07-17T12:05:27Z</time>
      </trkpt>
      <trkpt lat="46.8534" lon="5.5022">
        <ele>215.47</ele>
        <time>2022-07-17T12:05:40Z</time>
      </trkpt>
      <trkpt lat="46.85311" lon="5.50267">
        <ele>215.95</ele>
        <time>2022-07-17T12:05:54Z</time>
      </trkpt>
      <trkpt lat="46.85283" lon="5.50315">
        <ele>218.84</ele>
        <time>2022-07-17T12:06:10Z</time>
      </trkpt>
      <trkpt lat="46.85256" lon="5.50365">
        <ele>220.28</ele>
        <time>2022-07-17T12:06:27Z</time>
      </trkpt>
      <trkpt lat="46.85237" lon="5.50411">
        <ele>221.72</ele>
        <time>2022-07-17T12:06:41Z</time>
      </trkpt>
      <trkpt lat="46.8522" lon="5.50464">
        <ele>225.09</ele>
        <time>2022-07-17T12:06:58Z</time>
      </trkpt>
      <trkpt lat="46.85198" lon="5.50527">
        <ele>226.05</ele>
        <time>2022-07-17T12:07:16Z</time>
      </trkpt>
      <trkpt lat="46.85171" lon="5.50591">
        <ele>223.64</ele>
        <time>2022-07-17T12:07:27Z</time>
      </trkpt>
      <trkpt lat="46.85141" lon="5.50711">
        <ele>222.2</ele>
        <time>2022-07-17T12:07:40Z</time>
      </trkpt>
      <trkpt lat="46.85134" lon="5.50776">
        <ele>220.28</ele>
        <time>2022-07-17T12:07:48Z</time>
      </trkpt>
      <trkpt lat="46.85132" lon="5.50783">
        <ele>220.76</ele>
        <time>2022-07-17T12:07:49Z</time>
      </trkpt>
      <trkpt lat="46.85129" lon="5.50789">
        <ele>220.76</ele>
        <time>2022-07-17T12:07:50Z</time>
      </trkpt>
      <trkpt lat="46.85126" lon="5.50795">
        <ele>221.24</ele>
        <time>2022-07-17T12:07:51Z</time>
      </trkpt>
      <trkpt lat="46.85122" lon="5.508">
        <ele>220.76</ele>
        <time>2022-07-17T12:07:52Z</time>
      </trkpt>
      <trkpt lat="46.85118" lon="5.50805">
        <ele>220.28</ele>
        <time>2022-07-17T12:07:53Z</time>
      </trkpt>
      <trkpt lat="46.85114" lon="5.50808">
        <ele>220.28</ele>
        <time>2022-07-17T12:07:54Z</time>
      </trkpt>
      <trkpt lat="46.8511" lon="5.50811">
        <ele>220.28</ele>
        <time>2022-07-17T12:07:55Z</time>
      </trkpt>
      <trkpt lat="46.85106" lon="5.50814">
        <ele>220.28</ele>
        <time>2022-07-17T12:07:56Z</time>
      </trkpt>
      <trkpt lat="46.85056" lon="5.50813">
        <ele>220.28</ele>
        <time>2022-07-17T12:08:09Z</time>
      </trkpt>
      <trkpt lat="46.85031" lon="5.50778">
        <ele>221.24</ele>
        <time>2022-07-17T12:08:23Z</time>
      </trkpt>
      <trkpt lat="46.85006" lon="5.50739">
        <ele>221.24</ele>
        <time>2022-07-17T12:08:33Z</time>
      </trkpt>
      <trkpt lat="46.85003" lon="5.50735">
        <ele>221.72</ele>
        <time>2022-07-17T12:08:34Z</time>
      </trkpt>
      <trkpt lat="46.84999" lon="5.50731">
        <ele>221.24</ele>
        <time>2022-07-17T12:08:35Z</time>
      </trkpt>
      <trkpt lat="46.84994" lon="5.50728">
        <ele>221.72</ele>
        <time>2022-07-17T12:08:36Z</time>
      </trkpt>
      <trkpt lat="46.8499" lon="5.50724">
        <ele>221.72</ele>
        <time>2022-07-17T12:08:37Z</time>
      </trkpt>
      <trkpt lat="46.84981" lon="5.50718">
        <ele>221.72</ele>
        <time>2022-07-17T12:08:39Z</time>
      </trkpt>
      <trkpt lat="46.84977" lon="5.50716">
        <ele>221.72</ele>
        <time>2022-07-17T12:08:40Z</time>
      </trkpt>
      <trkpt lat="46.84972" lon="5.50714">
        <ele>221.72</ele>
        <time>2022-07-17T12:08:41Z</time>
      </trkpt>
      <trkpt lat="46.84921" lon="5.50703">
        <ele>223.64</ele>
        <time>2022-07-17T12:08:53Z</time>
      </trkpt>
      <trkpt lat="46.84873" lon="5.50704">
        <ele>224.61</ele>
        <time>2022-07-17T12:09:03Z</time>
      </trkpt>
      <trkpt lat="46.84869" lon="5.50706">
        <ele>224.61</ele>
        <time>2022-07-17T12:09:04Z</time>
      </trkpt>
      <trkpt lat="46.84865" lon="5.50709">
        <ele>224.12</ele>
        <time>2022-07-17T12:09:05Z</time>
      </trkpt>
      <trkpt lat="46.8482" lon="5.50742">
        <ele>226.05</ele>
        <time>2022-07-17T12:09:19Z</time>
      </trkpt>
      <trkpt lat="46.84778" lon="5.50733">
        <ele>227.49</ele>
        <time>2022-07-17T12:09:35Z</time>
      </trkpt>
      <trkpt lat="46.84739" lon="5.50713">
        <ele>227.97</ele>
        <time>2022-07-17T12:09:48Z</time>
      </trkpt>
      <trkpt lat="46.84688" lon="5.50689">
        <ele>227.01</ele>
        <time>2022-07-17T12:10:04Z</time>
      </trkpt>
      <trkpt lat="46.84686" lon="5.50688">
        <ele>227.49</ele>
        <time>2022-07-17T12:10:05Z</time>
      </trkpt>
      <trkpt lat="46.84676" lon="5.50682">
        <ele>227.49</ele>
        <time>2022-07-17T12:10:09Z</time>
      </trkpt>
      <trkpt lat="46.8461" lon="5.50666">
        <ele>225.57</ele>
        <time>2022-07-17T12:10:22Z</time>
      </trkpt>
      <trkpt lat="46.84552" lon="5.50682">
        <ele>222.68</ele>
        <time>2022-07-17T12:10:30Z</time>
      </trkpt>
      <trkpt lat="46.84545" lon="5.5069">
        <ele>222.2</ele>
        <time>2022-07-17T12:10:31Z</time>
      </trkpt>
      <trkpt lat="46.8454" lon="5.50699">
        <ele>221.72</ele>
        <time>2022-07-17T12:10:32Z</time>
      </trkpt>
      <trkpt lat="46.84537" lon="5.5071">
        <ele>222.2</ele>
        <time>2022-07-17T12:10:33Z</time>
      </trkpt>
      <trkpt lat="46.84536" lon="5.50722">
        <ele>221.72</ele>
        <time>2022-07-17T12:10:34Z</time>
      </trkpt>
      <trkpt lat="46.84535" lon="5.50734">
        <ele>221.72</ele>
        <time>2022-07-17T12:10:35Z</time>
      </trkpt>
      <trkpt lat="46.84524" lon="5.50875">
        <ele>220.28</ele>
        <time>2022-07-17T12:10:49Z</time>
      </trkpt>
      <trkpt lat="46.84516" lon="5.50916">
        <ele>220.76</ele>
        <time>2022-07-17T12:10:55Z</time>
      </trkpt>
      <trkpt lat="46.84514" lon="5.50921">
        <ele>221.24</ele>
        <time>2022-07-17T12:10:56Z</time>
      </trkpt>
      <trkpt lat="46.84509" lon="5.50932">
        <ele>220.76</ele>
        <time>2022-07-17T12:10:58Z</time>
      </trkpt>
      <trkpt lat="46.84506" lon="5.50938">
        <ele>220.76</ele>
        <time>2022-07-17T12:10:59Z</time>
      </trkpt>
      <trkpt lat="46.84501" lon="5.50942">
        <ele>220.76</ele>
        <time>2022-07-17T12:11:00Z</time>
      </trkpt>
      <trkpt lat="46.84496" lon="5.50947">
        <ele>220.76</ele>
        <time>2022-07-17T12:11:01Z</time>
      </trkpt>
      <trkpt lat="46.84491" lon="5.5095">
        <ele>220.28</ele>
        <time>2022-07-17T12:11:02Z</time>
      </trkpt>
      <trkpt lat="46.8447" lon="5.50971">
        <ele>218.84</ele>
        <time>2022-07-17T12:11:06Z</time>
      </trkpt>
      <trkpt lat="46.84465" lon="5.50978">
        <ele>218.84</ele>
        <time>2022-07-17T12:11:07Z</time>
      </trkpt>
      <trkpt lat="46.84461" lon="5.50985">
        <ele>218.84</ele>
        <time>2022-07-17T12:11:08Z</time>
      </trkpt>
      <trkpt lat="46.84458" lon="5.50993">
        <ele>218.36</ele>
        <time>2022-07-17T12:11:09Z</time>
      </trkpt>
      <trkpt lat="46.84455" lon="5.51001">
        <ele>218.36</ele>
        <time>2022-07-17T12:11:10Z</time>
      </trkpt>
      <trkpt lat="46.84452" lon="5.5101">
        <ele>217.88</ele>
        <time>2022-07-17T12:11:11Z</time>
      </trkpt>
      <trkpt lat="46.8445" lon="5.51019">
        <ele>218.36</ele>
        <time>2022-07-17T12:11:12Z</time>
      </trkpt>
      <trkpt lat="46.84447" lon="5.51037">
        <ele>217.88</ele>
        <time>2022-07-17T12:11:14Z</time>
      </trkpt>
      <trkpt lat="46.84431" lon="5.51154">
        <ele>219.32</ele>
        <time>2022-07-17T12:11:30Z</time>
      </trkpt>
      <trkpt lat="46.84416" lon="5.51274">
        <ele>218.36</ele>
        <time>2022-07-17T12:11:47Z</time>
      </trkpt>
      <trkpt lat="46.8441" lon="5.51364">
        <ele>219.32</ele>
        <time>2022-07-17T12:12:04Z</time>
      </trkpt>
      <trkpt lat="46.84423" lon="5.51414">
        <ele>221.24</ele>
        <time>2022-07-17T12:12:19Z</time>
      </trkpt>
      <trkpt lat="46.84439" lon="5.51455">
        <ele>224.12</ele>
        <time>2022-07-17T12:12:33Z</time>
      </trkpt>
      <trkpt lat="46.84457" lon="5.51513">
        <ele>224.61</ele>
        <time>2022-07-17T12:12:52Z</time>
      </trkpt>
      <trkpt lat="46.84449" lon="5.5158">
        <ele>226.05</ele>
        <time>2022-07-17T12:13:10Z</time>
      </trkpt>
      <trkpt lat="46.84439" lon="5.51637">
        <ele>226.05</ele>
        <time>2022-07-17T12:13:24Z</time>
      </trkpt>
      <trkpt lat="46.84462" lon="5.51679">
        <ele>227.49</ele>
        <time>2022-07-17T12:13:38Z</time>
      </trkpt>
      <trkpt lat="46.84491" lon="5.51713">
        <ele>228.93</ele>
        <time>2022-07-17T12:13:53Z</time>
      </trkpt>
      <trkpt lat="46.84513" lon="5.51758">
        <ele>229.41</ele>
        <time>2022-07-17T12:14:08Z</time>
      </trkpt>
      <trkpt lat="46.84515" lon="5.51821">
        <ele>229.89</ele>
        <time>2022-07-17T12:14:23Z</time>
      </trkpt>
      <trkpt lat="46.84511" lon="5.51844">
        <ele>230.37</ele>
        <time>2022-07-17T12:14:34Z</time>
      </trkpt>
      <trkpt lat="46.84509" lon="5.51869">
        <ele>230.37</ele>
        <time>2022-07-17T12:14:49Z</time>
      </trkpt>
      <trkpt lat="46.84501" lon="5.51954">
        <ele>230.37</ele>
        <time>2022-07-17T12:15:05Z</time>
      </trkpt>
      <trkpt lat="46.84498" lon="5.52018">
        <ele>228.93</ele>
        <time>2022-07-17T12:15:15Z</time>
      </trkpt>
      <trkpt lat="46.84496" lon="5.52025">
        <ele>228.45</ele>
        <time>2022-07-17T12:15:16Z</time>
      </trkpt>
      <trkpt lat="46.84494" lon="5.52032">
        <ele>228.45</ele>
        <time>2022-07-17T12:15:17Z</time>
      </trkpt>
      <trkpt lat="46.84449" lon="5.52143">
        <ele>225.09</ele>
        <time>2022-07-17T12:15:34Z</time>
      </trkpt>
      <trkpt lat="46.84393" lon="5.52228">
        <ele>221.72</ele>
        <time>2022-07-17T12:15:45Z</time>
      </trkpt>
      <trkpt lat="46.84356" lon="5.52311">
        <ele>219.32</ele>
        <time>2022-07-17T12:15:53Z</time>
      </trkpt>
      <trkpt lat="46.84294" lon="5.5241">
        <ele>218.84</ele>
        <time>2022-07-17T12:16:04Z</time>
      </trkpt>
      <trkpt lat="46.84277" lon="5.52451">
        <ele>219.8</ele>
        <time>2022-07-17T12:16:09Z</time>
      </trkpt>
      <trkpt lat="46.84274" lon="5.52457">
        <ele>219.8</ele>
        <time>2022-07-17T12:16:10Z</time>
      </trkpt>
      <trkpt lat="46.84256" lon="5.52484">
        <ele>220.76</ele>
        <time>2022-07-17T12:16:18Z</time>
      </trkpt>
      <trkpt lat="46.84255" lon="5.52487">
        <ele>220.76</ele>
        <time>2022-07-17T12:16:19Z</time>
      </trkpt>
      <trkpt lat="46.84238" lon="5.52517">
        <ele>222.2</ele>
        <time>2022-07-17T12:16:32Z</time>
      </trkpt>
      <trkpt lat="46.84237" lon="5.52518">
        <ele>222.68</ele>
        <time>2022-07-17T12:16:33Z</time>
      </trkpt>
      <trkpt lat="46.84238" lon="5.5252">
        <ele>222.2</ele>
        <time>2022-07-17T12:16:34Z</time>
      </trkpt>
      <trkpt lat="46.84238" lon="5.52522">
        <ele>222.2</ele>
        <time>2022-07-17T12:16:35Z</time>
      </trkpt>
      <trkpt lat="46.84238" lon="5.52524">
        <ele>222.68</ele>
        <time>2022-07-17T12:16:36Z</time>
      </trkpt>
      <trkpt lat="46.84237" lon="5.52525">
        <ele>222.2</ele>
        <time>2022-07-17T12:16:37Z</time>
      </trkpt>
      <trkpt lat="46.84236" lon="5.52527">
        <ele>222.68</ele>
        <time>2022-07-17T12:16:38Z</time>
      </trkpt>
      <trkpt lat="46.84235" lon="5.52529">
        <ele>222.68</ele>
        <time>2022-07-17T12:16:39Z</time>
      </trkpt>
      <trkpt lat="46.84235" lon="5.52531">
        <ele>222.68</ele>
        <time>2022-07-17T12:16:40Z</time>
      </trkpt>
      <trkpt lat="46.8423" lon="5.52555">
        <ele>223.64</ele>
        <time>2022-07-17T12:16:51Z</time>
      </trkpt>
      <trkpt lat="46.84229" lon="5.52558">
        <ele>224.12</ele>
        <time>2022-07-17T12:16:52Z</time>
      </trkpt>
      <trkpt lat="46.84228" lon="5.5256">
        <ele>223.64</ele>
        <time>2022-07-17T12:16:53Z</time>
      </trkpt>
      <trkpt lat="46.84228" lon="5.52563">
        <ele>224.12</ele>
        <time>2022-07-17T12:16:54Z</time>
      </trkpt>
      <trkpt lat="46.84227" lon="5.52565">
        <ele>224.12</ele>
        <time>2022-07-17T12:16:55Z</time>
      </trkpt>
      <trkpt lat="46.84227" lon="5.52568">
        <ele>224.12</ele>
        <time>2022-07-17T12:16:56Z</time>
      </trkpt>
      <trkpt lat="46.84227" lon="5.52571">
        <ele>223.64</ele>
        <time>2022-07-17T12:16:57Z</time>
      </trkpt>
      <trkpt lat="46.84226" lon="5.52574">
        <ele>223.16</ele>
        <time>2022-07-17T12:16:58Z</time>
      </trkpt>
      <trkpt lat="46.84226" lon="5.52577">
        <ele>224.12</ele>
        <time>2022-07-17T12:16:59Z</time>
      </trkpt>
      <trkpt lat="46.84226" lon="5.5258">
        <ele>224.12</ele>
        <time>2022-07-17T12:17:00Z</time>
      </trkpt>
      <trkpt lat="46.84225" lon="5.52584">
        <ele>224.61</ele>
        <time>2022-07-17T12:17:01Z</time>
      </trkpt>
      <trkpt lat="46.84225" lon="5.52587">
        <ele>224.61</ele>
        <time>2022-07-17T12:17:02Z</time>
      </trkpt>
      <trkpt lat="46.84226" lon="5.52594">
        <ele>225.09</ele>
        <time>2022-07-17T12:17:04Z</time>
      </trkpt>
      <trkpt lat="46.84226" lon="5.52596">
        <ele>225.57</ele>
        <time>2022-07-17T12:17:05Z</time>
      </trkpt>
      <trkpt lat="46.84227" lon="5.52607">
        <ele>225.09</ele>
        <time>2022-07-17T12:17:09Z</time>
      </trkpt>
      <trkpt lat="46.84228" lon="5.52609">
        <ele>225.57</ele>
        <time>2022-07-17T12:17:10Z</time>
      </trkpt>
      <trkpt lat="46.84229" lon="5.52612">
        <ele>225.09</ele>
        <time>2022-07-17T12:17:11Z</time>
      </trkpt>
      <trkpt lat="46.8423" lon="5.52616">
        <ele>225.09</ele>
        <time>2022-07-17T12:17:12Z</time>
      </trkpt>
      <trkpt lat="46.8423" lon="5.52619">
        <ele>225.09</ele>
        <time>2022-07-17T12:17:13Z</time>
      </trkpt>
      <trkpt lat="46.84231" lon="5.52622">
        <ele>225.09</ele>
        <time>2022-07-17T12:17:14Z</time>
      </trkpt>
      <trkpt lat="46.84232" lon="5.52625">
        <ele>225.09</ele>
        <time>2022-07-17T12:17:15Z</time>
      </trkpt>
      <trkpt lat="46.84233" lon="5.52628">
        <ele>225.09</ele>
        <time>2022-07-17T12:17:16Z</time>
      </trkpt>
      <trkpt lat="46.84245" lon="5.52662">
        <ele>226.53</ele>
        <time>2022-07-17T12:17:30Z</time>
      </trkpt>
      <trkpt lat="46.84256" lon="5.52722">
        <ele>227.49</ele>
        <time>2022-07-17T12:17:46Z</time>
      </trkpt>
      <trkpt lat="46.84253" lon="5.52792">
        <ele>228.93</ele>
        <time>2022-07-17T12:18:03Z</time>
      </trkpt>
      <trkpt lat="46.84252" lon="5.52871">
        <ele>230.37</ele>
        <time>2022-07-17T12:18:21Z</time>
      </trkpt>
      <trkpt lat="46.84251" lon="5.52943">
        <ele>230.85</ele>
        <time>2022-07-17T12:18:36Z</time>
      </trkpt>
      <trkpt lat="46.84244" lon="5.53034">
        <ele>232.3</ele>
        <time>2022-07-17T12:18:56Z</time>
      </trkpt>
      <trkpt lat="46.84216" lon="5.53102">
        <ele>232.78</ele>
        <time>2022-07-17T12:19:12Z</time>
      </trkpt>
      <trkpt lat="46.8417" lon="5.5318">
        <ele>231.33</ele>
        <time>2022-07-17T12:19:29Z</time>
      </trkpt>
      <trkpt lat="46.84126" lon="5.53239">
        <ele>228.45</ele>
        <time>2022-07-17T12:19:39Z</time>
      </trkpt>
      <trkpt lat="46.8409" lon="5.53294">
        <ele>224.61</ele>
        <time>2022-07-17T12:19:45Z</time>
      </trkpt>
      <trkpt lat="46.84085" lon="5.53305">
        <ele>223.16</ele>
        <time>2022-07-17T12:19:46Z</time>
      </trkpt>
      <trkpt lat="46.84081" lon="5.53319">
        <ele>223.64</ele>
        <time>2022-07-17T12:19:47Z</time>
      </trkpt>
      <trkpt lat="46.84039" lon="5.53491">
        <ele>221.72</ele>
        <time>2022-07-17T12:20:01Z</time>
      </trkpt>
      <trkpt lat="46.84007" lon="5.53559">
        <ele>223.64</ele>
        <time>2022-07-17T12:20:13Z</time>
      </trkpt>
      <trkpt lat="46.8397" lon="5.53603">
        <ele>226.53</ele>
        <time>2022-07-17T12:20:28Z</time>
      </trkpt>
      <trkpt lat="46.83939" lon="5.53642">
        <ele>229.41</ele>
        <time>2022-07-17T12:20:43Z</time>
      </trkpt>
      <trkpt lat="46.83914" lon="5.53687">
        <ele>231.33</ele>
        <time>2022-07-17T12:20:58Z</time>
      </trkpt>
      <trkpt lat="46.83895" lon="5.53731">
        <ele>231.81</ele>
        <time>2022-07-17T12:21:12Z</time>
      </trkpt>
      <trkpt lat="46.83884" lon="5.53792">
        <ele>230.85</ele>
        <time>2022-07-17T12:21:27Z</time>
      </trkpt>
      <trkpt lat="46.83877" lon="5.53847">
        <ele>231.81</ele>
        <time>2022-07-17T12:21:42Z</time>
      </trkpt>
      <trkpt lat="46.83872" lon="5.53896">
        <ele>231.33</ele>
        <time>2022-07-17T12:21:56Z</time>
      </trkpt>
      <trkpt lat="46.83866" lon="5.53964">
        <ele>233.74</ele>
        <time>2022-07-17T12:22:12Z</time>
      </trkpt>
      <trkpt lat="46.83854" lon="5.54036">
        <ele>234.7</ele>
        <time>2022-07-17T12:22:29Z</time>
      </trkpt>
      <trkpt lat="46.83846" lon="5.54098">
        <ele>234.22</ele>
        <time>2022-07-17T12:22:45Z</time>
      </trkpt>
      <trkpt lat="46.83831" lon="5.54181">
        <ele>233.26</ele>
        <time>2022-07-17T12:23:02Z</time>
      </trkpt>
      <trkpt lat="46.83813" lon="5.54268">
        <ele>233.26</ele>
        <time>2022-07-17T12:23:20Z</time>
      </trkpt>
      <trkpt lat="46.83801" lon="5.5432">
        <ele>231.33</ele>
        <time>2022-07-17T12:23:28Z</time>
      </trkpt>
      <trkpt lat="46.83795" lon="5.5435">
        <ele>230.37</ele>
        <time>2022-07-17T12:23:32Z</time>
      </trkpt>
      <trkpt lat="46.83763" lon="5.545">
        <ele>228.93</ele>
        <time>2022-07-17T12:23:48Z</time>
      </trkpt>
      <trkpt lat="46.83742" lon="5.5459">
        <ele>230.37</ele>
        <time>2022-07-17T12:24:01Z</time>
      </trkpt>
      <trkpt lat="46.83733" lon="5.54635">
        <ele>233.26</ele>
        <time>2022-07-17T12:24:08Z</time>
      </trkpt>
      <trkpt lat="46.83709" lon="5.54753">
        <ele>231.81</ele>
        <time>2022-07-17T12:24:26Z</time>
      </trkpt>
      <trkpt lat="46.83689" lon="5.54838">
        <ele>233.26</ele>
        <time>2022-07-17T12:24:44Z</time>
      </trkpt>
      <trkpt lat="46.83673" lon="5.54908">
        <ele>235.18</ele>
        <time>2022-07-17T12:25:03Z</time>
      </trkpt>
      <trkpt lat="46.8366" lon="5.54964">
        <ele>236.14</ele>
        <time>2022-07-17T12:25:20Z</time>
      </trkpt>
      <trkpt lat="46.83649" lon="5.55014">
        <ele>238.54</ele>
        <time>2022-07-17T12:25:38Z</time>
      </trkpt>
      <trkpt lat="46.8364" lon="5.55055">
        <ele>239.51</ele>
        <time>2022-07-17T12:25:52Z</time>
      </trkpt>
      <trkpt lat="46.83631" lon="5.55099">
        <ele>239.99</ele>
        <time>2022-07-17T12:26:06Z</time>
      </trkpt>
      <trkpt lat="46.8363" lon="5.55106">
        <ele>240.95</ele>
        <time>2022-07-17T12:26:18Z</time>
      </trkpt>
      <trkpt lat="46.8363" lon="5.55107">
        <ele>240.47</ele>
        <time>2022-07-17T12:26:26Z</time>
      </trkpt>
      <trkpt lat="46.8363" lon="5.55108">
        <ele>240.47</ele>
        <time>2022-07-17T12:26:27Z</time>
      </trkpt>
      <trkpt lat="46.8363" lon="5.5511">
        <ele>240.95</ele>
        <time>2022-07-17T12:26:28Z</time>
      </trkpt>
      <trkpt lat="46.83618" lon="5.55159">
        <ele>241.91</ele>
        <time>2022-07-17T12:26:43Z</time>
      </trkpt>
      <trkpt lat="46.83606" lon="5.55211">
        <ele>244.79</ele>
        <time>2022-07-17T12:26:59Z</time>
      </trkpt>
      <trkpt lat="46.83593" lon="5.55279">
        <ele>246.23</ele>
        <time>2022-07-17T12:27:16Z</time>
      </trkpt>
      <trkpt lat="46.83575" lon="5.55359">
        <ele>244.79</ele>
        <time>2022-07-17T12:27:32Z</time>
      </trkpt>
      <trkpt lat="46.83572" lon="5.55372">
        <ele>243.35</ele>
        <time>2022-07-17T12:27:34Z</time>
      </trkpt>
      <trkpt lat="46.83549" lon="5.55484">
        <ele>242.39</ele>
        <time>2022-07-17T12:27:48Z</time>
      </trkpt>
      <trkpt lat="46.83535" lon="5.55547">
        <ele>242.87</ele>
        <time>2022-07-17T12:28:00Z</time>
      </trkpt>
      <trkpt lat="46.83517" lon="5.55629">
        <ele>243.35</ele>
        <time>2022-07-17T12:28:17Z</time>
      </trkpt>
      <trkpt lat="46.83496" lon="5.55722">
        <ele>243.83</ele>
        <time>2022-07-17T12:28:36Z</time>
      </trkpt>
      <trkpt lat="46.83482" lon="5.55757">
        <ele>243.35</ele>
        <time>2022-07-17T12:28:44Z</time>
      </trkpt>
      <trkpt lat="46.83422" lon="5.55799">
        <ele>242.39</ele>
        <time>2022-07-17T12:29:01Z</time>
      </trkpt>
      <trkpt lat="46.83367" lon="5.55843">
        <ele>242.87</ele>
        <time>2022-07-17T12:29:18Z</time>
      </trkpt>
      <trkpt lat="46.83363" lon="5.55846">
        <ele>242.39</ele>
        <time>2022-07-17T12:29:19Z</time>
      </trkpt>
      <trkpt lat="46.83299" lon="5.55908">
        <ele>243.35</ele>
        <time>2022-07-17T12:29:38Z</time>
      </trkpt>
      <trkpt lat="46.83246" lon="5.55962">
        <ele>242.87</ele>
        <time>2022-07-17T12:29:55Z</time>
      </trkpt>
      <trkpt lat="46.83172" lon="5.56037">
        <ele>241.43</ele>
        <time>2022-07-17T12:30:13Z</time>
      </trkpt>
      <trkpt lat="46.83103" lon="5.56105">
        <ele>238.06</ele>
        <time>2022-07-17T12:30:26Z</time>
      </trkpt>
      <trkpt lat="46.83028" lon="5.56183">
        <ele>234.7</ele>
        <time>2022-07-17T12:30:38Z</time>
      </trkpt>
      <trkpt lat="46.82945" lon="5.56258">
        <ele>233.26</ele>
        <time>2022-07-17T12:30:50Z</time>
      </trkpt>
      <trkpt lat="46.82899" lon="5.5631">
        <ele>233.26</ele>
        <time>2022-07-17T12:30:59Z</time>
      </trkpt>
      <trkpt lat="46.82891" lon="5.56325">
        <ele>233.74</ele>
        <time>2022-07-17T12:31:02Z</time>
      </trkpt>
      <trkpt lat="46.8286" lon="5.56367">
        <ele>235.18</ele>
        <time>2022-07-17T12:31:15Z</time>
      </trkpt>
      <trkpt lat="46.82839" lon="5.56387">
        <ele>234.7</ele>
        <time>2022-07-17T12:31:28Z</time>
      </trkpt>
      <trkpt lat="46.82841" lon="5.56393">
        <ele>234.7</ele>
        <time>2022-07-17T12:31:48Z</time>
      </trkpt>
      <trkpt lat="46.8284" lon="5.5639">
        <ele>234.7</ele>
        <time>2022-07-17T12:32:15Z</time>
      </trkpt>
      <trkpt lat="46.82836" lon="5.5639">
        <ele>234.7</ele>
        <time>2022-07-17T12:32:35Z</time>
      </trkpt>
      <trkpt lat="46.82791" lon="5.56391">
        <ele>233.26</ele>
        <time>2022-07-17T12:32:47Z</time>
      </trkpt>
      <trkpt lat="46.82786" lon="5.56391">
        <ele>233.74</ele>
        <time>2022-07-17T12:32:48Z</time>
      </trkpt>
      <trkpt lat="46.82711" lon="5.5639">
        <ele>230.85</ele>
        <time>2022-07-17T12:33:04Z</time>
      </trkpt>
      <trkpt lat="46.82692" lon="5.56407">
        <ele>231.33</ele>
        <time>2022-07-17T12:33:13Z</time>
      </trkpt>
      <trkpt lat="46.82675" lon="5.56437">
        <ele>232.78</ele>
        <time>2022-07-17T12:33:26Z</time>
      </trkpt>
      <trkpt lat="46.82665" lon="5.5647">
        <ele>234.22</ele>
        <time>2022-07-17T12:33:42Z</time>
      </trkpt>
      <trkpt lat="46.82655" lon="5.56483">
        <ele>235.66</ele>
        <time>2022-07-17T12:33:54Z</time>
      </trkpt>
      <trkpt lat="46.82657" lon="5.5649">
        <ele>236.62</ele>
        <time>2022-07-17T12:34:10Z</time>
      </trkpt>
      <trkpt lat="46.8266" lon="5.56486">
        <ele>236.62</ele>
        <time>2022-07-17T12:34:30Z</time>
      </trkpt>
      <trkpt lat="46.82665" lon="5.56486">
        <ele>236.62</ele>
        <time>2022-07-17T12:34:59Z</time>
      </trkpt>
      <trkpt lat="46.82669" lon="5.56488">
        <ele>236.62</ele>
        <time>2022-07-17T12:35:42Z</time>
      </trkpt>
      <trkpt lat="46.82663" lon="5.56495">
        <ele>236.62</ele>
        <time>2022-07-17T12:36:15Z</time>
      </trkpt>
      <trkpt lat="46.82661" lon="5.56492">
        <ele>236.14</ele>
        <time>2022-07-17T12:36:24Z</time>
      </trkpt>
      <trkpt lat="46.8266" lon="5.56493">
        <ele>236.62</ele>
        <time>2022-07-17T12:36:25Z</time>
      </trkpt>
      <trkpt lat="46.82659" lon="5.56494">
        <ele>237.1</ele>
        <time>2022-07-17T12:36:26Z</time>
      </trkpt>
      <trkpt lat="46.82657" lon="5.56496">
        <ele>237.1</ele>
        <time>2022-07-17T12:36:27Z</time>
      </trkpt>
      <trkpt lat="46.82656" lon="5.56497">
        <ele>237.58</ele>
        <time>2022-07-17T12:36:28Z</time>
      </trkpt>
      <trkpt lat="46.82651" lon="5.56506">
        <ele>238.06</ele>
        <time>2022-07-17T12:36:33Z</time>
      </trkpt>
      <trkpt lat="46.82649" lon="5.56508">
        <ele>238.54</ele>
        <time>2022-07-17T12:36:35Z</time>
      </trkpt>
      <trkpt lat="46.82648" lon="5.56509">
        <ele>238.54</ele>
        <time>2022-07-17T12:36:36Z</time>
      </trkpt>
      <trkpt lat="46.82633" lon="5.56543">
        <ele>241.91</ele>
        <time>2022-07-17T12:36:53Z</time>
      </trkpt>
      <trkpt lat="46.82616" lon="5.56583">
        <ele>244.31</ele>
        <time>2022-07-17T12:37:09Z</time>
      </trkpt>
      <trkpt lat="46.82604" lon="5.56615">
        <ele>244.31</ele>
        <time>2022-07-17T12:37:22Z</time>
      </trkpt>
      <trkpt lat="46.82598" lon="5.5662">
        <ele>244.31</ele>
        <time>2022-07-17T12:37:28Z</time>
      </trkpt>
      <trkpt lat="46.82598" lon="5.56622">
        <ele>244.79</ele>
        <time>2022-07-17T12:37:29Z</time>
      </trkpt>
      <trkpt lat="46.82599" lon="5.56624">
        <ele>244.31</ele>
        <time>2022-07-17T12:37:30Z</time>
      </trkpt>
      <trkpt lat="46.826" lon="5.56627">
        <ele>245.27</ele>
        <time>2022-07-17T12:37:31Z</time>
      </trkpt>
      <trkpt lat="46.82601" lon="5.5663">
        <ele>245.27</ele>
        <time>2022-07-17T12:37:32Z</time>
      </trkpt>
      <trkpt lat="46.82602" lon="5.56634">
        <ele>244.79</ele>
        <time>2022-07-17T12:37:33Z</time>
      </trkpt>
      <trkpt lat="46.82603" lon="5.56638">
        <ele>244.79</ele>
        <time>2022-07-17T12:37:34Z</time>
      </trkpt>
      <trkpt lat="46.826" lon="5.56703">
        <ele>246.72</ele>
        <time>2022-07-17T12:37:47Z</time>
      </trkpt>
      <trkpt lat="46.82597" lon="5.56774">
        <ele>248.16</ele>
        <time>2022-07-17T12:38:02Z</time>
      </trkpt>
      <trkpt lat="46.82582" lon="5.56835">
        <ele>249.12</ele>
        <time>2022-07-17T12:38:17Z</time>
      </trkpt>
      <trkpt lat="46.82577" lon="5.56845">
        <ele>248.64</ele>
        <time>2022-07-17T12:38:19Z</time>
      </trkpt>
      <trkpt lat="46.82573" lon="5.56849">
        <ele>248.64</ele>
        <time>2022-07-17T12:38:20Z</time>
      </trkpt>
      <trkpt lat="46.82569" lon="5.56854">
        <ele>248.64</ele>
        <time>2022-07-17T12:38:21Z</time>
      </trkpt>
      <trkpt lat="46.82564" lon="5.56858">
        <ele>248.16</ele>
        <time>2022-07-17T12:38:22Z</time>
      </trkpt>
      <trkpt lat="46.82559" lon="5.56862">
        <ele>247.68</ele>
        <time>2022-07-17T12:38:23Z</time>
      </trkpt>
      <trkpt lat="46.82554" lon="5.56864">
        <ele>247.2</ele>
        <time>2022-07-17T12:38:24Z</time>
      </trkpt>
      <trkpt lat="46.82548" lon="5.56867">
        <ele>246.72</ele>
        <time>2022-07-17T12:38:25Z</time>
      </trkpt>
      <trkpt lat="46.82541" lon="5.56868">
        <ele>246.23</ele>
        <time>2022-07-17T12:38:26Z</time>
      </trkpt>
      <trkpt lat="46.82535" lon="5.5687">
        <ele>246.23</ele>
        <time>2022-07-17T12:38:27Z</time>
      </trkpt>
      <trkpt lat="46.82528" lon="5.56871">
        <ele>246.23</ele>
        <time>2022-07-17T12:38:28Z</time>
      </trkpt>
      <trkpt lat="46.82507" lon="5.56877">
        <ele>244.79</ele>
        <time>2022-07-17T12:38:31Z</time>
      </trkpt>
      <trkpt lat="46.82499" lon="5.56881">
        <ele>244.31</ele>
        <time>2022-07-17T12:38:32Z</time>
      </trkpt>
      <trkpt lat="46.82492" lon="5.56886">
        <ele>243.83</ele>
        <time>2022-07-17T12:38:33Z</time>
      </trkpt>
      <trkpt lat="46.82485" lon="5.56893">
        <ele>244.31</ele>
        <time>2022-07-17T12:38:34Z</time>
      </trkpt>
      <trkpt lat="46.82479" lon="5.56901">
        <ele>243.83</ele>
        <time>2022-07-17T12:38:35Z</time>
      </trkpt>
      <trkpt lat="46.82474" lon="5.5691">
        <ele>242.87</ele>
        <time>2022-07-17T12:38:36Z</time>
      </trkpt>
      <trkpt lat="46.82469" lon="5.56922">
        <ele>242.87</ele>
        <time>2022-07-17T12:38:37Z</time>
      </trkpt>
      <trkpt lat="46.82465" lon="5.56934">
        <ele>242.39</ele>
        <time>2022-07-17T12:38:38Z</time>
      </trkpt>
      <trkpt lat="46.8244" lon="5.5702">
        <ele>242.39</ele>
        <time>2022-07-17T12:38:47Z</time>
      </trkpt>
      <trkpt lat="46.82439" lon="5.57029">
        <ele>242.39</ele>
        <time>2022-07-17T12:38:48Z</time>
      </trkpt>
      <trkpt lat="46.8243" lon="5.57164">
        <ele>240.47</ele>
        <time>2022-07-17T12:39:02Z</time>
      </trkpt>
      <trkpt lat="46.82439" lon="5.57258">
        <ele>237.58</ele>
        <time>2022-07-17T12:39:10Z</time>
      </trkpt>
      <trkpt lat="46.82442" lon="5.57268">
        <ele>237.58</ele>
        <time>2022-07-17T12:39:11Z</time>
      </trkpt>
      <trkpt lat="46.82445" lon="5.57278">
        <ele>237.58</ele>
        <time>2022-07-17T12:39:12Z</time>
      </trkpt>
      <trkpt lat="46.82448" lon="5.57287">
        <ele>237.58</ele>
        <time>2022-07-17T12:39:13Z</time>
      </trkpt>
      <trkpt lat="46.8245" lon="5.57297">
        <ele>236.62</ele>
        <time>2022-07-17T12:39:14Z</time>
      </trkpt>
      <trkpt lat="46.82451" lon="5.57306">
        <ele>236.62</ele>
        <time>2022-07-17T12:39:15Z</time>
      </trkpt>
      <trkpt lat="46.82452" lon="5.57316">
        <ele>236.62</ele>
        <time>2022-07-17T12:39:16Z</time>
      </trkpt>
      <trkpt lat="46.82452" lon="5.57325">
        <ele>236.14</ele>
        <time>2022-07-17T12:39:17Z</time>
      </trkpt>
      <trkpt lat="46.82439" lon="5.57433">
        <ele>236.14</ele>
        <time>2022-07-17T12:39:32Z</time>
      </trkpt>
      <trkpt lat="46.82436" lon="5.57449">
        <ele>236.14</ele>
        <time>2022-07-17T12:39:41Z</time>
      </trkpt>
      <trkpt lat="46.82436" lon="5.57447">
        <ele>235.18</ele>
        <time>2022-07-17T12:40:06Z</time>
      </trkpt>
      <trkpt lat="46.82435" lon="5.57447">
        <ele>236.62</ele>
        <time>2022-07-17T12:40:12Z</time>
      </trkpt>
      <trkpt lat="46.82435" lon="5.57462">
        <ele>236.14</ele>
        <time>2022-07-17T12:40:26Z</time>
      </trkpt>
      <trkpt lat="46.82432" lon="5.57488">
        <ele>236.14</ele>
        <time>2022-07-17T12:40:31Z</time>
      </trkpt>
      <trkpt lat="46.82419" lon="5.57594">
        <ele>238.06</ele>
        <time>2022-07-17T12:40:47Z</time>
      </trkpt>
      <trkpt lat="46.82413" lon="5.57637">
        <ele>240.47</ele>
        <time>2022-07-17T12:40:57Z</time>
      </trkpt>
      <trkpt lat="46.82405" lon="5.57703">
        <ele>242.39</ele>
        <time>2022-07-17T12:41:11Z</time>
      </trkpt>
      <trkpt lat="46.82396" lon="5.57772">
        <ele>244.31</ele>
        <time>2022-07-17T12:41:28Z</time>
      </trkpt>
      <trkpt lat="46.82388" lon="5.57834">
        <ele>246.72</ele>
        <time>2022-07-17T12:41:45Z</time>
      </trkpt>
      <trkpt lat="46.82383" lon="5.57882">
        <ele>248.64</ele>
        <time>2022-07-17T12:41:58Z</time>
      </trkpt>
      <trkpt lat="46.82377" lon="5.57918">
        <ele>249.6</ele>
        <time>2022-07-17T12:42:12Z</time>
      </trkpt>
      <trkpt lat="46.82375" lon="5.57924">
        <ele>249.6</ele>
        <time>2022-07-17T12:42:23Z</time>
      </trkpt>
      <trkpt lat="46.82371" lon="5.57976">
        <ele>250.56</ele>
        <time>2022-07-17T12:42:38Z</time>
      </trkpt>
      <trkpt lat="46.82363" lon="5.58036">
        <ele>252</ele>
        <time>2022-07-17T12:42:55Z</time>
      </trkpt>
      <trkpt lat="46.82356" lon="5.58098">
        <ele>254.41</ele>
        <time>2022-07-17T12:43:12Z</time>
      </trkpt>
      <trkpt lat="46.8235" lon="5.5815">
        <ele>256.33</ele>
        <time>2022-07-17T12:43:28Z</time>
      </trkpt>
      <trkpt lat="46.82344" lon="5.58197">
        <ele>257.77</ele>
        <time>2022-07-17T12:43:42Z</time>
      </trkpt>
      <trkpt lat="46.82336" lon="5.58256">
        <ele>260.17</ele>
        <time>2022-07-17T12:43:58Z</time>
      </trkpt>
      <trkpt lat="46.82326" lon="5.5832">
        <ele>263.06</ele>
        <time>2022-07-17T12:44:17Z</time>
      </trkpt>
      <trkpt lat="46.82324" lon="5.58343">
        <ele>264.02</ele>
        <time>2022-07-17T12:44:24Z</time>
      </trkpt>
      <trkpt lat="46.82322" lon="5.584">
        <ele>264.98</ele>
        <time>2022-07-17T12:44:41Z</time>
      </trkpt>
      <trkpt lat="46.82325" lon="5.58458">
        <ele>266.42</ele>
        <time>2022-07-17T12:44:56Z</time>
      </trkpt>
      <trkpt lat="46.82326" lon="5.58482">
        <ele>266.9</ele>
        <time>2022-07-17T12:45:10Z</time>
      </trkpt>
      <trkpt lat="46.82326" lon="5.58496">
        <ele>266.9</ele>
        <time>2022-07-17T12:45:35Z</time>
      </trkpt>
      <trkpt lat="46.8233" lon="5.58545">
        <ele>269.79</ele>
        <time>2022-07-17T12:45:48Z</time>
      </trkpt>
      <trkpt lat="46.82319" lon="5.58597">
        <ele>271.71</ele>
        <time>2022-07-17T12:46:05Z</time>
      </trkpt>
      <trkpt lat="46.82308" lon="5.58603">
        <ele>272.19</ele>
        <time>2022-07-17T12:46:10Z</time>
      </trkpt>
      <trkpt lat="46.82306" lon="5.58603">
        <ele>271.71</ele>
        <time>2022-07-17T12:46:11Z</time>
      </trkpt>
      <trkpt lat="46.82304" lon="5.58602">
        <ele>272.19</ele>
        <time>2022-07-17T12:46:12Z</time>
      </trkpt>
      <trkpt lat="46.82302" lon="5.58601">
        <ele>272.67</ele>
        <time>2022-07-17T12:46:13Z</time>
      </trkpt>
      <trkpt lat="46.82301" lon="5.58601">
        <ele>272.67</ele>
        <time>2022-07-17T12:46:14Z</time>
      </trkpt>
      <trkpt lat="46.82299" lon="5.58602">
        <ele>272.19</ele>
        <time>2022-07-17T12:46:25Z</time>
      </trkpt>
      <trkpt lat="46.82302" lon="5.58602">
        <ele>272.19</ele>
        <time>2022-07-17T12:46:58Z</time>
      </trkpt>
      <trkpt lat="46.82309" lon="5.58606">
        <ele>272.19</ele>
        <time>2022-07-17T12:47:34Z</time>
      </trkpt>
      <trkpt lat="46.82309" lon="5.58601">
        <ele>273.15</ele>
        <time>2022-07-17T12:48:15Z</time>
      </trkpt>
      <trkpt lat="46.82305" lon="5.58595">
        <ele>272.67</ele>
        <time>2022-07-17T12:48:25Z</time>
      </trkpt>
      <trkpt lat="46.8228" lon="5.58553">
        <ele>272.19</ele>
        <time>2022-07-17T12:48:36Z</time>
      </trkpt>
      <trkpt lat="46.82228" lon="5.58478">
        <ele>268.83</ele>
        <time>2022-07-17T12:48:49Z</time>
      </trkpt>
      <trkpt lat="46.82163" lon="5.58421">
        <ele>265.46</ele>
        <time>2022-07-17T12:49:00Z</time>
      </trkpt>
      <trkpt lat="46.82101" lon="5.5837">
        <ele>261.62</ele>
        <time>2022-07-17T12:49:08Z</time>
      </trkpt>
      <trkpt lat="46.82093" lon="5.58363">
        <ele>261.14</ele>
        <time>2022-07-17T12:49:09Z</time>
      </trkpt>
      <trkpt lat="46.82045" lon="5.5831">
        <ele>257.77</ele>
        <time>2022-07-17T12:49:15Z</time>
      </trkpt>
      <trkpt lat="46.82029" lon="5.58292">
        <ele>256.81</ele>
        <time>2022-07-17T12:49:17Z</time>
      </trkpt>
      <trkpt lat="46.81989" lon="5.58245">
        <ele>253.93</ele>
        <time>2022-07-17T12:49:22Z</time>
      </trkpt>
      <trkpt lat="46.8194" lon="5.58188">
        <ele>250.56</ele>
        <time>2022-07-17T12:49:28Z</time>
      </trkpt>
      <trkpt lat="46.81918" lon="5.58159">
        <ele>249.12</ele>
        <time>2022-07-17T12:49:31Z</time>
      </trkpt>
      <trkpt lat="46.81905" lon="5.5814">
        <ele>247.68</ele>
        <time>2022-07-17T12:49:33Z</time>
      </trkpt>
      <trkpt lat="46.81876" lon="5.58093">
        <ele>244.31</ele>
        <time>2022-07-17T12:49:40Z</time>
      </trkpt>
      <trkpt lat="46.81871" lon="5.58093">
        <ele>244.31</ele>
        <time>2022-07-17T12:49:48Z</time>
      </trkpt>
      <trkpt lat="46.8187" lon="5.58093">
        <ele>245.27</ele>
        <time>2022-07-17T12:49:49Z</time>
      </trkpt>
      <trkpt lat="46.81868" lon="5.58091">
        <ele>246.72</ele>
        <time>2022-07-17T12:49:50Z</time>
      </trkpt>
      <trkpt lat="46.81867" lon="5.58088">
        <ele>246.23</ele>
        <time>2022-07-17T12:49:51Z</time>
      </trkpt>
      <trkpt lat="46.81866" lon="5.58083">
        <ele>248.16</ele>
        <time>2022-07-17T12:49:52Z</time>
      </trkpt>
      <trkpt lat="46.81863" lon="5.5807">
        <ele>245.27</ele>
        <time>2022-07-17T12:49:54Z</time>
      </trkpt>
      <trkpt lat="46.8186" lon="5.58064">
        <ele>244.79</ele>
        <time>2022-07-17T12:49:55Z</time>
      </trkpt>
      <trkpt lat="46.81856" lon="5.58058">
        <ele>245.27</ele>
        <time>2022-07-17T12:49:56Z</time>
      </trkpt>
      <trkpt lat="46.81843" lon="5.58038">
        <ele>242.39</ele>
        <time>2022-07-17T12:49:59Z</time>
      </trkpt>
      <trkpt lat="46.81767" lon="5.5792">
        <ele>240.47</ele>
        <time>2022-07-17T12:50:15Z</time>
      </trkpt>
      <trkpt lat="46.8176" lon="5.57906">
        <ele>240.95</ele>
        <time>2022-07-17T12:50:17Z</time>
      </trkpt>
      <trkpt lat="46.81757" lon="5.57898">
        <ele>240.95</ele>
        <time>2022-07-17T12:50:18Z</time>
      </trkpt>
      <trkpt lat="46.8175" lon="5.57876">
        <ele>240.95</ele>
        <time>2022-07-17T12:50:21Z</time>
      </trkpt>
      <trkpt lat="46.81749" lon="5.57868">
        <ele>240.47</ele>
        <time>2022-07-17T12:50:22Z</time>
      </trkpt>
      <trkpt lat="46.81745" lon="5.57847">
        <ele>240.47</ele>
        <time>2022-07-17T12:50:25Z</time>
      </trkpt>
      <trkpt lat="46.81743" lon="5.5784">
        <ele>240.47</ele>
        <time>2022-07-17T12:50:26Z</time>
      </trkpt>
      <trkpt lat="46.81697" lon="5.57755">
        <ele>239.99</ele>
        <time>2022-07-17T12:50:38Z</time>
      </trkpt>
      <trkpt lat="46.81693" lon="5.57748">
        <ele>239.99</ele>
        <time>2022-07-17T12:50:39Z</time>
      </trkpt>
      <trkpt lat="46.81625" lon="5.57636">
        <ele>240.47</ele>
        <time>2022-07-17T12:50:57Z</time>
      </trkpt>
      <trkpt lat="46.81589" lon="5.57571">
        <ele>241.43</ele>
        <time>2022-07-17T12:51:12Z</time>
      </trkpt>
      <trkpt lat="46.8155" lon="5.57506">
        <ele>244.31</ele>
        <time>2022-07-17T12:51:32Z</time>
      </trkpt>
      <trkpt lat="46.81533" lon="5.57481">
        <ele>245.27</ele>
        <time>2022-07-17T12:51:42Z</time>
      </trkpt>
      <trkpt lat="46.81532" lon="5.57479">
        <ele>245.75</ele>
        <time>2022-07-17T12:51:43Z</time>
      </trkpt>
      <trkpt lat="46.81531" lon="5.57477">
        <ele>246.23</ele>
        <time>2022-07-17T12:51:44Z</time>
      </trkpt>
      <trkpt lat="46.81529" lon="5.57475">
        <ele>246.23</ele>
        <time>2022-07-17T12:51:45Z</time>
      </trkpt>
      <trkpt lat="46.81528" lon="5.57474">
        <ele>246.72</ele>
        <time>2022-07-17T12:51:46Z</time>
      </trkpt>
      <trkpt lat="46.81527" lon="5.57473">
        <ele>246.72</ele>
        <time>2022-07-17T12:51:47Z</time>
      </trkpt>
      <trkpt lat="46.81505" lon="5.57442">
        <ele>249.12</ele>
        <time>2022-07-17T12:52:03Z</time>
      </trkpt>
      <trkpt lat="46.81477" lon="5.57409">
        <ele>251.52</ele>
        <time>2022-07-17T12:52:21Z</time>
      </trkpt>
      <trkpt lat="46.8144" lon="5.57367">
        <ele>252.96</ele>
        <time>2022-07-17T12:52:41Z</time>
      </trkpt>
      <trkpt lat="46.81405" lon="5.57323">
        <ele>251.52</ele>
        <time>2022-07-17T12:52:57Z</time>
      </trkpt>
      <trkpt lat="46.81347" lon="5.57247">
        <ele>249.6</ele>
        <time>2022-07-17T12:53:13Z</time>
      </trkpt>
      <trkpt lat="46.81324" lon="5.57216">
        <ele>249.6</ele>
        <time>2022-07-17T12:53:20Z</time>
      </trkpt>
      <trkpt lat="46.81318" lon="5.57207">
        <ele>249.6</ele>
        <time>2022-07-17T12:53:22Z</time>
      </trkpt>
      <trkpt lat="46.81283" lon="5.57153">
        <ele>250.08</ele>
        <time>2022-07-17T12:53:37Z</time>
      </trkpt>
      <trkpt lat="46.81234" lon="5.57078">
        <ele>250.56</ele>
        <time>2022-07-17T12:53:50Z</time>
      </trkpt>
      <trkpt lat="46.81172" lon="5.56999">
        <ele>252</ele>
        <time>2022-07-17T12:54:07Z</time>
      </trkpt>
      <trkpt lat="46.8112" lon="5.56941">
        <ele>253.44</ele>
        <time>2022-07-17T12:54:23Z</time>
      </trkpt>
      <trkpt lat="46.81113" lon="5.56935">
        <ele>253.44</ele>
        <time>2022-07-17T12:54:25Z</time>
      </trkpt>
      <trkpt lat="46.81051" lon="5.56904">
        <ele>253.44</ele>
        <time>2022-07-17T12:54:41Z</time>
      </trkpt>
      <trkpt lat="46.80973" lon="5.56868">
        <ele>254.41</ele>
        <time>2022-07-17T12:54:59Z</time>
      </trkpt>
      <trkpt lat="46.80898" lon="5.56846">
        <ele>254.89</ele>
        <time>2022-07-17T12:55:16Z</time>
      </trkpt>
      <trkpt lat="46.80833" lon="5.56826">
        <ele>256.81</ele>
        <time>2022-07-17T12:55:34Z</time>
      </trkpt>
      <trkpt lat="46.80774" lon="5.56811">
        <ele>258.73</ele>
        <time>2022-07-17T12:55:54Z</time>
      </trkpt>
      <trkpt lat="46.80731" lon="5.56802">
        <ele>260.17</ele>
        <time>2022-07-17T12:56:06Z</time>
      </trkpt>
      <trkpt lat="46.80665" lon="5.5677">
        <ele>260.17</ele>
        <time>2022-07-17T12:56:24Z</time>
      </trkpt>
      <trkpt lat="46.80605" lon="5.56732">
        <ele>260.65</ele>
        <time>2022-07-17T12:56:44Z</time>
      </trkpt>
      <trkpt lat="46.80558" lon="5.56699">
        <ele>262.1</ele>
        <time>2022-07-17T12:57:03Z</time>
      </trkpt>
      <trkpt lat="46.80504" lon="5.56656">
        <ele>263.06</ele>
        <time>2022-07-17T12:57:23Z</time>
      </trkpt>
      <trkpt lat="46.80458" lon="5.56619">
        <ele>264.5</ele>
        <time>2022-07-17T12:57:41Z</time>
      </trkpt>
      <trkpt lat="46.80418" lon="5.56585">
        <ele>265.94</ele>
        <time>2022-07-17T12:57:58Z</time>
      </trkpt>
      <trkpt lat="46.80382" lon="5.56555">
        <ele>268.35</ele>
        <time>2022-07-17T12:58:17Z</time>
      </trkpt>
      <trkpt lat="46.8035" lon="5.56527">
        <ele>271.23</ele>
        <time>2022-07-17T12:58:35Z</time>
      </trkpt>
      <trkpt lat="46.80311" lon="5.56493">
        <ele>272.67</ele>
        <time>2022-07-17T12:58:54Z</time>
      </trkpt>
      <trkpt lat="46.80261" lon="5.56466">
        <ele>275.56</ele>
        <time>2022-07-17T12:59:15Z</time>
      </trkpt>
      <trkpt lat="46.80223" lon="5.56446">
        <ele>278.44</ele>
        <time>2022-07-17T12:59:33Z</time>
      </trkpt>
      <trkpt lat="46.80189" lon="5.56429">
        <ele>281.32</ele>
        <time>2022-07-17T12:59:52Z</time>
      </trkpt>
      <trkpt lat="46.80155" lon="5.56412">
        <ele>284.21</ele>
        <time>2022-07-17T13:00:10Z</time>
      </trkpt>
      <trkpt lat="46.8013" lon="5.56396">
        <ele>287.57</ele>
        <time>2022-07-17T13:00:25Z</time>
      </trkpt>
      <trkpt lat="46.801" lon="5.56368">
        <ele>289.97</ele>
        <time>2022-07-17T13:00:43Z</time>
      </trkpt>
      <trkpt lat="46.80077" lon="5.56342">
        <ele>291.42</ele>
        <time>2022-07-17T13:00:57Z</time>
      </trkpt>
      <trkpt lat="46.8007" lon="5.56329">
        <ele>291.9</ele>
        <time>2022-07-17T13:01:08Z</time>
      </trkpt>
      <trkpt lat="46.80071" lon="5.56327">
        <ele>292.86</ele>
        <time>2022-07-17T13:01:38Z</time>
      </trkpt>
      <trkpt lat="46.8007" lon="5.56331">
        <ele>292.38</ele>
        <time>2022-07-17T13:02:08Z</time>
      </trkpt>
      <trkpt lat="46.80073" lon="5.5633">
        <ele>292.86</ele>
        <time>2022-07-17T13:02:39Z</time>
      </trkpt>
      <trkpt lat="46.80072" lon="5.5633">
        <ele>292.86</ele>
        <time>2022-07-17T13:03:10Z</time>
      </trkpt>
      <trkpt lat="46.8007" lon="5.56328">
        <ele>292.86</ele>
        <time>2022-07-17T13:03:42Z</time>
      </trkpt>
      <trkpt lat="46.80071" lon="5.5633">
        <ele>292.86</ele>
        <time>2022-07-17T13:04:17Z</time>
      </trkpt>
      <trkpt lat="46.80069" lon="5.56331">
        <ele>293.82</ele>
        <time>2022-07-17T13:04:34Z</time>
      </trkpt>
      <trkpt lat="46.80066" lon="5.56334">
        <ele>292.86</ele>
        <time>2022-07-17T13:05:12Z</time>
      </trkpt>
      <trkpt lat="46.80063" lon="5.56333">
        <ele>293.82</ele>
        <time>2022-07-17T13:05:23Z</time>
      </trkpt>
      <trkpt lat="46.80062" lon="5.56331">
        <ele>293.34</ele>
        <time>2022-07-17T13:05:24Z</time>
      </trkpt>
      <trkpt lat="46.80061" lon="5.56329">
        <ele>293.82</ele>
        <time>2022-07-17T13:05:25Z</time>
      </trkpt>
      <trkpt lat="46.8006" lon="5.56328">
        <ele>293.82</ele>
        <time>2022-07-17T13:05:26Z</time>
      </trkpt>
      <trkpt lat="46.80059" lon="5.56326">
        <ele>293.82</ele>
        <time>2022-07-17T13:05:27Z</time>
      </trkpt>
      <trkpt lat="46.80058" lon="5.56324">
        <ele>294.3</ele>
        <time>2022-07-17T13:05:28Z</time>
      </trkpt>
      <trkpt lat="46.80057" lon="5.56323">
        <ele>294.3</ele>
        <time>2022-07-17T13:05:29Z</time>
      </trkpt>
      <trkpt lat="46.8003" lon="5.56296">
        <ele>295.74</ele>
        <time>2022-07-17T13:05:45Z</time>
      </trkpt>
      <trkpt lat="46.79991" lon="5.56256">
        <ele>297.18</ele>
        <time>2022-07-17T13:06:03Z</time>
      </trkpt>
      <trkpt lat="46.79954" lon="5.56219">
        <ele>296.7</ele>
        <time>2022-07-17T13:06:18Z</time>
      </trkpt>
      <trkpt lat="46.79909" lon="5.56183">
        <ele>296.22</ele>
        <time>2022-07-17T13:06:34Z</time>
      </trkpt>
      <trkpt lat="46.79869" lon="5.56172">
        <ele>296.7</ele>
        <time>2022-07-17T13:06:47Z</time>
      </trkpt>
      <trkpt lat="46.79815" lon="5.56152">
        <ele>296.22</ele>
        <time>2022-07-17T13:07:04Z</time>
      </trkpt>
      <trkpt lat="46.79776" lon="5.56109">
        <ele>297.67</ele>
        <time>2022-07-17T13:07:19Z</time>
      </trkpt>
      <trkpt lat="46.79752" lon="5.56076">
        <ele>301.03</ele>
        <time>2022-07-17T13:07:34Z</time>
      </trkpt>
      <trkpt lat="46.79728" lon="5.56048">
        <ele>302.95</ele>
        <time>2022-07-17T13:07:51Z</time>
      </trkpt>
      <trkpt lat="46.79727" lon="5.56046">
        <ele>303.43</ele>
        <time>2022-07-17T13:07:52Z</time>
      </trkpt>
      <trkpt lat="46.79726" lon="5.56044">
        <ele>303.43</ele>
        <time>2022-07-17T13:07:53Z</time>
      </trkpt>
      <trkpt lat="46.79725" lon="5.56042">
        <ele>304.39</ele>
        <time>2022-07-17T13:07:54Z</time>
      </trkpt>
      <trkpt lat="46.79724" lon="5.5604">
        <ele>303.91</ele>
        <time>2022-07-17T13:07:55Z</time>
      </trkpt>
      <trkpt lat="46.79723" lon="5.56038">
        <ele>304.39</ele>
        <time>2022-07-17T13:07:56Z</time>
      </trkpt>
      <trkpt lat="46.79721" lon="5.56037">
        <ele>304.39</ele>
        <time>2022-07-17T13:07:57Z</time>
      </trkpt>
      <trkpt lat="46.7972" lon="5.56035">
        <ele>305.36</ele>
        <time>2022-07-17T13:07:58Z</time>
      </trkpt>
      <trkpt lat="46.79719" lon="5.56033">
        <ele>305.36</ele>
        <time>2022-07-17T13:07:59Z</time>
      </trkpt>
      <trkpt lat="46.79704" lon="5.56009">
        <ele>308.24</ele>
        <time>2022-07-17T13:08:14Z</time>
      </trkpt>
      <trkpt lat="46.79684" lon="5.55978">
        <ele>310.64</ele>
        <time>2022-07-17T13:08:33Z</time>
      </trkpt>
      <trkpt lat="46.79662" lon="5.55953">
        <ele>312.09</ele>
        <time>2022-07-17T13:08:50Z</time>
      </trkpt>
      <trkpt lat="46.79655" lon="5.5592">
        <ele>311.6</ele>
        <time>2022-07-17T13:09:03Z</time>
      </trkpt>
      <trkpt lat="46.79665" lon="5.55834">
        <ele>311.12</ele>
        <time>2022-07-17T13:09:20Z</time>
      </trkpt>
      <trkpt lat="46.79663" lon="5.55828">
        <ele>311.12</ele>
        <time>2022-07-17T13:09:21Z</time>
      </trkpt>
      <trkpt lat="46.79661" lon="5.55822">
        <ele>310.64</ele>
        <time>2022-07-17T13:09:22Z</time>
      </trkpt>
      <trkpt lat="46.79658" lon="5.55816">
        <ele>310.64</ele>
        <time>2022-07-17T13:09:23Z</time>
      </trkpt>
      <trkpt lat="46.79655" lon="5.55811">
        <ele>311.12</ele>
        <time>2022-07-17T13:09:24Z</time>
      </trkpt>
      <trkpt lat="46.79651" lon="5.55806">
        <ele>310.16</ele>
        <time>2022-07-17T13:09:25Z</time>
      </trkpt>
      <trkpt lat="46.79647" lon="5.55803">
        <ele>310.64</ele>
        <time>2022-07-17T13:09:26Z</time>
      </trkpt>
      <trkpt lat="46.79578" lon="5.55741">
        <ele>307.76</ele>
        <time>2022-07-17T13:09:39Z</time>
      </trkpt>
      <trkpt lat="46.79533" lon="5.55701">
        <ele>304.88</ele>
        <time>2022-07-17T13:09:46Z</time>
      </trkpt>
      <trkpt lat="46.79479" lon="5.55642">
        <ele>301.03</ele>
        <time>2022-07-17T13:09:54Z</time>
      </trkpt>
      <trkpt lat="46.79438" lon="5.55587">
        <ele>297.67</ele>
        <time>2022-07-17T13:10:00Z</time>
      </trkpt>
      <trkpt lat="46.79432" lon="5.55577">
        <ele>298.15</ele>
        <time>2022-07-17T13:10:01Z</time>
      </trkpt>
      <trkpt lat="46.79385" lon="5.55512">
        <ele>295.74</ele>
        <time>2022-07-17T13:10:08Z</time>
      </trkpt>
      <trkpt lat="46.7938" lon="5.55502">
        <ele>294.78</ele>
        <time>2022-07-17T13:10:09Z</time>
      </trkpt>
      <trkpt lat="46.79376" lon="5.55491">
        <ele>295.26</ele>
        <time>2022-07-17T13:10:10Z</time>
      </trkpt>
      <trkpt lat="46.79376" lon="5.55478">
        <ele>294.78</ele>
        <time>2022-07-17T13:10:11Z</time>
      </trkpt>
      <trkpt lat="46.79378" lon="5.55467">
        <ele>294.78</ele>
        <time>2022-07-17T13:10:12Z</time>
      </trkpt>
      <trkpt lat="46.79383" lon="5.55457">
        <ele>293.82</ele>
        <time>2022-07-17T13:10:13Z</time>
      </trkpt>
      <trkpt lat="46.7939" lon="5.55449">
        <ele>293.34</ele>
        <time>2022-07-17T13:10:14Z</time>
      </trkpt>
      <trkpt lat="46.79398" lon="5.55443">
        <ele>293.34</ele>
        <time>2022-07-17T13:10:15Z</time>
      </trkpt>
      <trkpt lat="46.79406" lon="5.5544">
        <ele>292.38</ele>
        <time>2022-07-17T13:10:16Z</time>
      </trkpt>
      <trkpt lat="46.79414" lon="5.55437">
        <ele>292.38</ele>
        <time>2022-07-17T13:10:17Z</time>
      </trkpt>
      <trkpt lat="46.79422" lon="5.55434">
        <ele>292.38</ele>
        <time>2022-07-17T13:10:18Z</time>
      </trkpt>
      <trkpt lat="46.79445" lon="5.55427">
        <ele>290.46</ele>
        <time>2022-07-17T13:10:21Z</time>
      </trkpt>
      <trkpt lat="46.79535" lon="5.55406">
        <ele>288.53</ele>
        <time>2022-07-17T13:10:34Z</time>
      </trkpt>
      <trkpt lat="46.79622" lon="5.55417">
        <ele>286.13</ele>
        <time>2022-07-17T13:10:49Z</time>
      </trkpt>
      <trkpt lat="46.79689" lon="5.55424">
        <ele>283.25</ele>
        <time>2022-07-17T13:11:01Z</time>
      </trkpt>
      <trkpt lat="46.79741" lon="5.55423">
        <ele>280.36</ele>
        <time>2022-07-17T13:11:09Z</time>
      </trkpt>
      <trkpt lat="46.79755" lon="5.55423">
        <ele>279.4</ele>
        <time>2022-07-17T13:11:11Z</time>
      </trkpt>
      <trkpt lat="46.79799" lon="5.55419">
        <ele>277.96</ele>
        <time>2022-07-17T13:11:17Z</time>
      </trkpt>
      <trkpt lat="46.79806" lon="5.55416">
        <ele>277.48</ele>
        <time>2022-07-17T13:11:18Z</time>
      </trkpt>
      <trkpt lat="46.79813" lon="5.55412">
        <ele>277</ele>
        <time>2022-07-17T13:11:19Z</time>
      </trkpt>
      <trkpt lat="46.7982" lon="5.55408">
        <ele>277</ele>
        <time>2022-07-17T13:11:20Z</time>
      </trkpt>
      <trkpt lat="46.79827" lon="5.55402">
        <ele>276.04</ele>
        <time>2022-07-17T13:11:21Z</time>
      </trkpt>
      <trkpt lat="46.79833" lon="5.55396">
        <ele>275.07</ele>
        <time>2022-07-17T13:11:22Z</time>
      </trkpt>
      <trkpt lat="46.79839" lon="5.55389">
        <ele>275.56</ele>
        <time>2022-07-17T13:11:23Z</time>
      </trkpt>
      <trkpt lat="46.79845" lon="5.55381">
        <ele>274.59</ele>
        <time>2022-07-17T13:11:24Z</time>
      </trkpt>
      <trkpt lat="46.79851" lon="5.55373">
        <ele>274.11</ele>
        <time>2022-07-17T13:11:25Z</time>
      </trkpt>
      <trkpt lat="46.79868" lon="5.55347">
        <ele>275.56</ele>
        <time>2022-07-17T13:11:28Z</time>
      </trkpt>
      <trkpt lat="46.79881" lon="5.5533">
        <ele>272.19</ele>
        <time>2022-07-17T13:11:30Z</time>
      </trkpt>
      <trkpt lat="46.79898" lon="5.55301">
        <ele>272.19</ele>
        <time>2022-07-17T13:11:33Z</time>
      </trkpt>
      <trkpt lat="46.79902" lon="5.5529">
        <ele>271.23</ele>
        <time>2022-07-17T13:11:34Z</time>
      </trkpt>
      <trkpt lat="46.79906" lon="5.55279">
        <ele>270.75</ele>
        <time>2022-07-17T13:11:35Z</time>
      </trkpt>
      <trkpt lat="46.79908" lon="5.55268">
        <ele>271.71</ele>
        <time>2022-07-17T13:11:36Z</time>
      </trkpt>
      <trkpt lat="46.79909" lon="5.55257">
        <ele>271.23</ele>
        <time>2022-07-17T13:11:37Z</time>
      </trkpt>
      <trkpt lat="46.7991" lon="5.55246">
        <ele>270.27</ele>
        <time>2022-07-17T13:11:38Z</time>
      </trkpt>
      <trkpt lat="46.7991" lon="5.55235">
        <ele>270.75</ele>
        <time>2022-07-17T13:11:39Z</time>
      </trkpt>
      <trkpt lat="46.7991" lon="5.55225">
        <ele>271.71</ele>
        <time>2022-07-17T13:11:40Z</time>
      </trkpt>
      <trkpt lat="46.79909" lon="5.55215">
        <ele>271.71</ele>
        <time>2022-07-17T13:11:41Z</time>
      </trkpt>
      <trkpt lat="46.79903" lon="5.55113">
        <ele>268.83</ele>
        <time>2022-07-17T13:11:51Z</time>
      </trkpt>
      <trkpt lat="46.79904" lon="5.55102">
        <ele>269.31</ele>
        <time>2022-07-17T13:11:52Z</time>
      </trkpt>
      <trkpt lat="46.79906" lon="5.55091">
        <ele>268.35</ele>
        <time>2022-07-17T13:11:53Z</time>
      </trkpt>
      <trkpt lat="46.79911" lon="5.55081">
        <ele>267.38</ele>
        <time>2022-07-17T13:11:54Z</time>
      </trkpt>
      <trkpt lat="46.79916" lon="5.55072">
        <ele>266.9</ele>
        <time>2022-07-17T13:11:55Z</time>
      </trkpt>
      <trkpt lat="46.79922" lon="5.55065">
        <ele>266.42</ele>
        <time>2022-07-17T13:11:56Z</time>
      </trkpt>
      <trkpt lat="46.79929" lon="5.55058">
        <ele>265.94</ele>
        <time>2022-07-17T13:11:57Z</time>
      </trkpt>
      <trkpt lat="46.79937" lon="5.55052">
        <ele>264.98</ele>
        <time>2022-07-17T13:11:58Z</time>
      </trkpt>
      <trkpt lat="46.79946" lon="5.55047">
        <ele>264.98</ele>
        <time>2022-07-17T13:11:59Z</time>
      </trkpt>
      <trkpt lat="46.79955" lon="5.55043">
        <ele>264.02</ele>
        <time>2022-07-17T13:12:00Z</time>
      </trkpt>
      <trkpt lat="46.79964" lon="5.55039">
        <ele>263.54</ele>
        <time>2022-07-17T13:12:01Z</time>
      </trkpt>
      <trkpt lat="46.79982" lon="5.55027">
        <ele>262.1</ele>
        <time>2022-07-17T13:12:03Z</time>
      </trkpt>
      <trkpt lat="46.79989" lon="5.55018">
        <ele>261.62</ele>
        <time>2022-07-17T13:12:04Z</time>
      </trkpt>
      <trkpt lat="46.79996" lon="5.55008">
        <ele>261.14</ele>
        <time>2022-07-17T13:12:05Z</time>
      </trkpt>
      <trkpt lat="46.80001" lon="5.54996">
        <ele>261.14</ele>
        <time>2022-07-17T13:12:06Z</time>
      </trkpt>
      <trkpt lat="46.80006" lon="5.54985">
        <ele>260.17</ele>
        <time>2022-07-17T13:12:07Z</time>
      </trkpt>
      <trkpt lat="46.8001" lon="5.54973">
        <ele>259.69</ele>
        <time>2022-07-17T13:12:08Z</time>
      </trkpt>
      <trkpt lat="46.80013" lon="5.54961">
        <ele>260.17</ele>
        <time>2022-07-17T13:12:09Z</time>
      </trkpt>
      <trkpt lat="46.80015" lon="5.54949">
        <ele>260.17</ele>
        <time>2022-07-17T13:12:10Z</time>
      </trkpt>
      <trkpt lat="46.80016" lon="5.54937">
        <ele>260.17</ele>
        <time>2022-07-17T13:12:11Z</time>
      </trkpt>
      <trkpt lat="46.80017" lon="5.54926">
        <ele>260.17</ele>
        <time>2022-07-17T13:12:12Z</time>
      </trkpt>
      <trkpt lat="46.80018" lon="5.54914">
        <ele>259.21</ele>
        <time>2022-07-17T13:12:13Z</time>
      </trkpt>
      <trkpt lat="46.80017" lon="5.54902">
        <ele>258.73</ele>
        <time>2022-07-17T13:12:14Z</time>
      </trkpt>
      <trkpt lat="46.80015" lon="5.5489">
        <ele>259.21</ele>
        <time>2022-07-17T13:12:15Z</time>
      </trkpt>
      <trkpt lat="46.80013" lon="5.54879">
        <ele>258.25</ele>
        <time>2022-07-17T13:12:16Z</time>
      </trkpt>
      <trkpt lat="46.80009" lon="5.54869">
        <ele>258.73</ele>
        <time>2022-07-17T13:12:17Z</time>
      </trkpt>
      <trkpt lat="46.80004" lon="5.5486">
        <ele>258.25</ele>
        <time>2022-07-17T13:12:18Z</time>
      </trkpt>
      <trkpt lat="46.79999" lon="5.54851">
        <ele>257.77</ele>
        <time>2022-07-17T13:12:19Z</time>
      </trkpt>
      <trkpt lat="46.79993" lon="5.54843">
        <ele>258.25</ele>
        <time>2022-07-17T13:12:20Z</time>
      </trkpt>
      <trkpt lat="46.79987" lon="5.54835">
        <ele>257.29</ele>
        <time>2022-07-17T13:12:21Z</time>
      </trkpt>
      <trkpt lat="46.79975" lon="5.54818">
        <ele>256.81</ele>
        <time>2022-07-17T13:12:23Z</time>
      </trkpt>
      <trkpt lat="46.79946" lon="5.54769">
        <ele>254.41</ele>
        <time>2022-07-17T13:12:28Z</time>
      </trkpt>
      <trkpt lat="46.79935" lon="5.54745">
        <ele>253.44</ele>
        <time>2022-07-17T13:12:30Z</time>
      </trkpt>
      <trkpt lat="46.79908" lon="5.54682">
        <ele>249.12</ele>
        <time>2022-07-17T13:12:35Z</time>
      </trkpt>
      <trkpt lat="46.79903" lon="5.54669">
        <ele>249.6</ele>
        <time>2022-07-17T13:12:36Z</time>
      </trkpt>
      <trkpt lat="46.79883" lon="5.54619">
        <ele>247.68</ele>
        <time>2022-07-17T13:12:40Z</time>
      </trkpt>
      <trkpt lat="46.79852" lon="5.54488">
        <ele>244.79</ele>
        <time>2022-07-17T13:12:50Z</time>
      </trkpt>
      <trkpt lat="46.79854" lon="5.54362">
        <ele>243.35</ele>
        <time>2022-07-17T13:13:01Z</time>
      </trkpt>
      <trkpt lat="46.7987" lon="5.54294">
        <ele>243.83</ele>
        <time>2022-07-17T13:13:12Z</time>
      </trkpt>
      <trkpt lat="46.79886" lon="5.54233">
        <ele>243.35</ele>
        <time>2022-07-17T13:13:28Z</time>
      </trkpt>
      <trkpt lat="46.79909" lon="5.54152">
        <ele>243.83</ele>
        <time>2022-07-17T13:13:46Z</time>
      </trkpt>
      <trkpt lat="46.79933" lon="5.54068">
        <ele>243.35</ele>
        <time>2022-07-17T13:14:02Z</time>
      </trkpt>
      <trkpt lat="46.79938" lon="5.54056">
        <ele>243.83</ele>
        <time>2022-07-17T13:14:04Z</time>
      </trkpt>
      <trkpt lat="46.79941" lon="5.54051">
        <ele>243.35</ele>
        <time>2022-07-17T13:14:05Z</time>
      </trkpt>
      <trkpt lat="46.79945" lon="5.54047">
        <ele>243.35</ele>
        <time>2022-07-17T13:14:06Z</time>
      </trkpt>
      <trkpt lat="46.79949" lon="5.54042">
        <ele>243.35</ele>
        <time>2022-07-17T13:14:07Z</time>
      </trkpt>
      <trkpt lat="46.79953" lon="5.54038">
        <ele>242.87</ele>
        <time>2022-07-17T13:14:08Z</time>
      </trkpt>
      <trkpt lat="46.79974" lon="5.54019">
        <ele>244.31</ele>
        <time>2022-07-17T13:14:13Z</time>
      </trkpt>
      <trkpt lat="46.79977" lon="5.54015">
        <ele>244.31</ele>
        <time>2022-07-17T13:14:14Z</time>
      </trkpt>
      <trkpt lat="46.79987" lon="5.54002">
        <ele>243.83</ele>
        <time>2022-07-17T13:14:17Z</time>
      </trkpt>
      <trkpt lat="46.8003" lon="5.53906">
        <ele>241.91</ele>
        <time>2022-07-17T13:14:34Z</time>
      </trkpt>
      <trkpt lat="46.80096" lon="5.53817">
        <ele>239.51</ele>
        <time>2022-07-17T13:14:49Z</time>
      </trkpt>
      <trkpt lat="46.80171" lon="5.53715">
        <ele>239.51</ele>
        <time>2022-07-17T13:15:07Z</time>
      </trkpt>
      <trkpt lat="46.80177" lon="5.53705">
        <ele>239.99</ele>
        <time>2022-07-17T13:15:09Z</time>
      </trkpt>
      <trkpt lat="46.80179" lon="5.53699">
        <ele>239.51</ele>
        <time>2022-07-17T13:15:10Z</time>
      </trkpt>
      <trkpt lat="46.80215" lon="5.53607">
        <ele>239.99</ele>
        <time>2022-07-17T13:15:28Z</time>
      </trkpt>
      <trkpt lat="46.80259" lon="5.53483">
        <ele>239.51</ele>
        <time>2022-07-17T13:15:47Z</time>
      </trkpt>
      <trkpt lat="46.80311" lon="5.53407">
        <ele>239.02</ele>
        <time>2022-07-17T13:16:01Z</time>
      </trkpt>
      <trkpt lat="46.80315" lon="5.53404">
        <ele>239.02</ele>
        <time>2022-07-17T13:16:02Z</time>
      </trkpt>
      <trkpt lat="46.80321" lon="5.53402">
        <ele>238.54</ele>
        <time>2022-07-17T13:16:03Z</time>
      </trkpt>
      <trkpt lat="46.80326" lon="5.534">
        <ele>239.02</ele>
        <time>2022-07-17T13:16:04Z</time>
      </trkpt>
      <trkpt lat="46.80331" lon="5.53399">
        <ele>239.02</ele>
        <time>2022-07-17T13:16:05Z</time>
      </trkpt>
      <trkpt lat="46.8036" lon="5.53393">
        <ele>238.06</ele>
        <time>2022-07-17T13:16:11Z</time>
      </trkpt>
      <trkpt lat="46.80365" lon="5.53391">
        <ele>238.06</ele>
        <time>2022-07-17T13:16:12Z</time>
      </trkpt>
      <trkpt lat="46.80369" lon="5.53389">
        <ele>238.06</ele>
        <time>2022-07-17T13:16:13Z</time>
      </trkpt>
      <trkpt lat="46.80373" lon="5.53385">
        <ele>238.06</ele>
        <time>2022-07-17T13:16:14Z</time>
      </trkpt>
      <trkpt lat="46.80377" lon="5.53382">
        <ele>238.54</ele>
        <time>2022-07-17T13:16:15Z</time>
      </trkpt>
      <trkpt lat="46.80386" lon="5.53363">
        <ele>238.54</ele>
        <time>2022-07-17T13:16:19Z</time>
      </trkpt>
      <trkpt lat="46.80387" lon="5.53358">
        <ele>238.54</ele>
        <time>2022-07-17T13:16:20Z</time>
      </trkpt>
      <trkpt lat="46.80394" lon="5.53301">
        <ele>240.47</ele>
        <time>2022-07-17T13:16:30Z</time>
      </trkpt>
      <trkpt lat="46.80397" lon="5.53264">
        <ele>239.99</ele>
        <time>2022-07-17T13:16:36Z</time>
      </trkpt>
      <trkpt lat="46.804" lon="5.53245">
        <ele>237.58</ele>
        <time>2022-07-17T13:16:39Z</time>
      </trkpt>
      <trkpt lat="46.80415" lon="5.53151">
        <ele>234.22</ele>
        <time>2022-07-17T13:16:50Z</time>
      </trkpt>
      <trkpt lat="46.80423" lon="5.53117">
        <ele>232.78</ele>
        <time>2022-07-17T13:16:53Z</time>
      </trkpt>
      <trkpt lat="46.80439" lon="5.53046">
        <ele>229.89</ele>
        <time>2022-07-17T13:16:59Z</time>
      </trkpt>
      <trkpt lat="46.80458" lon="5.52995">
        <ele>233.74</ele>
        <time>2022-07-17T13:17:04Z</time>
      </trkpt>
      <trkpt lat="46.80463" lon="5.52986">
        <ele>229.41</ele>
        <time>2022-07-17T13:17:05Z</time>
      </trkpt>
      <trkpt lat="46.80507" lon="5.52889">
        <ele>229.41</ele>
        <time>2022-07-17T13:17:18Z</time>
      </trkpt>
      <trkpt lat="46.80528" lon="5.52836">
        <ele>229.89</ele>
        <time>2022-07-17T13:17:29Z</time>
      </trkpt>
      <trkpt lat="46.80532" lon="5.52832">
        <ele>229.41</ele>
        <time>2022-07-17T13:17:30Z</time>
      </trkpt>
      <trkpt lat="46.80536" lon="5.52829">
        <ele>229.89</ele>
        <time>2022-07-17T13:17:31Z</time>
      </trkpt>
      <trkpt lat="46.8054" lon="5.52827">
        <ele>230.37</ele>
        <time>2022-07-17T13:17:32Z</time>
      </trkpt>
      <trkpt lat="46.80545" lon="5.52827">
        <ele>229.89</ele>
        <time>2022-07-17T13:17:33Z</time>
      </trkpt>
      <trkpt lat="46.80549" lon="5.52827">
        <ele>229.89</ele>
        <time>2022-07-17T13:17:34Z</time>
      </trkpt>
      <trkpt lat="46.80554" lon="5.52827">
        <ele>229.89</ele>
        <time>2022-07-17T13:17:35Z</time>
      </trkpt>
      <trkpt lat="46.80608" lon="5.52826">
        <ele>230.37</ele>
        <time>2022-07-17T13:17:49Z</time>
      </trkpt>
      <trkpt lat="46.80631" lon="5.52806">
        <ele>232.78</ele>
        <time>2022-07-17T13:17:58Z</time>
      </trkpt>
      <trkpt lat="46.80679" lon="5.52765">
        <ele>233.26</ele>
        <time>2022-07-17T13:18:18Z</time>
      </trkpt>
      <trkpt lat="46.80715" lon="5.5273">
        <ele>236.14</ele>
        <time>2022-07-17T13:18:34Z</time>
      </trkpt>
      <trkpt lat="46.80756" lon="5.52725">
        <ele>234.7</ele>
        <time>2022-07-17T13:18:48Z</time>
      </trkpt>
      <trkpt lat="46.80802" lon="5.52733">
        <ele>233.74</ele>
        <time>2022-07-17T13:19:05Z</time>
      </trkpt>
      <trkpt lat="46.80829" lon="5.52729">
        <ele>233.74</ele>
        <time>2022-07-17T13:19:19Z</time>
      </trkpt>
      <trkpt lat="46.80856" lon="5.52696">
        <ele>234.7</ele>
        <time>2022-07-17T13:19:31Z</time>
      </trkpt>
      <trkpt lat="46.80863" lon="5.52648">
        <ele>237.1</ele>
        <time>2022-07-17T13:19:43Z</time>
      </trkpt>
      <trkpt lat="46.80877" lon="5.52591">
        <ele>237.58</ele>
        <time>2022-07-17T13:19:59Z</time>
      </trkpt>
      <trkpt lat="46.809" lon="5.52534">
        <ele>238.06</ele>
        <time>2022-07-17T13:20:15Z</time>
      </trkpt>
      <trkpt lat="46.80897" lon="5.52488">
        <ele>238.06</ele>
        <time>2022-07-17T13:20:26Z</time>
      </trkpt>
      <trkpt lat="46.80846" lon="5.52448">
        <ele>239.02</ele>
        <time>2022-07-17T13:20:40Z</time>
      </trkpt>
      <trkpt lat="46.80793" lon="5.52405">
        <ele>238.54</ele>
        <time>2022-07-17T13:20:55Z</time>
      </trkpt>
      <trkpt lat="46.80752" lon="5.52373">
        <ele>238.06</ele>
        <time>2022-07-17T13:21:07Z</time>
      </trkpt>
      <trkpt lat="46.80711" lon="5.52338">
        <ele>238.54</ele>
        <time>2022-07-17T13:21:19Z</time>
      </trkpt>
      <trkpt lat="46.80648" lon="5.52287">
        <ele>238.54</ele>
        <time>2022-07-17T13:21:35Z</time>
      </trkpt>
      <trkpt lat="46.80562" lon="5.52209">
        <ele>235.66</ele>
        <time>2022-07-17T13:21:53Z</time>
      </trkpt>
      <trkpt lat="46.8052" lon="5.52171">
        <ele>235.66</ele>
        <time>2022-07-17T13:22:02Z</time>
      </trkpt>
      <trkpt lat="46.80432" lon="5.52093">
        <ele>235.66</ele>
        <time>2022-07-17T13:22:21Z</time>
      </trkpt>
      <trkpt lat="46.80423" lon="5.52085">
        <ele>234.22</ele>
        <time>2022-07-17T13:22:23Z</time>
      </trkpt>
      <trkpt lat="46.80334" lon="5.52006">
        <ele>232.3</ele>
        <time>2022-07-17T13:22:42Z</time>
      </trkpt>
      <trkpt lat="46.80277" lon="5.51956">
        <ele>234.22</ele>
        <time>2022-07-17T13:22:58Z</time>
      </trkpt>
      <trkpt lat="46.80237" lon="5.51919">
        <ele>235.66</ele>
        <time>2022-07-17T13:23:12Z</time>
      </trkpt>
      <trkpt lat="46.80182" lon="5.51871">
        <ele>237.58</ele>
        <time>2022-07-17T13:23:31Z</time>
      </trkpt>
      <trkpt lat="46.80159" lon="5.51851">
        <ele>239.02</ele>
        <time>2022-07-17T13:23:42Z</time>
      </trkpt>
      <trkpt lat="46.80133" lon="5.51833">
        <ele>239.99</ele>
        <time>2022-07-17T13:23:56Z</time>
      </trkpt>
      <trkpt lat="46.80129" lon="5.5183">
        <ele>240.47</ele>
        <time>2022-07-17T13:23:58Z</time>
      </trkpt>
      <trkpt lat="46.80115" lon="5.51816">
        <ele>240.47</ele>
        <time>2022-07-17T13:24:09Z</time>
      </trkpt>
      <trkpt lat="46.80101" lon="5.51804">
        <ele>240.47</ele>
        <time>2022-07-17T13:24:34Z</time>
      </trkpt>
      <trkpt lat="46.80056" lon="5.51765">
        <ele>240.95</ele>
        <time>2022-07-17T13:24:46Z</time>
      </trkpt>
      <trkpt lat="46.79978" lon="5.51701">
        <ele>240.95</ele>
        <time>2022-07-17T13:25:01Z</time>
      </trkpt>
      <trkpt lat="46.79909" lon="5.51638">
        <ele>240.47</ele>
        <time>2022-07-17T13:25:16Z</time>
      </trkpt>
      <trkpt lat="46.79876" lon="5.5161">
        <ele>239.51</ele>
        <time>2022-07-17T13:25:24Z</time>
      </trkpt>
      <trkpt lat="46.79813" lon="5.51542">
        <ele>238.06</ele>
        <time>2022-07-17T13:25:41Z</time>
      </trkpt>
      <trkpt lat="46.79753" lon="5.51459">
        <ele>239.02</ele>
        <time>2022-07-17T13:25:56Z</time>
      </trkpt>
      <trkpt lat="46.79714" lon="5.51395">
        <ele>239.99</ele>
        <time>2022-07-17T13:26:09Z</time>
      </trkpt>
      <trkpt lat="46.79691" lon="5.51355">
        <ele>239.51</ele>
        <time>2022-07-17T13:26:16Z</time>
      </trkpt>
      <trkpt lat="46.79656" lon="5.51295">
        <ele>239.02</ele>
        <time>2022-07-17T13:26:27Z</time>
      </trkpt>
      <trkpt lat="46.79604" lon="5.51207">
        <ele>239.02</ele>
        <time>2022-07-17T13:26:44Z</time>
      </trkpt>
      <trkpt lat="46.79549" lon="5.51114">
        <ele>239.51</ele>
        <time>2022-07-17T13:27:01Z</time>
      </trkpt>
      <trkpt lat="46.79544" lon="5.5111">
        <ele>239.51</ele>
        <time>2022-07-17T13:27:02Z</time>
      </trkpt>
      <trkpt lat="46.79539" lon="5.51106">
        <ele>239.02</ele>
        <time>2022-07-17T13:27:03Z</time>
      </trkpt>
      <trkpt lat="46.79535" lon="5.51105">
        <ele>239.51</ele>
        <time>2022-07-17T13:27:04Z</time>
      </trkpt>
      <trkpt lat="46.7953" lon="5.51104">
        <ele>239.99</ele>
        <time>2022-07-17T13:27:05Z</time>
      </trkpt>
      <trkpt lat="46.79525" lon="5.51104">
        <ele>239.51</ele>
        <time>2022-07-17T13:27:06Z</time>
      </trkpt>
      <trkpt lat="46.79463" lon="5.51089">
        <ele>239.51</ele>
        <time>2022-07-17T13:27:19Z</time>
      </trkpt>
      <trkpt lat="46.79411" lon="5.51064">
        <ele>241.43</ele>
        <time>2022-07-17T13:27:34Z</time>
      </trkpt>
      <trkpt lat="46.79369" lon="5.51066">
        <ele>244.31</ele>
        <time>2022-07-17T13:27:48Z</time>
      </trkpt>
      <trkpt lat="46.79321" lon="5.51083">
        <ele>246.23</ele>
        <time>2022-07-17T13:28:04Z</time>
      </trkpt>
      <trkpt lat="46.79263" lon="5.51065">
        <ele>248.16</ele>
        <time>2022-07-17T13:28:23Z</time>
      </trkpt>
      <trkpt lat="46.79227" lon="5.51019">
        <ele>250.56</ele>
        <time>2022-07-17T13:28:40Z</time>
      </trkpt>
      <trkpt lat="46.79229" lon="5.51023">
        <ele>250.56</ele>
        <time>2022-07-17T13:28:55Z</time>
      </trkpt>
      <trkpt lat="46.79228" lon="5.51022">
        <ele>250.56</ele>
        <time>2022-07-17T13:29:14Z</time>
      </trkpt>
      <trkpt lat="46.79204" lon="5.50999">
        <ele>251.04</ele>
        <time>2022-07-17T13:29:23Z</time>
      </trkpt>
      <trkpt lat="46.79182" lon="5.50969">
        <ele>252.48</ele>
        <time>2022-07-17T13:29:33Z</time>
      </trkpt>
      <trkpt lat="46.79141" lon="5.50922">
        <ele>252.96</ele>
        <time>2022-07-17T13:29:50Z</time>
      </trkpt>
      <trkpt lat="46.79093" lon="5.50879">
        <ele>253.44</ele>
        <time>2022-07-17T13:30:07Z</time>
      </trkpt>
      <trkpt lat="46.79049" lon="5.50865">
        <ele>253.93</ele>
        <time>2022-07-17T13:30:22Z</time>
      </trkpt>
      <trkpt lat="46.79009" lon="5.50859">
        <ele>253.93</ele>
        <time>2022-07-17T13:30:36Z</time>
      </trkpt>
      <trkpt lat="46.78938" lon="5.50847">
        <ele>254.89</ele>
        <time>2022-07-17T13:30:55Z</time>
      </trkpt>
      <trkpt lat="46.78873" lon="5.50835">
        <ele>255.37</ele>
        <time>2022-07-17T13:31:12Z</time>
      </trkpt>
      <trkpt lat="46.7881" lon="5.50823">
        <ele>256.33</ele>
        <time>2022-07-17T13:31:30Z</time>
      </trkpt>
      <trkpt lat="46.78745" lon="5.5081">
        <ele>257.29</ele>
        <time>2022-07-17T13:31:48Z</time>
      </trkpt>
      <trkpt lat="46.7868" lon="5.50798">
        <ele>258.25</ele>
        <time>2022-07-17T13:32:06Z</time>
      </trkpt>
      <trkpt lat="46.7862" lon="5.50791">
        <ele>259.21</ele>
        <time>2022-07-17T13:32:23Z</time>
      </trkpt>
      <trkpt lat="46.7856" lon="5.50784">
        <ele>260.17</ele>
        <time>2022-07-17T13:32:40Z</time>
      </trkpt>
      <trkpt lat="46.78522" lon="5.50776">
        <ele>260.65</ele>
        <time>2022-07-17T13:32:52Z</time>
      </trkpt>
      <trkpt lat="46.7848" lon="5.5077">
        <ele>261.62</ele>
        <time>2022-07-17T13:33:07Z</time>
      </trkpt>
      <trkpt lat="46.78421" lon="5.50759">
        <ele>262.1</ele>
        <time>2022-07-17T13:33:23Z</time>
      </trkpt>
      <trkpt lat="46.78357" lon="5.50751">
        <ele>261.62</ele>
        <time>2022-07-17T13:33:38Z</time>
      </trkpt>
      <trkpt lat="46.78289" lon="5.50723">
        <ele>259.69</ele>
        <time>2022-07-17T13:33:51Z</time>
      </trkpt>
      <trkpt lat="46.78274" lon="5.50712">
        <ele>259.21</ele>
        <time>2022-07-17T13:33:54Z</time>
      </trkpt>
      <trkpt lat="46.78268" lon="5.50708">
        <ele>259.21</ele>
        <time>2022-07-17T13:33:55Z</time>
      </trkpt>
      <trkpt lat="46.78264" lon="5.50702">
        <ele>259.21</ele>
        <time>2022-07-17T13:33:56Z</time>
      </trkpt>
      <trkpt lat="46.78254" lon="5.50692">
        <ele>259.21</ele>
        <time>2022-07-17T13:33:58Z</time>
      </trkpt>
      <trkpt lat="46.78239" lon="5.50678">
        <ele>258.25</ele>
        <time>2022-07-17T13:34:01Z</time>
      </trkpt>
      <trkpt lat="46.78182" lon="5.506">
        <ele>254.89</ele>
        <time>2022-07-17T13:34:12Z</time>
      </trkpt>
      <trkpt lat="46.78175" lon="5.50593">
        <ele>255.37</ele>
        <time>2022-07-17T13:34:13Z</time>
      </trkpt>
      <trkpt lat="46.78122" lon="5.50549">
        <ele>252.48</ele>
        <time>2022-07-17T13:34:20Z</time>
      </trkpt>
      <trkpt lat="46.7807" lon="5.50528">
        <ele>249.6</ele>
        <time>2022-07-17T13:34:26Z</time>
      </trkpt>
      <trkpt lat="46.78031" lon="5.50512">
        <ele>247.68</ele>
        <time>2022-07-17T13:34:30Z</time>
      </trkpt>
      <trkpt lat="46.78" lon="5.505">
        <ele>244.79</ele>
        <time>2022-07-17T13:34:33Z</time>
      </trkpt>
      <trkpt lat="46.7799" lon="5.50498">
        <ele>244.79</ele>
        <time>2022-07-17T13:34:34Z</time>
      </trkpt>
      <trkpt lat="46.77978" lon="5.50498">
        <ele>244.31</ele>
        <time>2022-07-17T13:34:35Z</time>
      </trkpt>
      <trkpt lat="46.77967" lon="5.50498">
        <ele>243.83</ele>
        <time>2022-07-17T13:34:36Z</time>
      </trkpt>
      <trkpt lat="46.77956" lon="5.50499">
        <ele>243.35</ele>
        <time>2022-07-17T13:34:37Z</time>
      </trkpt>
      <trkpt lat="46.77881" lon="5.5052">
        <ele>239.99</ele>
        <time>2022-07-17T13:34:44Z</time>
      </trkpt>
      <trkpt lat="46.77819" lon="5.50544">
        <ele>236.62</ele>
        <time>2022-07-17T13:34:50Z</time>
      </trkpt>
      <trkpt lat="46.778" lon="5.50559">
        <ele>235.66</ele>
        <time>2022-07-17T13:34:52Z</time>
      </trkpt>
      <trkpt lat="46.77746" lon="5.50617">
        <ele>232.3</ele>
        <time>2022-07-17T13:34:58Z</time>
      </trkpt>
      <trkpt lat="46.77736" lon="5.50624">
        <ele>231.81</ele>
        <time>2022-07-17T13:34:59Z</time>
      </trkpt>
      <trkpt lat="46.77725" lon="5.50629">
        <ele>231.33</ele>
        <time>2022-07-17T13:35:00Z</time>
      </trkpt>
      <trkpt lat="46.77713" lon="5.50631">
        <ele>231.33</ele>
        <time>2022-07-17T13:35:01Z</time>
      </trkpt>
      <trkpt lat="46.77702" lon="5.50632">
        <ele>229.89</ele>
        <time>2022-07-17T13:35:02Z</time>
      </trkpt>
      <trkpt lat="46.77691" lon="5.50631">
        <ele>228.93</ele>
        <time>2022-07-17T13:35:03Z</time>
      </trkpt>
      <trkpt lat="46.77679" lon="5.50627">
        <ele>228.93</ele>
        <time>2022-07-17T13:35:04Z</time>
      </trkpt>
      <trkpt lat="46.77668" lon="5.50623">
        <ele>228.45</ele>
        <time>2022-07-17T13:35:05Z</time>
      </trkpt>
      <trkpt lat="46.77604" lon="5.50583">
        <ele>225.09</ele>
        <time>2022-07-17T13:35:11Z</time>
      </trkpt>
      <trkpt lat="46.77594" lon="5.50574">
        <ele>225.57</ele>
        <time>2022-07-17T13:35:12Z</time>
      </trkpt>
      <trkpt lat="46.77488" lon="5.50504">
        <ele>225.57</ele>
        <time>2022-07-17T13:35:24Z</time>
      </trkpt>
      <trkpt lat="46.77396" lon="5.50441">
        <ele>224.61</ele>
        <time>2022-07-17T13:35:38Z</time>
      </trkpt>
      <trkpt lat="46.77315" lon="5.50407">
        <ele>224.12</ele>
        <time>2022-07-17T13:35:53Z</time>
      </trkpt>
      <trkpt lat="46.7731" lon="5.50408">
        <ele>224.12</ele>
        <time>2022-07-17T13:35:54Z</time>
      </trkpt>
      <trkpt lat="46.77272" lon="5.5042">
        <ele>224.12</ele>
        <time>2022-07-17T13:36:01Z</time>
      </trkpt>
      <trkpt lat="46.77267" lon="5.50424">
        <ele>224.12</ele>
        <time>2022-07-17T13:36:02Z</time>
      </trkpt>
      <trkpt lat="46.77262" lon="5.50429">
        <ele>224.12</ele>
        <time>2022-07-17T13:36:03Z</time>
      </trkpt>
      <trkpt lat="46.77258" lon="5.50435">
        <ele>224.61</ele>
        <time>2022-07-17T13:36:04Z</time>
      </trkpt>
      <trkpt lat="46.77255" lon="5.50442">
        <ele>224.12</ele>
        <time>2022-07-17T13:36:05Z</time>
      </trkpt>
      <trkpt lat="46.77253" lon="5.5045">
        <ele>224.12</ele>
        <time>2022-07-17T13:36:06Z</time>
      </trkpt>
      <trkpt lat="46.77251" lon="5.50459">
        <ele>224.12</ele>
        <time>2022-07-17T13:36:07Z</time>
      </trkpt>
      <trkpt lat="46.7725" lon="5.50468">
        <ele>224.12</ele>
        <time>2022-07-17T13:36:08Z</time>
      </trkpt>
      <trkpt lat="46.77249" lon="5.50477">
        <ele>224.61</ele>
        <time>2022-07-17T13:36:09Z</time>
      </trkpt>
      <trkpt lat="46.77241" lon="5.50525">
        <ele>223.64</ele>
        <time>2022-07-17T13:36:15Z</time>
      </trkpt>
      <trkpt lat="46.77209" lon="5.50621">
        <ele>225.09</ele>
        <time>2022-07-17T13:36:29Z</time>
      </trkpt>
      <trkpt lat="46.77164" lon="5.50757">
        <ele>224.61</ele>
        <time>2022-07-17T13:36:52Z</time>
      </trkpt>
      <trkpt lat="46.77125" lon="5.50872">
        <ele>225.09</ele>
        <time>2022-07-17T13:37:12Z</time>
      </trkpt>
      <trkpt lat="46.77097" lon="5.50971">
        <ele>225.57</ele>
        <time>2022-07-17T13:37:30Z</time>
      </trkpt>
      <trkpt lat="46.77096" lon="5.51069">
        <ele>226.53</ele>
        <time>2022-07-17T13:37:47Z</time>
      </trkpt>
      <trkpt lat="46.77085" lon="5.51093">
        <ele>226.05</ele>
        <time>2022-07-17T13:37:52Z</time>
      </trkpt>
      <trkpt lat="46.77082" lon="5.51096">
        <ele>226.53</ele>
        <time>2022-07-17T13:37:53Z</time>
      </trkpt>
      <trkpt lat="46.77078" lon="5.51099">
        <ele>226.53</ele>
        <time>2022-07-17T13:37:54Z</time>
      </trkpt>
      <trkpt lat="46.77015" lon="5.5116">
        <ele>226.53</ele>
        <time>2022-07-17T13:38:12Z</time>
      </trkpt>
      <trkpt lat="46.76991" lon="5.51247">
        <ele>226.05</ele>
        <time>2022-07-17T13:38:28Z</time>
      </trkpt>
      <trkpt lat="46.76989" lon="5.51297">
        <ele>225.57</ele>
        <time>2022-07-17T13:38:36Z</time>
      </trkpt>
      <trkpt lat="46.76989" lon="5.51303">
        <ele>226.53</ele>
        <time>2022-07-17T13:38:37Z</time>
      </trkpt>
      <trkpt lat="46.76988" lon="5.51309">
        <ele>226.05</ele>
        <time>2022-07-17T13:38:38Z</time>
      </trkpt>
      <trkpt lat="46.76987" lon="5.51328">
        <ele>227.01</ele>
        <time>2022-07-17T13:38:41Z</time>
      </trkpt>
      <trkpt lat="46.76986" lon="5.51335">
        <ele>226.05</ele>
        <time>2022-07-17T13:38:42Z</time>
      </trkpt>
      <trkpt lat="46.76976" lon="5.51372">
        <ele>227.01</ele>
        <time>2022-07-17T13:38:48Z</time>
      </trkpt>
      <trkpt lat="46.76942" lon="5.51468">
        <ele>227.01</ele>
        <time>2022-07-17T13:39:05Z</time>
      </trkpt>
      <trkpt lat="46.76911" lon="5.51557">
        <ele>227.01</ele>
        <time>2022-07-17T13:39:23Z</time>
      </trkpt>
      <trkpt lat="46.76891" lon="5.5161">
        <ele>228.45</ele>
        <time>2022-07-17T13:39:37Z</time>
      </trkpt>
      <trkpt lat="46.76866" lon="5.51663">
        <ele>229.89</ele>
        <time>2022-07-17T13:39:54Z</time>
      </trkpt>
      <trkpt lat="46.76836" lon="5.51713">
        <ele>231.33</ele>
        <time>2022-07-17T13:40:12Z</time>
      </trkpt>
      <trkpt lat="46.76804" lon="5.5177">
        <ele>233.74</ele>
        <time>2022-07-17T13:40:34Z</time>
      </trkpt>
      <trkpt lat="46.76774" lon="5.51821">
        <ele>233.74</ele>
        <time>2022-07-17T13:40:50Z</time>
      </trkpt>
      <trkpt lat="46.76739" lon="5.51864">
        <ele>233.74</ele>
        <time>2022-07-17T13:41:03Z</time>
      </trkpt>
      <trkpt lat="46.76675" lon="5.51881">
        <ele>232.3</ele>
        <time>2022-07-17T13:41:18Z</time>
      </trkpt>
      <trkpt lat="46.76612" lon="5.51897">
        <ele>230.85</ele>
        <time>2022-07-17T13:41:31Z</time>
      </trkpt>
      <trkpt lat="46.76607" lon="5.519">
        <ele>230.85</ele>
        <time>2022-07-17T13:41:32Z</time>
      </trkpt>
      <trkpt lat="46.76603" lon="5.51904">
        <ele>230.85</ele>
        <time>2022-07-17T13:41:33Z</time>
      </trkpt>
      <trkpt lat="46.76563" lon="5.51946">
        <ele>230.37</ele>
        <time>2022-07-17T13:41:46Z</time>
      </trkpt>
      <trkpt lat="46.76559" lon="5.51944">
        <ele>230.37</ele>
        <time>2022-07-17T13:41:47Z</time>
      </trkpt>
      <trkpt lat="46.76555" lon="5.51941">
        <ele>230.37</ele>
        <time>2022-07-17T13:41:48Z</time>
      </trkpt>
      <trkpt lat="46.76502" lon="5.51884">
        <ele>228.93</ele>
        <time>2022-07-17T13:42:02Z</time>
      </trkpt>
      <trkpt lat="46.76462" lon="5.51842">
        <ele>228.45</ele>
        <time>2022-07-17T13:42:13Z</time>
      </trkpt>
      <trkpt lat="46.76433" lon="5.51831">
        <ele>228.93</ele>
        <time>2022-07-17T13:42:20Z</time>
      </trkpt>
      <trkpt lat="46.76419" lon="5.51832">
        <ele>228.93</ele>
        <time>2022-07-17T13:42:23Z</time>
      </trkpt>
      <trkpt lat="46.76383" lon="5.51846">
        <ele>228.45</ele>
        <time>2022-07-17T13:42:30Z</time>
      </trkpt>
      <trkpt lat="46.76352" lon="5.51852">
        <ele>228.93</ele>
        <time>2022-07-17T13:42:36Z</time>
      </trkpt>
      <trkpt lat="46.76347" lon="5.51852">
        <ele>228.93</ele>
        <time>2022-07-17T13:42:37Z</time>
      </trkpt>
      <trkpt lat="46.76276" lon="5.51824">
        <ele>227.97</ele>
        <time>2022-07-17T13:42:51Z</time>
      </trkpt>
      <trkpt lat="46.76266" lon="5.51823">
        <ele>228.45</ele>
        <time>2022-07-17T13:42:53Z</time>
      </trkpt>
      <trkpt lat="46.76261" lon="5.51826">
        <ele>228.45</ele>
        <time>2022-07-17T13:42:54Z</time>
      </trkpt>
      <trkpt lat="46.76257" lon="5.51831">
        <ele>228.45</ele>
        <time>2022-07-17T13:42:55Z</time>
      </trkpt>
      <trkpt lat="46.76254" lon="5.51838">
        <ele>228.45</ele>
        <time>2022-07-17T13:42:56Z</time>
      </trkpt>
      <trkpt lat="46.76253" lon="5.51844">
        <ele>229.41</ele>
        <time>2022-07-17T13:42:57Z</time>
      </trkpt>
      <trkpt lat="46.76251" lon="5.5185">
        <ele>229.41</ele>
        <time>2022-07-17T13:42:58Z</time>
      </trkpt>
      <trkpt lat="46.76249" lon="5.51856">
        <ele>229.41</ele>
        <time>2022-07-17T13:42:59Z</time>
      </trkpt>
      <trkpt lat="46.76239" lon="5.51884">
        <ele>229.41</ele>
        <time>2022-07-17T13:43:04Z</time>
      </trkpt>
      <trkpt lat="46.76229" lon="5.51913">
        <ele>230.85</ele>
        <time>2022-07-17T13:43:09Z</time>
      </trkpt>
      <trkpt lat="46.76225" lon="5.51925">
        <ele>229.89</ele>
        <time>2022-07-17T13:43:11Z</time>
      </trkpt>
      <trkpt lat="46.76219" lon="5.51944">
        <ele>229.89</ele>
        <time>2022-07-17T13:43:14Z</time>
      </trkpt>
      <trkpt lat="46.76181" lon="5.52046">
        <ele>229.89</ele>
        <time>2022-07-17T13:43:31Z</time>
      </trkpt>
      <trkpt lat="46.76157" lon="5.52109">
        <ele>229.41</ele>
        <time>2022-07-17T13:43:43Z</time>
      </trkpt>
      <trkpt lat="46.76154" lon="5.52109">
        <ele>228.93</ele>
        <time>2022-07-17T13:43:44Z</time>
      </trkpt>
      <trkpt lat="46.7615" lon="5.5211">
        <ele>229.41</ele>
        <time>2022-07-17T13:43:45Z</time>
      </trkpt>
      <trkpt lat="46.76147" lon="5.52112">
        <ele>228.93</ele>
        <time>2022-07-17T13:43:46Z</time>
      </trkpt>
      <trkpt lat="46.76145" lon="5.52117">
        <ele>229.41</ele>
        <time>2022-07-17T13:43:47Z</time>
      </trkpt>
      <trkpt lat="46.76144" lon="5.52121">
        <ele>229.41</ele>
        <time>2022-07-17T13:43:48Z</time>
      </trkpt>
      <trkpt lat="46.76144" lon="5.52126">
        <ele>229.41</ele>
        <time>2022-07-17T13:43:49Z</time>
      </trkpt>
      <trkpt lat="46.76145" lon="5.5213">
        <ele>229.41</ele>
        <time>2022-07-17T13:43:50Z</time>
      </trkpt>
      <trkpt lat="46.76146" lon="5.52134">
        <ele>229.41</ele>
        <time>2022-07-17T13:43:51Z</time>
      </trkpt>
      <trkpt lat="46.76146" lon="5.52139">
        <ele>229.41</ele>
        <time>2022-07-17T13:43:52Z</time>
      </trkpt>
      <trkpt lat="46.76146" lon="5.52143">
        <ele>229.41</ele>
        <time>2022-07-17T13:43:53Z</time>
      </trkpt>
      <trkpt lat="46.76145" lon="5.52147">
        <ele>228.93</ele>
        <time>2022-07-17T13:43:54Z</time>
      </trkpt>
      <trkpt lat="46.76132" lon="5.52217">
        <ele>228.93</ele>
        <time>2022-07-17T13:44:09Z</time>
      </trkpt>
      <trkpt lat="46.76117" lon="5.52289">
        <ele>229.41</ele>
        <time>2022-07-17T13:44:25Z</time>
      </trkpt>
      <trkpt lat="46.76085" lon="5.52295">
        <ele>228.93</ele>
        <time>2022-07-17T13:44:36Z</time>
      </trkpt>
      <trkpt lat="46.76078" lon="5.52302">
        <ele>228.93</ele>
        <time>2022-07-17T13:44:38Z</time>
      </trkpt>
      <trkpt lat="46.76075" lon="5.52307">
        <ele>229.41</ele>
        <time>2022-07-17T13:44:39Z</time>
      </trkpt>
      <trkpt lat="46.76073" lon="5.52313">
        <ele>229.41</ele>
        <time>2022-07-17T13:44:40Z</time>
      </trkpt>
      <trkpt lat="46.76071" lon="5.5232">
        <ele>228.93</ele>
        <time>2022-07-17T13:44:41Z</time>
      </trkpt>
      <trkpt lat="46.76069" lon="5.52327">
        <ele>228.93</ele>
        <time>2022-07-17T13:44:42Z</time>
      </trkpt>
      <trkpt lat="46.76069" lon="5.52334">
        <ele>228.93</ele>
        <time>2022-07-17T13:44:43Z</time>
      </trkpt>
      <trkpt lat="46.76068" lon="5.52342">
        <ele>228.45</ele>
        <time>2022-07-17T13:44:44Z</time>
      </trkpt>
      <trkpt lat="46.76068" lon="5.52349">
        <ele>228.45</ele>
        <time>2022-07-17T13:44:45Z</time>
      </trkpt>
      <trkpt lat="46.76064" lon="5.52457">
        <ele>228.45</ele>
        <time>2022-07-17T13:45:01Z</time>
      </trkpt>
      <trkpt lat="46.76068" lon="5.52566">
        <ele>228.93</ele>
        <time>2022-07-17T13:45:17Z</time>
      </trkpt>
      <trkpt lat="46.76068" lon="5.52579">
        <ele>228.93</ele>
        <time>2022-07-17T13:45:19Z</time>
      </trkpt>
      <trkpt lat="46.76069" lon="5.52584">
        <ele>228.93</ele>
        <time>2022-07-17T13:45:20Z</time>
      </trkpt>
      <trkpt lat="46.7607" lon="5.52588">
        <ele>229.41</ele>
        <time>2022-07-17T13:45:21Z</time>
      </trkpt>
      <trkpt lat="46.7607" lon="5.52589">
        <ele>229.41</ele>
        <time>2022-07-17T13:45:30Z</time>
      </trkpt>
      <trkpt lat="46.76071" lon="5.52589">
        <ele>228.93</ele>
        <time>2022-07-17T13:45:58Z</time>
      </trkpt>
      <trkpt lat="46.76071" lon="5.52591">
        <ele>228.93</ele>
        <time>2022-07-17T13:45:59Z</time>
      </trkpt>
      <trkpt lat="46.76071" lon="5.52623">
        <ele>228.93</ele>
        <time>2022-07-17T13:46:09Z</time>
      </trkpt>
      <trkpt lat="46.76074" lon="5.52627">
        <ele>228.93</ele>
        <time>2022-07-17T13:46:23Z</time>
      </trkpt>
      <trkpt lat="46.7607" lon="5.52633">
        <ele>228.93</ele>
        <time>2022-07-17T13:46:46Z</time>
      </trkpt>
      <trkpt lat="46.76069" lon="5.52634">
        <ele>228.45</ele>
        <time>2022-07-17T13:46:47Z</time>
      </trkpt>
      <trkpt lat="46.76068" lon="5.52636">
        <ele>228.45</ele>
        <time>2022-07-17T13:46:48Z</time>
      </trkpt>
      <trkpt lat="46.76067" lon="5.52639">
        <ele>228.45</ele>
        <time>2022-07-17T13:46:49Z</time>
      </trkpt>
      <trkpt lat="46.76066" lon="5.52642">
        <ele>228.93</ele>
        <time>2022-07-17T13:46:50Z</time>
      </trkpt>
      <trkpt lat="46.76067" lon="5.52659">
        <ele>228.45</ele>
        <time>2022-07-17T13:46:55Z</time>
      </trkpt>
      <trkpt lat="46.76067" lon="5.52662">
        <ele>228.93</ele>
        <time>2022-07-17T13:46:56Z</time>
      </trkpt>
      <trkpt lat="46.76082" lon="5.52728">
        <ele>228.93</ele>
        <time>2022-07-17T13:47:11Z</time>
      </trkpt>
      <trkpt lat="46.76095" lon="5.52791">
        <ele>229.41</ele>
        <time>2022-07-17T13:47:24Z</time>
      </trkpt>
      <trkpt lat="46.76104" lon="5.52868">
        <ele>229.41</ele>
        <time>2022-07-17T13:47:38Z</time>
      </trkpt>
      <trkpt lat="46.76084" lon="5.52948">
        <ele>230.85</ele>
        <time>2022-07-17T13:47:54Z</time>
      </trkpt>
      <trkpt lat="46.76072" lon="5.52983">
        <ele>230.37</ele>
        <time>2022-07-17T13:48:06Z</time>
      </trkpt>
      <trkpt lat="46.76077" lon="5.52981">
        <ele>231.33</ele>
        <time>2022-07-17T13:48:32Z</time>
      </trkpt>
      <trkpt lat="46.76077" lon="5.52979">
        <ele>231.81</ele>
        <time>2022-07-17T13:49:07Z</time>
      </trkpt>
      <trkpt lat="46.76076" lon="5.52978">
        <ele>231.81</ele>
        <time>2022-07-17T13:49:36Z</time>
      </trkpt>
      <trkpt lat="46.76076" lon="5.52984">
        <ele>232.3</ele>
        <time>2022-07-17T13:49:45Z</time>
      </trkpt>
      <trkpt lat="46.76076" lon="5.52986">
        <ele>231.81</ele>
        <time>2022-07-17T13:49:46Z</time>
      </trkpt>
      <trkpt lat="46.76076" lon="5.52988">
        <ele>232.3</ele>
        <time>2022-07-17T13:49:47Z</time>
      </trkpt>
      <trkpt lat="46.76075" lon="5.52991">
        <ele>232.3</ele>
        <time>2022-07-17T13:49:48Z</time>
      </trkpt>
      <trkpt lat="46.76074" lon="5.52994">
        <ele>231.33</ele>
        <time>2022-07-17T13:49:49Z</time>
      </trkpt>
      <trkpt lat="46.76073" lon="5.52998">
        <ele>232.3</ele>
        <time>2022-07-17T13:49:50Z</time>
      </trkpt>
      <trkpt lat="46.76072" lon="5.53001">
        <ele>231.33</ele>
        <time>2022-07-17T13:49:51Z</time>
      </trkpt>
      <trkpt lat="46.7605" lon="5.53062">
        <ele>233.26</ele>
        <time>2022-07-17T13:50:04Z</time>
      </trkpt>
      <trkpt lat="46.76035" lon="5.53117">
        <ele>233.74</ele>
        <time>2022-07-17T13:50:16Z</time>
      </trkpt>
      <trkpt lat="46.76019" lon="5.53184">
        <ele>236.14</ele>
        <time>2022-07-17T13:50:30Z</time>
      </trkpt>
      <trkpt lat="46.76" lon="5.53281">
        <ele>234.7</ele>
        <time>2022-07-17T13:50:46Z</time>
      </trkpt>
      <trkpt lat="46.75989" lon="5.53396">
        <ele>235.66</ele>
        <time>2022-07-17T13:51:05Z</time>
      </trkpt>
      <trkpt lat="46.75986" lon="5.53505">
        <ele>238.54</ele>
        <time>2022-07-17T13:51:26Z</time>
      </trkpt>
      <trkpt lat="46.75987" lon="5.53517">
        <ele>239.02</ele>
        <time>2022-07-17T13:51:37Z</time>
      </trkpt>
      <trkpt lat="46.75992" lon="5.53518">
        <ele>238.06</ele>
        <time>2022-07-17T13:52:06Z</time>
      </trkpt>
      <trkpt lat="46.75985" lon="5.53532">
        <ele>238.54</ele>
        <time>2022-07-17T13:52:22Z</time>
      </trkpt>
      <trkpt lat="46.75976" lon="5.53581">
        <ele>239.99</ele>
        <time>2022-07-17T13:52:36Z</time>
      </trkpt>
      <trkpt lat="46.75974" lon="5.53636">
        <ele>240.95</ele>
        <time>2022-07-17T13:52:50Z</time>
      </trkpt>
      <trkpt lat="46.7598" lon="5.53667">
        <ele>241.43</ele>
        <time>2022-07-17T13:52:59Z</time>
      </trkpt>
      <trkpt lat="46.75979" lon="5.53669">
        <ele>240.47</ele>
        <time>2022-07-17T13:53:00Z</time>
      </trkpt>
      <trkpt lat="46.75978" lon="5.5367">
        <ele>240.95</ele>
        <time>2022-07-17T13:53:01Z</time>
      </trkpt>
      <trkpt lat="46.75976" lon="5.53671">
        <ele>241.43</ele>
        <time>2022-07-17T13:53:03Z</time>
      </trkpt>
      <trkpt lat="46.75975" lon="5.53672">
        <ele>241.43</ele>
        <time>2022-07-17T13:53:04Z</time>
      </trkpt>
      <trkpt lat="46.75974" lon="5.53673">
        <ele>241.43</ele>
        <time>2022-07-17T13:53:05Z</time>
      </trkpt>
      <trkpt lat="46.75973" lon="5.53675">
        <ele>241.91</ele>
        <time>2022-07-17T13:53:06Z</time>
      </trkpt>
      <trkpt lat="46.75973" lon="5.53677">
        <ele>241.91</ele>
        <time>2022-07-17T13:53:07Z</time>
      </trkpt>
      <trkpt lat="46.75973" lon="5.53679">
        <ele>241.91</ele>
        <time>2022-07-17T13:53:08Z</time>
      </trkpt>
      <trkpt lat="46.75972" lon="5.53681">
        <ele>241.91</ele>
        <time>2022-07-17T13:53:09Z</time>
      </trkpt>
      <trkpt lat="46.75972" lon="5.53683">
        <ele>241.91</ele>
        <time>2022-07-17T13:53:10Z</time>
      </trkpt>
      <trkpt lat="46.75972" lon="5.53686">
        <ele>242.39</ele>
        <time>2022-07-17T13:53:11Z</time>
      </trkpt>
      <trkpt lat="46.75972" lon="5.53688">
        <ele>242.87</ele>
        <time>2022-07-17T13:53:12Z</time>
      </trkpt>
      <trkpt lat="46.75972" lon="5.53701">
        <ele>243.35</ele>
        <time>2022-07-17T13:53:18Z</time>
      </trkpt>
      <trkpt lat="46.75971" lon="5.53704">
        <ele>243.35</ele>
        <time>2022-07-17T13:53:19Z</time>
      </trkpt>
      <trkpt lat="46.75969" lon="5.53763">
        <ele>243.83</ele>
        <time>2022-07-17T13:53:36Z</time>
      </trkpt>
      <trkpt lat="46.75969" lon="5.53826">
        <ele>241.91</ele>
        <time>2022-07-17T13:53:48Z</time>
      </trkpt>
      <trkpt lat="46.75965" lon="5.53906">
        <ele>238.54</ele>
        <time>2022-07-17T13:54:01Z</time>
      </trkpt>
      <trkpt lat="46.75964" lon="5.5392">
        <ele>238.54</ele>
        <time>2022-07-17T13:54:03Z</time>
      </trkpt>
      <trkpt lat="46.75965" lon="5.53927">
        <ele>238.54</ele>
        <time>2022-07-17T13:54:04Z</time>
      </trkpt>
      <trkpt lat="46.75964" lon="5.53986">
        <ele>239.51</ele>
        <time>2022-07-17T13:54:16Z</time>
      </trkpt>
      <trkpt lat="46.75959" lon="5.54055">
        <ele>241.43</ele>
        <time>2022-07-17T13:54:32Z</time>
      </trkpt>
      <trkpt lat="46.75975" lon="5.54139">
        <ele>241.43</ele>
        <time>2022-07-17T13:54:47Z</time>
      </trkpt>
      <trkpt lat="46.75977" lon="5.54146">
        <ele>240.95</ele>
        <time>2022-07-17T13:54:48Z</time>
      </trkpt>
      <trkpt lat="46.75978" lon="5.54153">
        <ele>240.95</ele>
        <time>2022-07-17T13:54:49Z</time>
      </trkpt>
      <trkpt lat="46.75989" lon="5.54226">
        <ele>239.99</ele>
        <time>2022-07-17T13:55:00Z</time>
      </trkpt>
      <trkpt lat="46.75988" lon="5.54233">
        <ele>239.99</ele>
        <time>2022-07-17T13:55:01Z</time>
      </trkpt>
      <trkpt lat="46.75986" lon="5.54238">
        <ele>240.47</ele>
        <time>2022-07-17T13:55:02Z</time>
      </trkpt>
      <trkpt lat="46.75983" lon="5.54241">
        <ele>240.95</ele>
        <time>2022-07-17T13:55:03Z</time>
      </trkpt>
      <trkpt lat="46.7598" lon="5.54242">
        <ele>241.43</ele>
        <time>2022-07-17T13:55:04Z</time>
      </trkpt>
      <trkpt lat="46.75978" lon="5.5424">
        <ele>240.95</ele>
        <time>2022-07-17T13:55:05Z</time>
      </trkpt>
      <trkpt lat="46.75974" lon="5.54239">
        <ele>240.95</ele>
        <time>2022-07-17T13:55:06Z</time>
      </trkpt>
      <trkpt lat="46.75972" lon="5.54236">
        <ele>241.43</ele>
        <time>2022-07-17T13:55:07Z</time>
      </trkpt>
      <trkpt lat="46.7597" lon="5.54233">
        <ele>241.43</ele>
        <time>2022-07-17T13:55:08Z</time>
      </trkpt>
      <trkpt lat="46.7597" lon="5.5423">
        <ele>241.43</ele>
        <time>2022-07-17T13:55:09Z</time>
      </trkpt>
      <trkpt lat="46.75969" lon="5.54226">
        <ele>241.91</ele>
        <time>2022-07-17T13:55:10Z</time>
      </trkpt>
      <trkpt lat="46.75968" lon="5.54222">
        <ele>241.43</ele>
        <time>2022-07-17T13:55:11Z</time>
      </trkpt>
      <trkpt lat="46.75967" lon="5.54219">
        <ele>241.43</ele>
        <time>2022-07-17T13:55:12Z</time>
      </trkpt>
      <trkpt lat="46.75958" lon="5.54188">
        <ele>242.87</ele>
        <time>2022-07-17T13:55:23Z</time>
      </trkpt>
      <trkpt lat="46.75952" lon="5.54188">
        <ele>242.87</ele>
        <time>2022-07-17T13:55:33Z</time>
      </trkpt>
    </trkseg>
  </trk>
</gpx>